[[{"header":{"parameterUnit":"m.s-1","parameterCategory":1,"la1":30.6,"la2":28.766,"lo1":-90.7593,"lo2":-88.6598,"dy":0.0162,"dx":0.0183,"nx":116,"ny":114,"refTime":"2023-07-29T06:00:00:Z","depth":0,"parameterNumber":2,"parameterNumberName":"U-component_of_WINDS"},"data":[0.0,0.0,0.0,0.0,0.0,0.0,0.0,0.0,0.0,0.0,0.0,0.0,0.0,0.0,0.0,0.0,0.0,0.0,0.0,0.0,0.0,0.0,0.0,0.0,0.0,0.0,0.0,0.0,0.0,0.0,0.0,0.0,0.0,0.0,0.0,0.0,0.0,0.0,0.0,0.0,0.0,0.0,0.0,0.0,0.0,0.0,0.0,0.0,0.0,0.0,0.0,0.0,0.0,0.0,0.0,0.0,0.0,0.0,0.0,0.0,0.0,0.0,0.0,0.0,0.0,0.0,0.0,0.0,0.0,0.0,0.0,0.0,0.0,0.0,0.0,0.0,0.0,0.0,0.0,0.0,0.0,0.0,0.0,0.0,0.0,0.0,0.0,0.0,0.0,0.0,0.0,0.0,0.0,0.0,0.0,0.0,0.0,0.0,0.0,0.0,0.0,0.0,0.0,0.0,0.0,0.0,0.0,0.0,0.0,0.0,0.0,0.0,0.0,0.0,0.0,0.0,0.0,0.0,0.0,0.0,0.0,0.0,0.0,0.0,0.0,0.0,0.0,0.0,0.0,0.0,0.0,0.0,0.0,0.0,0.0,0.0,0.0,0.0,0.0,0.0,0.0,0.0,0.0,0.0,0.0,0.0,0.0,0.0,0.0,0.0,0.0,0.0,0.0,0.0,0.0,0.0,0.0,0.0,0.0,0.0,0.0,0.0,0.0,0.0,0.0,0.0,0.0,0.0,0.0,0.0,0.0,0.0,0.0,0.0,0.0,0.0,0.0,0.0,0.0,0.0,0.0,0.0,0.0,0.0,0.0,0.0,0.0,0.0,0.0,0.0,0.0,0.0,0.0,0.0,0.0,0.0,0.0,0.0,0.0,0.0,0.0,0.0,0.0,0.0,0.0,0.0,0.0,0.0,0.0,0.0,0.0,0.0,0.0,0.0,0.0,0.0,0.0,0.0,0.0,0.0,0.0,0.0,0.0,0.0,0.0,0.0,0.0,0.0,0.0,0.0,0.0,0.0,0.0,0.0,0.0,0.0,0.0,0.0,0.0,0.0,0.0,0.0,0.0,0.0,0.0,0.0,0.0,0.0,0.0,0.0,0.0,0.0,0.0,0.0,0.0,0.0,0.0,0.0,0.0,0.0,0.0,0.0,0.0,0.0,0.0,0.0,0.0,0.0,0.0,0.0,0.0,0.0,0.0,0.0,0.0,0.0,0.0,0.0,0.0,0.0,0.0,0.0,0.0,0.0,0.0,0.0,0.0,0.0,0.0,0.0,0.0,0.0,0.0,0.0,0.0,0.0,0.0,0.0,0.0,0.0,0.0,0.0,0.0,0.0,0.0,0.0,0.0,0.0,0.0,0.0,0.0,0.0,0.0,0.0,0.0,0.0,0.0,0.0,0.0,0.0,0.0,0.0,0.0,0.0,0.0,0.0,0.0,0.0,0.0,0.0,0.0,0.0,0.0,0.0,0.0,0.0,0.0,0.0,0.0,0.0,0.0,0.0,0.0,0.0,0.0,0.0,0.0,0.0,0.0,0.0,0.0,0.0,0.0,0.0,0.0,0.0,0.0,0.0,0.0,0.0,0.0,0.0,0.0,0.0,0.0,0.0,0.0,0.0,0.0,0.0,0.0,0.0,0.0,0.0,0.0,0.0,0.0,0.0,0.0,0.0,0.0,0.0,0.0,0.0,0.0,0.0,0.0,0.0,0.0,0.0,0.0,0.0,0.0,0.0,0.0,0.0,0.0,0.0,0.0,0.0,0.0,0.0,0.0,0.0,0.0,0.0,0.0,0.0,0.0,0.0,0.0,0.0,0.0,0.0,0.0,0.0,0.0,0.0,0.0,0.0,0.0,0.0,0.0,0.0,0.0,0.0,0.0,0.0,0.0,0.0,0.0,0.0,0.0,0.0,0.0,0.0,0.0,0.0,0.0,0.0,0.0,0.0,0.0,0.0,0.0,0.0,0.0,0.0,0.0,0.0,0.0,0.0,0.0,0.0,0.0,0.0,0.0,0.0,0.0,0.0,0.0,0.0,0.0,0.0,0.0,0.0,0.0,0.0,0.0,0.0,0.0,0.0,0.0,0.0,0.0,0.0,0.0,0.0,0.0,0.0,0.0,0.0,0.0,0.0,0.0,0.0,0.0,0.0,0.0,0.0,0.0,0.0,0.0,0.0,0.0,0.0,0.0,0.0,0.0,0.0,0.0,0.0,0.0,0.0,0.0,0.0,0.0,0.0,0.0,0.0,0.0,0.0,0.0,0.0,0.0,0.0,0.0,0.0,0.0,0.0,0.0,0.0,0.0,0.0,0.0,0.0,0.0,0.0,0.0,0.0,0.0,0.0,0.0,0.0,0.0,0.0,0.0,0.0,0.0,0.0,0.0,0.0,0.0,0.0,0.0,0.0,0.0,0.0,0.0,0.0,0.0,0.0,0.0,0.0,0.0,0.0,0.0,0.0,0.0,0.0,0.0,0.0,0.0,0.0,0.0,0.0,0.0,0.0,0.0,0.0,0.0,0.0,0.0,0.0,0.0,0.0,0.0,0.0,0.0,0.0,0.0,0.0,0.0,0.0,0.0,0.0,0.0,0.0,0.0,0.0,0.0,0.0,0.0,0.0,0.0,0.0,0.0,0.0,0.0,0.0,0.0,0.0,0.0,0.0,0.0,0.0,0.0,0.0,0.0,0.0,0.0,0.0,0.0,0.0,0.0,0.0,0.0,0.0,0.0,0.0,0.0,0.0,0.0,0.0,0.0,0.0,0.0,0.0,0.0,0.0,0.0,0.0,0.0,0.0,0.0,0.0,0.0,0.0,0.0,0.0,0.0,0.0,0.0,0.0,0.0,0.0,0.0,0.0,0.0,0.0,0.0,0.0,0.0,0.0,0.0,0.0,0.0,0.0,0.0,0.0,0.0,0.0,0.0,0.0,0.0,0.0,0.0,0.0,0.0,0.0,0.0,0.0,0.0,0.0,0.0,0.0,0.0,0.0,0.0,0.0,0.0,0.0,0.0,0.0,0.0,0.0,0.0,0.0,0.0,0.0,0.0,0.0,0.0,0.0,0.0,0.0,0.0,0.0,0.0,0.0,0.0,0.0,0.0,0.0,0.0,0.0,0.0,0.0,0.0,0.0,0.0,0.0,0.0,0.0,0.0,0.0,0.0,0.0,0.0,0.0,0.0,0.0,0.0,0.0,0.0,0.0,0.0,0.0,0.0,0.0,0.0,0.0,0.0,0.0,0.0,0.0,0.0,0.0,0.0,0.0,0.0,0.0,0.0,0.0,0.0,0.0,0.0,0.0,0.0,0.0,0.0,0.0,0.0,0.0,0.0,0.0,0.0,0.0,0.0,0.0,0.0,0.0,0.0,0.0,0.0,0.0,0.0,0.0,0.0,0.0,0.0,0.0,0.0,0.0,0.0,0.0,0.0,0.0,0.0,0.0,0.0,0.0,0.0,0.0,0.0,0.0,0.0,0.0,0.0,0.0,0.0,0.0,0.0,0.0,0.0,0.0,0.0,0.0,0.0,0.0,0.0,0.0,0.0,0.0,0.0,0.0,0.0,0.0,0.0,0.0,0.0,0.0,0.0,0.0,0.0,0.0,0.0,0.0,0.0,0.0,0.0,0.0,0.0,0.0,0.0,0.0,0.0,0.0,0.0,0.0,0.0,0.0,0.0,0.0,0.0,0.0,0.0,0.0,0.0,0.0,0.0,0.0,0.0,0.0,0.0,0.0,0.0,0.0,0.0,0.0,0.0,0.0,0.0,0.0,0.0,0.0,0.0,0.0,0.0,0.0,0.0,0.0,0.0,0.0,0.0,0.0,0.0,0.0,0.0,0.0,0.0,0.0,0.0,0.0,0.0,0.0,0.0,0.0,0.0,0.0,0.0,0.0,0.0,0.0,0.0,0.0,0.0,0.0,0.0,0.0,0.0,0.0,0.0,0.0,0.0,0.0,0.0,0.0,0.0,0.0,0.0,0.0,0.0,0.0,0.0,0.0,0.0,0.0,0.0,0.0,0.0,0.0,0.0,0.0,0.0,0.0,0.0,0.0,0.0,0.0,0.0,0.0,0.0,0.0,0.0,0.0,0.0,0.0,0.0,0.0,0.0,0.0,0.0,0.0,0.0,0.0,0.0,0.0,0.0,0.0,0.0,0.0,0.0,0.0,0.0,0.0,0.0,0.0,0.0,0.0,0.0,0.0,0.0,0.0,0.0,0.0,0.0,0.0,0.0,0.0,0.0,0.0,0.0,0.0,0.0,0.0,0.0,0.0,0.0,0.0,0.0,0.0,0.0,0.0,0.0,0.0,0.0,0.0,0.0,0.0,0.0,0.0,0.0,0.0,0.0,0.0,0.0,0.0,0.0,0.0,0.0,0.0,0.0,0.0,0.0,0.0,0.0,0.0,0.0,0.0,0.0,0.0,0.0,0.0,0.0,0.0,0.0,0.0,0.0,0.0,0.0,0.0,0.0,0.0,0.0,0.0,0.0,0.0,0.0,0.0,0.0,0.0,0.0,0.0,0.0,0.0,0.0,0.0,0.0,0.0,0.0,0.0,0.0,0.0,0.0,0.0,0.0,0.0,0.0,0.0,0.0,0.0,0.0,0.0,0.0,0.0,0.0,0.0,0.0,0.0,0.0,0.0,0.0,0.0,0.0,0.0,0.0,0.0,0.0,0.0,0.0,0.0,0.0,0.0,0.0,0.0,0.0,0.0,0.0,0.0,0.0,0.0,0.0,0.0,0.0,0.0,0.0,0.0,0.0,0.0,0.0,0.0,0.0,0.0,0.0,0.0,0.0,0.0,0.0,0.0,0.0,0.0,0.0,0.0,0.0,0.0,0.0,0.0,0.0,0.0,0.0,0.0,0.0,0.0,0.0,0.0,0.0,0.0,0.0,0.0,0.0,0.0,0.0,0.0,0.0,0.0,0.0,0.0,0.0,0.0,0.0,0.0,0.0,0.0,0.0,0.0,0.0,0.0,0.0,0.0,0.0,0.0,0.0,0.0,0.0,0.0,0.0,0.0,0.0,0.0,0.0,0.0,0.0,0.0,0.0,0.0,0.0,0.0,0.0,0.0,0.0,0.0,0.0,0.0,0.0,0.0,0.0,0.0,0.0,0.0,0.0,0.0,0.0,0.0,0.0,0.0,0.0,0.0,0.0,0.0,0.0,0.0,0.0,0.0,0.0,0.0,0.0,0.0,0.0,0.0,0.0,0.0,0.0,0.0,0.0,0.0,0.0,0.0,0.0,0.0,0.0,0.0,0.0,0.0,0.0,0.0,0.0,0.0,0.0,0.0,0.0,0.0,0.0,0.0,0.0,0.0,0.0,0.0,0.0,0.0,0.0,0.0,0.0,0.0,0.0,0.0,0.0,0.0,0.0,0.0,0.0,0.0,0.0,0.0,0.0,0.0,0.0,0.0,0.0,0.0,0.0,0.0,0.0,0.0,0.0,0.0,0.0,0.0,0.0,0.0,0.0,0.0,0.0,0.0,0.0,0.0,0.0,0.0,0.0,0.0,0.0,0.0,0.0,0.0,0.0,0.0,0.0,0.0,0.0,0.0,0.0,0.0,0.0,0.0,0.0,0.0,0.0,0.0,0.0,0.0,0.0,0.0,0.0,0.0,0.0,0.0,0.0,0.0,0.0,0.0,0.0,0.0,0.0,0.0,0.0,0.0,0.0,0.0,0.0,0.0,0.0,0.0,0.0,0.0,0.0,0.0,0.0,0.0,0.0,0.0,0.0,0.0,0.0,0.0,0.0,0.0,0.0,0.0,0.0,0.0,0.0,0.0,0.0,0.0,0.0,0.0,0.0,0.0,0.0,0.0,0.0,0.0,0.0,0.0,0.0,0.0,0.0,0.0,0.0,0.0,0.0,0.0,0.0,0.0,0.0,0.0,0.0,0.0,0.0,0.0,0.0,0.0,0.0,0.0,0.0,0.0,0.0,0.0,0.0,0.0,0.0,0.0,0.0,0.0,0.0,0.0,0.0,0.0,0.0,0.0,0.0,0.0,0.0,0.0,0.0,0.0,0.0,0.0,0.0,0.0,0.0,0.0,0.0,0.0,0.0,0.0,0.0,0.0,0.0,0.0,-0.9766,0.0,0.0,0.0,0.0,0.0,0.0,0.0,0.0,0.0,0.0,0.0,0.0,0.0,0.0,0.0,0.0,0.0,0.0,0.0,0.0,0.0,0.0,0.0,0.0,0.0,0.0,0.0,0.0,0.0,0.0,0.0,0.0,0.0,0.0,0.0,0.0,0.0,0.0,0.0,0.0,0.0,0.0,0.0,0.0,0.0,0.0,0.0,0.0,0.0,0.0,0.0,0.0,0.0,0.0,0.0,0.0,0.0,0.0,0.0,0.0,0.0,0.0,0.0,0.0,0.0,0.0,0.0,0.0,0.0,0.0,0.0,0.0,0.0,0.0,0.0,0.0,0.0,0.0,0.0,0.0,0.0,0.0,0.0,0.0,0.0,0.0,0.0,0.0,0.0,0.0,0.0,0.0,0.0,0.0,0.0,0.0,0.0,0.0,0.0,0.0,0.0,0.0,0.0,0.0,0.0,0.0,0.0,0.0,0.0,0.0,0.0,0.0,0.0,0.0,0.0,0.0,-1.0361,0.0,0.0,0.0,0.0,0.0,0.0,0.0,0.0,0.0,0.0,0.0,0.0,0.0,0.0,0.0,0.0,0.0,0.0,0.0,0.0,0.0,0.0,0.0,0.0,0.0,0.0,0.0,0.0,0.0,0.0,0.0,0.0,0.0,0.0,0.0,0.0,0.0,0.0,0.0,0.0,0.0,0.0,0.0,0.0,0.0,0.0,0.0,0.0,0.0,0.0,0.0,0.0,0.0,0.0,0.0,0.0,0.0,0.0,0.0,0.0,0.0,0.0,0.0,0.0,0.0,0.0,0.0,0.0,0.0,0.0,0.0,0.0,0.0,0.0,0.0,0.0,0.0,0.0,0.0,0.0,0.0,0.0,0.0,0.0,0.0,0.0,0.0,0.0,0.0,0.0,0.0,0.0,0.0,0.0,0.0,0.0,0.0,0.0,0.0,0.0,0.0,0.0,0.0,0.0,0.0,0.0,0.0,0.0,-1.2285,-1.2585,-1.3287,-1.334,-1.3367,-1.3313,-1.2334,-1.1577,-1.0988,0.0,0.0,0.0,0.0,0.0,0.0,0.0,0.0,0.0,0.0,0.0,0.0,0.0,0.0,0.0,0.0,0.0,0.0,0.0,0.0,0.0,0.0,0.0,0.0,0.0,0.0,0.0,0.0,0.0,0.0,0.0,0.0,0.0,0.0,0.0,0.0,0.0,0.0,0.0,-1.7139,-1.7837,-1.8315,-1.851,-1.629,0.0,0.0,0.0,0.0,0.0,0.0,0.0,0.0,0.0,0.0,0.0,0.0,0.0,0.0,0.0,0.0,0.0,0.0,0.0,0.0,0.0,0.0,0.0,0.0,0.0,0.0,0.0,0.0,0.0,0.0,0.0,0.0,0.0,0.0,0.0,0.0,0.0,0.0,0.0,0.0,0.0,0.0,0.0,-0.9158,-0.9158,0.0,0.0,0.0,0.0,0.0,0.0,0.0,0.0,0.0,0.0,0.0,0.0,0.0,-1.1877,-1.2852,-1.2953,-1.3033,-1.31,-1.3808,-1.3913,-1.3553,-1.3854,-1.3968,-1.3975,-1.4068,0.0,-1.2455,-1.1986,0.0,0.0,0.0,0.0,0.0,0.0,0.0,0.0,0.0,0.0,0.0,0.0,0.0,0.0,0.0,0.0,0.0,0.0,0.0,0.0,0.0,0.0,0.0,0.0,0.0,0.0,0.0,0.0,0.0,0.0,0.0,0.0,0.0,0.0,0.0,0.0,-1.6318,-1.765,-1.9216,-1.9551,-2.0215,-2.1015,-1.8856,-1.728,-1.6181,-1.5496,0.0,0.0,0.0,0.0,0.0,0.0,0.0,0.0,0.0,0.0,0.0,0.0,0.0,0.0,0.0,0.0,0.0,0.0,0.0,0.0,0.0,0.0,0.0,0.0,0.0,0.0,0.0,0.0,0.0,0.0,0.0,0.0,0.0,0.0,0.0,0.0,0.0,0.0,0.0,-0.9311,-0.9577,-0.9251,-0.9679,-0.98,0.0,0.0,0.0,0.0,0.0,0.0,0.0,0.0,0.0,-1.2994,-1.3267,-1.3641,-1.4188,-1.493,-1.5177,-1.4937,-1.5484,-1.5531,-1.5117,-1.5084,-1.507,-1.5084,-1.5378,-1.5023,-1.4218,-1.3467,-1.2857,-1.2362,0.0,0.0,0.0,0.0,-1.2098,-1.2245,0.0,0.0,0.0,0.0,0.0,0.0,0.0,0.0,0.0,0.0,0.0,0.0,0.0,0.0,0.0,-1.541,0.0,0.0,0.0,0.0,0.0,0.0,0.0,0.0,0.0,0.0,0.0,0.0,-1.7822,-1.9216,-2.1104,-2.1172,-2.1855,-2.2945,-2.1575,-1.9579,-1.7158,-1.6067,-1.4721,0.0,0.0,0.0,0.0,0.0,0.0,0.0,0.0,0.0,0.0,0.0,0.0,0.0,0.0,0.0,0.0,0.0,0.0,0.0,0.0,0.0,0.0,0.0,0.0,0.0,0.0,0.0,0.0,0.0,0.0,0.0,0.0,0.0,0.0,0.0,0.0,0.0,0.0,-0.974,-1.0127,-0.9504,-1.0374,-1.078,0.0,0.0,0.0,0.0,0.0,0.0,-1.2719,-1.3079,-1.3507,-1.4139,-1.4796,-1.519,-1.5377,-1.6246,-1.6627,-1.646,-1.668,-1.66,-1.6266,-1.6119,-1.5972,-1.5798,-1.6166,-1.6086,-1.5658,-1.4703,-1.3909,-1.3219,-1.2991,-1.2819,-1.2792,-1.31,-1.316,-1.3246,0.0,0.0,0.0,0.0,0.0,0.0,0.0,0.0,0.0,0.0,0.0,0.0,0.0,0.0,-1.6746,-1.7217,-1.7314,-1.7148,0.0,0.0,0.0,0.0,0.0,0.0,0.0,0.0,0.0,-1.7949,-1.9637,-2.1094,-2.2422,-2.2779,-2.3432,-2.4316,-2.4205,-2.3019,-2.0827,-1.7596,-1.5709,-1.4736,0.0,0.0,0.0,0.0,0.0,0.0,0.0,0.0,0.0,0.0,0.0,0.0,0.0,0.0,0.0,0.0,0.0,0.0,0.0,0.0,0.0,0.0,0.0,0.0,0.0,0.0,0.0,0.0,0.0,0.0,0.0,0.0,0.0,0.0,0.0,0.0,0.0,0.0,0.0,-1.014,-1.1343,0.0,0.0,0.0,0.0,-1.2211,-1.2766,-1.336,-1.3968,-1.4275,-1.4823,-1.5644,-1.6112,-1.6333,-1.6339,-1.658,-1.6794,-1.6961,-1.6974,-1.6734,-1.6328,-1.6547,-1.6359,-1.5804,-1.6239,-1.6493,-1.6547,-1.5444,-1.473,-1.4349,-1.3514,-1.352,-1.3935,-1.3407,-1.3554,-1.3988,0.0,0.0,0.0,0.0,0.0,0.0,0.0,0.0,0.0,0.0,0.0,0.0,0.0,-1.6768,-1.7949,-1.8926,-1.9268,-1.9167,-1.8418,0.0,0.0,0.0,0.0,0.0,0.0,0.0,-1.8115,-2.005,-2.0977,-2.207,-2.334,-2.3486,-2.417,-2.5216,-2.4314,-2.3201,-2.1812,-1.9479,-1.7493,-1.5799,-1.3803,-1.2394,0.0,0.0,0.0,0.0,0.0,0.0,0.0,0.0,0.0,0.0,0.0,0.0,0.0,0.0,0.0,0.0,0.0,0.0,0.0,0.0,0.0,0.0,0.0,0.0,0.0,0.0,0.0,0.0,0.0,0.0,0.0,0.0,0.0,0.0,0.0,0.0,0.0,-1.1866,-1.2946,0.0,-1.2727,-1.294,-1.3247,-1.3434,-1.4001,-1.4676,-1.5451,-1.5591,-1.6139,-1.717,-1.7194,-1.7261,-1.7409,-1.7483,-1.7502,-1.7375,-1.7375,-1.7188,-1.6884,-1.6747,-1.652,-1.6219,-1.6486,-1.664,-1.67,-1.6667,-1.6139,-1.5331,-1.4972,-1.4796,-1.4649,-1.4623,-1.475,-1.4943,0.0,0.0,0.0,0.0,0.0,0.0,0.0,0.0,0.0,0.0,0.0,-1.5089,-1.6594,-1.8008,-1.9385,-2.0674,-2.0791,-2.0488,-1.9803,0.0,0.0,0.0,0.0,0.0,0.0,-1.7939,-1.9443,-2.1455,-2.2178,-2.3037,-2.4004,-2.4307,-2.4687,-2.5131,-2.4395,-2.3459,-2.2259,-2.0653,-1.8535,-1.6126,-1.4481,-1.3327,-1.2536,0.0,0.0,0.0,0.0,0.0,0.0,0.0,0.0,0.0,0.0,0.0,0.0,0.0,0.0,0.0,0.0,0.0,0.0,0.0,0.0,0.0,0.0,0.0,0.0,0.0,0.0,0.0,0.0,0.0,0.0,0.0,0.0,0.0,0.0,0.0,-1.3313,-1.3073,-1.4269,-1.4843,-1.4155,-1.4406,-1.4763,-1.4957,-1.5391,-1.6013,-1.6673,-1.6764,-1.7074,-1.7862,-1.7822,-1.7889,-1.8096,-1.7902,-1.7789,-1.7582,-1.7582,-1.7481,-1.7199,-1.7048,-1.6714,-1.6246,-1.6774,-1.7001,-1.7027,-1.7422,-1.7121,-1.638,-1.5985,-1.5591,-1.5277,-1.5471,-1.5538,-1.5571,0.0,0.0,0.0,0.0,0.0,0.0,0.0,0.0,0.0,0.0,-1.4629,-1.6094,-1.7842,-1.9561,-2.1153,-2.2422,-2.1668,-2.1016,-2.0635,-1.8135,0.0,0.0,0.0,0.0,-1.7523,-1.9588,-2.1094,-2.1963,-2.3203,-2.4033,-2.4473,-2.5284,-2.5149,-2.4221,-2.4711,-2.4,-2.2478,-2.1194,-1.8785,-1.5851,-1.5271,-1.4707,-1.3968,0.0,0.0,0.0,0.0,0.0,0.0,0.0,0.0,0.0,0.0,0.0,0.0,0.0,0.0,0.0,0.0,0.0,0.0,0.0,0.0,0.0,0.0,0.0,0.0,0.0,0.0,0.0,0.0,0.0,0.0,0.0,0.0,0.0,-1.1515,-1.328,-1.4326,-1.3766,-1.5271,-1.604,-1.5176,-1.6079,-1.6747,-1.6747,-1.6934,-1.7215,-1.7602,-1.7609,-1.7609,-1.7635,-1.8003,-1.8203,-1.8223,-1.7816,-1.7609,-1.7595,-1.7589,-1.7435,-1.7226,-1.7507,-1.6961,-1.5898,-1.7088,-1.7582,-1.7582,-1.7582,-1.7582,-1.7468,-1.6326,-1.5811,-1.5784,-1.5784,-1.5784,-1.5784,0.0,0.0,0.0,0.0,0.0,0.0,0.0,0.0,0.0,0.0,-1.4921,-1.6543,-1.8237,-1.9972,-2.1572,-2.2808,-2.1278,-2.0361,-2.0586,0.0,0.0,0.0,0.0,0.0,-2.0596,-2.1221,-2.2246,-2.3721,-2.4072,-2.4629,-2.5333,-2.5577,-2.604,-2.6716,-2.6831,-2.5738,-2.3761,-2.3416,-2.1481,-1.8564,-1.6894,-1.5752,-1.4923,0.0,0.0,0.0,0.0,0.0,0.0,0.0,0.0,0.0,0.0,0.0,0.0,0.0,0.0,0.0,0.0,0.0,0.0,0.0,0.0,0.0,0.0,0.0,0.0,0.0,0.0,0.0,0.0,0.0,0.0,0.0,0.0,-1.4175,-1.3454,-1.4763,-1.5812,-1.5858,-1.6817,-1.7375,-1.6907,-1.7355,-1.7616,-1.7655,-1.7916,-1.8223,-1.8537,-1.8223,-1.829,-1.8914,-1.8437,-1.837,-1.8718,-1.8404,-1.813,-1.7916,-1.7689,-1.7542,-1.7468,-1.7549,-1.7408,-1.7121,-1.7442,-1.7582,-1.7582,-1.7582,-1.7582,-1.7549,-1.7228,-1.658,-1.5784,-1.5784,-1.5784,-1.5784,0.0,0.0,0.0,0.0,0.0,0.0,0.0,0.0,0.0,0.0,-1.5273,-1.6924,-1.8432,-2.0019,-2.125,-2.1992,-2.0586,-1.9531,-1.9284,0.0,0.0,0.0,0.0,-1.9744,-2.1836,-2.2412,-2.334,-2.4687,-2.4873,-2.5274,-2.6016,-2.6377,-2.6724,-2.7062,-2.7233,-2.6316,-2.4655,-2.4655,-2.3216,-2.0906,-1.9553,-1.8157,-1.674,-1.5478,-1.4863,-1.4589,-1.3956,-1.3821,-1.39,-1.3507,0.0,0.0,0.0,0.0,0.0,0.0,0.0,0.0,0.0,0.0,0.0,0.0,0.0,0.0,0.0,0.0,0.0,0.0,0.0,0.0,0.0,0.0,0.0,0.0,-1.493,-1.5758,-1.5745,-1.648,-1.7081,-1.7248,-1.7842,-1.8163,-1.7983,-1.8237,-1.8355,-1.8397,-1.8684,-1.8931,-1.9098,-1.8838,-1.8824,-1.9112,-1.8684,-1.8544,-1.8738,-1.8577,-1.8404,-1.823,-1.805,-1.7923,-1.7836,-1.7662,-1.7582,0.0,-1.7582,-1.7582,-1.7582,-1.7582,-1.7582,0.0,0.0,0.0,0.0,0.0,-1.5784,-1.5784,0.0,0.0,0.0,0.0,0.0,0.0,0.0,0.0,0.0,0.0,0.0,-1.7038,-1.8315,-1.96,-2.0419,-2.0517,-1.9619,-1.8629,0.0,0.0,0.0,-1.833,-1.9834,-2.1123,-2.2148,-2.3281,-2.4307,-2.5262,-2.5615,-2.6055,-2.6553,-2.7353,-2.7304,-2.6446,-2.6837,-2.642,-2.5427,-2.5427,-2.4525,-2.3027,-2.2487,-2.096,-1.8751,-1.7134,-1.664,-1.666,-1.5638,-1.5084,-1.487,-1.4543,0.0,0.0,0.0,0.0,0.0,0.0,0.0,0.0,0.0,0.0,0.0,0.0,0.0,0.0,0.0,0.0,0.0,0.0,0.0,0.0,0.0,0.0,0.0,0.0,-1.6139,-1.6914,-1.7982,-1.8142,-1.8115,-1.8049,-1.839,-1.8577,-1.8544,-1.8804,-1.8978,-1.8978,-1.9219,-1.9424,-1.9424,0.0,0.0,0.0,0.0,-1.8764,-1.8591,-1.8557,-1.8544,-1.8537,-1.8504,-1.8397,-1.8223,-1.7849,-1.7649,-1.7582,-1.7582,-1.7582,-1.7582,-1.7582,-1.7582,-1.7582,-1.7582,-1.686,-1.5784,-1.5818,-1.5811,-1.5784,0.0,0.0,0.0,0.0,0.0,0.0,0.0,0.0,0.0,-1.3997,-1.5001,-1.6172,-1.748,-1.8457,-1.9251,-1.998,-1.8643,-1.7646,0.0,0.0,-1.8262,-2.0479,-2.0888,-2.1992,-2.3887,-2.417,-2.4902,-2.6133,-2.6221,-2.666,-2.7483,-2.7939,-2.8228,-2.8362,-2.8851,-2.8398,-2.7307,-2.7307,-2.6533,-2.5202,-2.3603,-2.1304,-1.8865,-1.8283,-1.7789,-1.7355,-1.6945,-1.7001,-1.723,-1.674,-1.6359,-1.6005,-1.5351,0.0,0.0,0.0,0.0,0.0,0.0,0.0,0.0,0.0,0.0,0.0,0.0,0.0,0.0,0.0,0.0,0.0,0.0,0.0,0.0,-1.6921,-1.7669,-1.831,-1.9011,-1.9112,-1.8938,-1.8464,-1.8871,-1.9105,-1.8865,-1.9112,-1.9279,-1.9279,-1.9332,-1.9424,-1.9424,-1.9424,-1.939,-1.9316,-1.9252,-1.9296,-1.9256,-1.8958,-1.8838,-1.8838,0.0,0.0,-1.843,-1.835,-1.805,-1.7582,-1.7582,-1.7582,-1.7582,-1.7582,-1.7582,-1.7582,-1.7582,-1.686,-1.5811,-1.6099,-1.6039,-1.5784,0.0,0.0,0.0,0.0,0.0,0.0,0.0,0.0,0.0,0.0,-1.4669,-1.5508,-1.6633,-1.71,-1.7432,-1.7637,-1.6689,0.0,0.0,-1.8184,-1.9619,-2.1736,-2.2695,-2.3652,-2.4717,-2.4961,-2.5508,-2.6387,-2.6602,-2.7139,-2.7988,-2.8408,-2.8945,-2.957,-2.9785,-2.9718,-2.9289,-2.8432,-2.7754,-2.7056,-2.525,-2.3119,-2.0955,-2.0422,-1.9611,-1.8762,-1.9206,-1.8988,-1.8417,-1.7969,-1.7722,-1.7468,-1.6727,-1.5785,-1.4723,0.0,0.0,0.0,0.0,0.0,0.0,0.0,0.0,0.0,0.0,0.0,0.0,0.0,0.0,-1.4663,0.0,0.0,-1.7281,-1.831,-1.8851,-1.9299,-1.974,-1.98,-1.9579,-1.8998,-1.9319,-1.9466,-1.9172,-1.9412,-1.9519,-1.9437,-1.9424,-1.9424,-1.9424,-1.9424,-1.9424,-1.9424,-1.9424,-1.9459,-1.9653,-1.9319,-1.9219,-1.9359,-1.9072,-1.8931,-1.8931,-1.8931,-1.8764,-1.8477,-1.8477,-1.8136,-1.7582,-1.7582,-1.7582,-1.7582,-1.7582,-1.7101,-1.6386,-1.6139,-1.5959,-1.5784,0.0,0.0,0.0,0.0,0.0,0.0,0.0,0.0,0.0,0.0,-1.4316,-1.4834,-1.5635,-1.5713,-1.5547,0.0,0.0,0.0,0.0,-1.9141,-2.085,-2.2676,-2.416,-2.5028,-2.5116,-2.543,-2.5898,-2.6514,-2.6846,-2.7451,-2.8301,-2.8809,-2.9414,-3.0078,-3.0254,-3.0537,-3.083,-2.9462,-2.8911,-2.8724,-2.7134,-2.5468,-2.3896,-2.2905,-2.1394,-1.9917,-2.073,-1.9998,-1.8624,-1.839,-1.8317,-1.8196,-1.7588,-1.7012,-1.6253,-1.4843,-1.4095,0.0,0.0,0.0,0.0,0.0,0.0,0.0,0.0,0.0,-1.4259,-1.5117,-1.5945,-1.6734,-1.7501,-1.817,-1.8871,-1.9578,-1.9766,-1.9987,-2.0281,-2.0267,-2.0047,-1.9539,-1.9673,-1.9686,-1.9457,-1.9579,-1.9619,-1.9444,-1.9477,-1.9511,-1.9511,-1.9506,-1.9519,-1.9479,-1.9479,-1.9626,-1.988,-1.9706,-1.9673,-1.9826,-1.9593,-1.9439,-1.9424,-1.9424,-1.9424,-1.9424,-1.9424,-1.8747,-1.7582,-1.7582,-1.7582,-1.7582,-1.7582,-1.7388,-1.7021,-1.6273,-1.5878,-1.5784,0.0,0.0,0.0,0.0,0.0,0.0,0.0,0.0,0.0,0.0,0.0,0.0,0.0,0.0,0.0,0.0,0.0,0.0,-1.8354,-1.9746,-2.1476,-2.3555,-2.4189,-2.4668,-2.5106,-2.5117,-2.5732,-2.6943,-2.6992,-2.7451,-2.831,-2.9121,-2.9541,-2.9678,-3.0459,-3.084,-3.0889,-3.0704,-3.0635,-3.046,-2.8792,-2.776,-2.7041,-2.4993,-2.2377,-1.9693,-1.9097,-1.8373,-1.7729,-1.7695,-1.7682,-1.7716,-1.7889,-1.7716,-1.7201,-1.5985,0.0,-1.3895,-1.324,-1.2945,-1.3032,-1.4015,-1.3913,-1.4199,0.0,0.0,-1.6052,-1.7709,-1.8537,-1.9005,-1.9156,-1.9256,-1.9546,-2.0394,-2.0334,-2.0287,-2.0581,-2.0401,-2.0087,-1.9847,-1.9833,-1.9686,-1.9457,-1.9457,-1.9406,-1.943,-1.9606,-1.9753,-1.9753,-1.9993,-2.0054,-1.982,-1.9814,-1.984,-1.988,-2.0247,-2.0234,-1.986,-1.9834,-1.97,-1.9424,-1.9424,-1.9424,-1.9424,-1.9424,-1.8747,-1.7582,-1.7582,-1.7582,-1.7582,-1.7582,-1.7555,-1.7442,-1.6834,-1.6279,-1.5784,0.0,0.0,0.0,0.0,0.0,0.0,0.0,0.0,0.0,0.0,0.0,0.0,0.0,0.0,0.0,0.0,0.0,0.0,-1.81,-1.9744,-2.1574,-2.3701,-2.4199,-2.4619,-2.5106,-2.5116,-2.5586,-2.665,-2.6894,-2.7451,-2.8301,-2.8906,-2.9453,-2.9951,-3.0322,-3.0635,-3.083,-2.9844,-2.9868,-3.0363,-2.868,-2.7791,-2.7208,-2.5614,-2.3302,-2.0728,-1.9478,-1.8084,0.0,0.0,-1.6934,-1.7154,-1.7629,-1.7335,-1.6693,-1.6025,-1.5244,0.0,-1.4502,-1.4509,0.0,0.0,-1.5698,-1.6397,-1.7375,-1.7609,-1.7889,-1.8811,-1.9466,-1.9927,-2.01,-2.0267,-2.0501,0.0,-2.0828,-2.0782,-2.0909,-2.0822,-2.0541,-1.9947,-2.0007,-1.996,-1.972,-1.97,-1.9746,-1.986,-1.9673,-1.9746,-2.0201,-2.0227,-2.0293,-2.0615,-2.0621,-2.0621,-2.0621,-2.0782,-2.0695,-2.0361,-2.002,-1.9686,-1.9424,-1.9424,-1.9424,-1.9424,-1.9424,-1.9085,-1.8564,-1.7869,-1.7582,-1.7582,-1.7582,-1.7582,-1.7468,-1.654,-1.6039,-1.5784,0.0,0.0,0.0,0.0,0.0,0.0,0.0,0.0,0.0,0.0,0.0,0.0,0.0,0.0,0.0,0.0,0.0,0.0,0.0,-1.9226,-2.1163,-2.3174,-2.4004,-2.4619,-2.5106,-2.536,-2.5801,-2.6562,-2.6982,-2.7568,-2.8301,-2.8721,-2.9248,-2.9853,-2.9971,-3.0215,-3.046,-2.9243,-2.9172,-2.9741,-2.8688,-2.7823,-2.6921,-2.5484,-2.3485,-2.1172,-1.9442,-1.7588,0.0,0.0,-1.5625,-1.5952,-1.646,-1.6342,-1.5885,-1.5745,-1.5357,-1.5055,-1.5217,0.0,0.0,-1.6233,-1.7256,-1.8215,-1.821,-1.8824,-1.9492,-1.9786,-2.0114,-2.0421,-2.0635,-2.0782,0.0,-2.0975,-2.0989,-2.1022,-2.1096,-2.1109,-2.0835,-2.0047,-2.0007,-1.994,-1.98,-1.9927,-1.9953,-1.9993,-1.9806,-1.9887,-2.0341,-2.0434,-2.0668,-2.1096,-2.1109,-2.1109,-2.1109,-2.1109,-2.1002,-2.0795,-2.0368,-1.988,-1.9424,-1.9424,-1.9424,-1.9424,-1.9424,-1.9424,-1.935,-1.8343,-1.7809,-1.7582,-1.7582,-1.7582,-1.7482,-1.6627,-1.6106,-1.5784,0.0,0.0,0.0,0.0,0.0,0.0,0.0,0.0,0.0,0.0,0.0,0.0,0.0,0.0,0.0,0.0,0.0,0.0,0.0,-1.8135,-2.0107,-2.1865,-2.3535,-2.4619,-2.5106,-2.5908,-2.6562,-2.6992,-2.7432,-2.7871,-2.8301,-2.8721,-2.8926,-2.8975,-2.9404,-2.9655,-2.9665,-2.9609,-2.93,-2.8994,-2.9358,-2.853,-2.6788,-2.4564,-2.2481,-2.0412,-1.8116,0.0,0.0,0.0,-1.3453,-1.3746,-1.4095,-1.4606,0.0,-1.5331,-1.5197,-1.5015,0.0,0.0,-1.6106,-1.7241,-1.8217,-1.9045,-1.9606,-2.0194,-2.0702,-2.0995,-2.0848,-2.0668,-2.0675,-2.0448,-2.0354,-2.0641,-2.0688,-2.0788,-2.1069,-2.1109,-2.0889,-2.0233,-1.9733,-1.9392,0.0,-1.9893,-1.9993,-1.9432,-2.0074,-2.0334,-1.992,-2.0675,-2.1089,-2.1109,-2.1109,-2.1109,-2.1109,-2.1109,-2.1109,-2.1096,-2.1076,-2.0468,-1.9424,-1.9424,-1.9424,-1.9424,-1.9424,-1.9424,-1.9339,-1.9018,-1.837,-1.7582,-1.7582,-1.7582,-1.7582,-1.7542,-1.6807,-1.5784,0.0,0.0,0.0,0.0,0.0,0.0,0.0,0.0,0.0,0.0,0.0,0.0,0.0,0.0,0.0,0.0,0.0,0.0,0.0,-1.7129,-1.8535,-1.964,-2.166,-2.2812,-2.2959,-2.4082,-2.501,-2.5723,-2.5918,-2.6162,-2.6602,-2.6688,-2.6963,-2.7256,-2.7685,-2.8037,-2.8364,-2.8364,-2.8057,-2.7617,-2.7197,-2.668,-2.5907,-2.4029,-2.2353,-2.0699,0.0,0.0,0.0,0.0,0.0,-1.2552,-1.3079,-1.3239,-1.3333,-1.4028,-1.4583,-1.5223,0.0,0.0,-1.7522,-1.8517,-1.9432,-2.0187,-2.0581,-2.0975,-2.1229,-2.1129,-2.0568,-2.0194,-2.0514,-1.9913,-1.9633,-2.0441,-2.0468,-2.0555,-2.1042,-2.1109,-2.0748,-1.9773,-1.9145,0.0,0.0,0.0,0.0,-1.9746,-2.0474,-2.0768,-2.0448,-2.0862,-2.1109,-2.1109,-2.1109,-2.1109,-2.1109,-2.1109,-2.1109,-2.1109,-2.0848,-2.0247,-1.9424,-1.9424,-1.9424,-1.9424,-1.9424,-1.9424,-1.9397,-1.8978,-1.8577,-1.8183,-1.8183,-1.7936,-1.7582,-1.7582,-1.7328,-1.6987,0.0,0.0,0.0,0.0,0.0,0.0,0.0,0.0,0.0,0.0,0.0,0.0,0.0,0.0,0.0,0.0,0.0,0.0,0.0,0.0,-1.6836,-1.7686,-1.9502,-2.0566,-2.0723,-2.1826,-2.2676,-2.3223,-2.3545,-2.3926,-2.4365,-2.4475,-2.4814,-2.5244,-2.5518,-2.5879,-2.6319,-2.6113,-2.5801,-2.5342,-2.4639,-2.3984,-2.3281,-2.1804,-2.0566,0.0,0.0,0.0,0.0,0.0,0.0,-1.2263,-1.2623,-1.2842,-1.3033,-1.3467,-1.4496,-1.5752,0.0,-1.7809,-1.8604,-1.9713,-2.0494,-2.1099,-2.1223,-2.1336,-2.1249,-2.0748,-1.994,-1.9392,-1.9541,-1.8724,-1.8377,-1.9599,-1.9512,-1.9639,-2.0655,-2.0975,-2.0828,-2.008,-1.9292,0.0,0.0,0.0,0.0,-1.9733,-2.0588,-2.0969,-2.0641,-2.0929,-2.1109,-2.1109,-2.1109,-2.1109,-2.1109,-2.1109,-2.1056,-2.0949,-2.0588,-2.012,-1.9566,-1.9426,-1.9424,-1.9424,-1.9424,-1.9424,-1.941,-1.9098,-1.8831,-1.8591,-1.8517,-1.8377,-1.8196,-1.7983,-1.7949,-1.7969,0.0,0.0,0.0,0.0,0.0,0.0,0.0,0.0,0.0,0.0,0.0,0.0,0.0,0.0,0.0,0.0,0.0,0.0,0.0,0.0,0.0,-1.5928,-1.7227,-1.8091,-1.8461,-1.9329,-1.9814,-1.9814,-2.0625,-2.1239,-2.1699,-2.209,-2.25,-2.2944,-2.2963,-2.3198,-2.3496,-2.3042,-2.2633,-2.2275,-2.1836,-2.0674,-1.9131,-1.8271,0.0,0.0,0.0,0.0,0.0,0.0,0.0,0.0,0.0,0.0,-1.4068,-1.382,-1.503,-1.663,-1.7475,-1.837,-1.9392,-2.0788,-2.1356,-2.1635,-2.1601,-2.1289,-2.0815,-1.9933,-1.9025,-1.8283,0.0,0.0,-1.6764,-1.8203,-1.7996,-1.8263,-2.0007,-2.0748,-2.1109,0.0,0.0,0.0,0.0,0.0,0.0,-1.9452,0.0,-2.0942,-2.0555,-2.0895,-2.1109,-2.1109,-2.1109,-2.1109,-2.1109,-2.1109,-2.0962,-2.0675,-2.0374,-2.012,-1.984,-1.9533,-1.9424,-1.9424,-1.9424,-1.9424,-1.9424,-1.9403,-1.9125,-1.8771,-1.8584,-1.8844,-1.933,-1.8711,-1.8624,-1.8671,0.0,0.0,0.0,0.0,0.0,0.0,0.0,0.0,0.0,0.0,0.0,0.0,0.0,0.0,0.0,0.0,0.0,0.0,0.0,0.0,0.0,0.0,0.0,0.0,-1.6728,-1.7891,-1.8496,-1.8496,-1.8721,-1.8887,-1.9004,-1.9111,-1.9219,-1.9336,-1.9648,-1.9816,-1.9904,-1.9796,-1.9689,-1.9524,0.0,-1.8457,-1.8242,0.0,0.0,0.0,0.0,0.0,0.0,0.0,0.0,0.0,0.0,0.0,-1.4609,-1.5625,0.0,-1.8163,-1.9259,-2.0207,-2.0969,-2.1413,-2.1663,-2.1764,-2.1323,-2.0822,-2.0207,-1.9325,-1.7916,-1.666,0.0,0.0,0.0,-1.7575,-1.8243,0.0,-2.0374,-2.0875,0.0,0.0,0.0,-2.0368,-2.0448,-2.0521,0.0,0.0,-2.0695,-2.0969,-2.0655,-2.0942,-2.1109,-2.1109,-2.1109,-2.1109,-2.1109,-2.1109,-2.0962,-2.0675,-2.0374,-1.998,-1.9512,-1.947,-1.9424,-1.9424,-1.9424,-1.9424,-1.9403,-1.9052,-1.8911,-1.8871,-1.8758,-1.8804,-1.8911,-1.8764,-1.8738,-1.8751,0.0,0.0,0.0,0.0,0.0,0.0,0.0,0.0,0.0,0.0,0.0,0.0,0.0,0.0,0.0,0.0,0.0,0.0,0.0,0.0,0.0,0.0,0.0,0.0,-1.4705,-1.541,-1.5762,-1.5762,0.0,0.0,0.0,-1.6504,-1.6699,-1.6875,-1.7087,-1.7291,-1.749,-1.7272,0.0,0.0,0.0,0.0,0.0,0.0,0.0,0.0,0.0,0.0,0.0,0.0,0.0,-1.6268,-1.6346,-1.6696,-1.7216,-1.7563,0.0,-1.9452,-2.0368,-2.1169,-2.1809,-2.1809,-2.177,-2.1577,-2.0728,-2.008,-1.9225,-1.7689,-1.648,0.0,0.0,0.0,0.0,0.0,0.0,0.0,-1.988,-2.0347,-2.0675,0.0,-2.0962,0.0,-2.0788,-2.0835,-2.0795,0.0,-2.0922,-2.0982,-2.0688,-2.0949,-2.1109,-2.1109,-2.1109,-2.1109,-2.1109,-2.1109,-2.1029,-2.0862,-2.0695,-2.0247,-1.9559,-1.9559,-1.9486,-1.9424,0.0,-1.9424,-1.941,-1.9189,-1.9072,-1.9112,-1.9058,-1.9038,-1.9038,-1.9038,-1.9038,-1.9018,0.0,0.0,0.0,0.0,0.0,0.0,0.0,0.0,0.0,0.0,0.0,0.0,0.0,0.0,0.0,0.0,0.0,0.0,0.0,0.0,0.0,0.0,0.0,-1.2905,-1.2905,-1.2905,-1.2905,-1.2905,0.0,0.0,0.0,0.0,0.0,0.0,0.0,0.0,0.0,0.0,0.0,0.0,0.0,0.0,0.0,0.0,0.0,0.0,0.0,0.0,0.0,0.0,-1.9573,-1.9012,-1.8435,-1.9368,-2.045,-1.9468,-1.9753,-2.0535,-2.1122,-2.1683,-2.2084,-2.2004,-2.171,-2.1129,-1.9953,-1.9105,-1.7943,-1.5732,0.0,0.0,-1.3573,0.0,-1.4026,-1.5491,0.0,-1.7054,-1.9132,-1.9639,-2.0127,-2.1002,-2.1109,-2.1109,-2.1109,-2.1149,-2.1149,-2.1109,-2.1182,-2.1082,-2.0755,-2.0969,-2.1109,-2.1109,-2.1109,-2.1109,-2.1109,-2.1109,-2.1109,-2.1109,-2.1069,-2.0655,-1.9913,-1.984,-1.9673,-1.9439,-1.945,0.0,-1.9424,-1.9424,-1.9424,-1.9424,-1.9424,-1.9424,-1.9424,-1.9424,-1.9424,-1.939,0.0,0.0,0.0,0.0,0.0,0.0,0.0,0.0,0.0,0.0,0.0,0.0,0.0,0.0,0.0,0.0,0.0,0.0,0.0,0.0,0.0,0.0,0.0,-1.2905,-1.2905,-1.2905,-1.2905,0.0,0.0,0.0,0.0,0.0,0.0,0.0,0.0,0.0,0.0,0.0,0.0,0.0,0.0,0.0,0.0,0.0,0.0,0.0,0.0,0.0,0.0,0.0,-2.0782,-2.1816,-2.1328,-2.1354,-2.1398,-2.0588,-2.0828,-2.145,-2.2031,-2.2445,-2.2592,-2.2104,-2.1403,-2.0521,-1.9345,-1.7862,0.0,0.0,0.0,-1.3052,-1.2605,-1.2946,0.0,-1.5231,0.0,0.0,0.0,0.0,-2.0127,0.0,0.0,0.0,0.0,0.0,0.0,0.0,0.0,-2.1597,-2.1062,-2.1082,-2.1109,-2.1109,-2.1109,-2.1109,-2.1109,-2.1109,-2.1109,-2.1109,-2.0869,-2.0675,-2.0508,-2.002,-1.9813,-1.982,-1.9506,0.0,-1.9424,-1.9424,-1.9424,-1.9424,-1.9424,-1.9424,-1.9424,-1.9424,-1.9424,-1.9417,0.0,0.0,0.0,0.0,0.0,0.0,0.0,0.0,0.0,0.0,-1.581,-1.5464,0.0,0.0,0.0,0.0,0.0,0.0,0.0,0.0,0.0,0.0,0.0,0.0,0.0,0.0,0.0,0.0,0.0,0.0,0.0,0.0,0.0,0.0,0.0,0.0,0.0,0.0,0.0,0.0,0.0,0.0,0.0,0.0,0.0,0.0,0.0,0.0,0.0,0.0,-2.0888,-2.2973,-2.3207,-2.336,-2.341,-2.3377,-2.2503,-2.1936,-2.3301,-2.3302,-2.2787,-2.2131,-2.1209,-2.0013,-1.8377,0.0,0.0,0.0,0.0,-1.2378,-1.1931,0.0,0.0,0.0,0.0,0.0,0.0,0.0,0.0,0.0,0.0,0.0,0.0,0.0,0.0,0.0,0.0,-2.157,-2.1129,-2.1109,-2.1109,-2.1109,-2.1109,-2.1109,-2.1109,-2.1109,-2.1109,-2.1109,-2.0969,-2.0822,-2.0668,-2.0388,-2.014,-1.9867,-1.9746,0.0,-1.9424,-1.9424,-1.9424,-1.9424,-1.9424,-1.9424,-1.9424,-1.9424,-1.9424,-1.9424,0.0,0.0,0.0,0.0,0.0,0.0,0.0,-1.6402,-1.6514,-1.7107,-1.6623,-1.588,-1.4981,-1.5188,0.0,0.0,0.0,0.0,0.0,0.0,0.0,0.0,0.0,0.0,0.0,0.0,0.0,0.0,0.0,0.0,0.0,0.0,0.0,0.0,0.0,0.0,0.0,0.0,0.0,0.0,0.0,0.0,0.0,0.0,0.0,0.0,0.0,0.0,0.0,0.0,-2.0078,-2.2446,-2.3634,-2.4269,-2.4622,-2.5095,-2.3452,-2.1951,-2.4087,-2.3746,-2.2612,-2.1957,-2.0869,-1.9446,-1.7548,-1.5999,0.0,0.0,-1.1951,-1.1897,-1.1462,0.0,0.0,0.0,0.0,0.0,0.0,0.0,0.0,0.0,0.0,0.0,0.0,0.0,0.0,0.0,0.0,0.0,-2.1216,-2.1142,-2.1109,-2.1109,-2.1109,-2.1109,-2.1109,-2.1109,-2.1109,-2.1109,-2.1109,-2.0989,-2.0768,-2.0708,-2.0501,-2.012,-1.9927,0.0,0.0,-1.9424,-1.9424,-1.9424,-1.9424,-1.9424,-1.9424,-1.9424,-1.9424,-1.9424,0.0,0.0,0.0,0.0,0.0,0.0,0.0,-1.603,-1.5867,-1.6417,-1.6001,-1.5622,-1.5444,-1.4974,0.0,0.0,0.0,0.0,0.0,0.0,0.0,0.0,0.0,0.0,0.0,0.0,0.0,0.0,0.0,0.0,0.0,0.0,0.0,0.0,0.0,0.0,0.0,0.0,0.0,0.0,0.0,0.0,0.0,0.0,0.0,0.0,0.0,0.0,0.0,0.0,0.0,-1.9407,-2.1487,-2.2715,-2.3359,-2.3408,0.0,0.0,-2.3425,-2.3194,-2.2258,-2.1403,-2.0107,-1.8637,-1.7101,0.0,0.0,0.0,-1.147,-1.1176,-1.139,-1.171,0.0,0.0,0.0,0.0,0.0,0.0,0.0,0.0,0.0,0.0,0.0,0.0,0.0,0.0,0.0,0.0,-2.1581,-2.1256,-2.1109,-2.1109,-2.1109,-2.1109,-2.1109,-2.1109,-2.1109,-2.1109,-2.1109,-2.1096,-2.1056,-2.0795,-2.0795,-2.0942,-1.988,0.0,0.0,-1.9424,-1.9424,-1.9424,-1.9424,-1.9424,-1.9424,-1.9424,-1.9424,-1.9424,0.0,0.0,0.0,0.0,0.0,0.0,0.0,-1.6293,-1.6348,-1.6923,-1.6813,-1.6513,-1.6092,-1.5498,-1.4685,0.0,0.0,0.0,0.0,0.0,0.0,0.0,0.0,0.0,0.0,0.0,0.0,0.0,0.0,0.0,0.0,0.0,0.0,0.0,0.0,0.0,0.0,0.0,0.0,0.0,0.0,0.0,0.0,0.0,0.0,0.0,0.0,0.0,0.0,0.0,0.0,0.0,-1.8594,-1.9496,0.0,0.0,-2.3668,-2.2869,-2.4478,-2.4232,-2.3252,-2.1754,-2.0007,-1.8277,-1.6787,0.0,0.0,-1.185,-1.1276,-1.1082,-1.1335,-1.1523,-1.2031,0.0,0.0,0.0,0.0,0.0,0.0,0.0,0.0,0.0,0.0,0.0,0.0,0.0,0.0,0.0,-2.1824,-2.1363,-2.1109,-2.1109,-2.1109,-2.1109,-2.1109,-2.1109,-2.1109,-2.1109,-2.1109,-2.1109,-2.1109,-2.0989,-2.1002,-2.1082,-2.0621,0.0,0.0,-2.0414,-2.01,-1.9606,-1.9432,-1.9424,-1.9424,-1.9424,-1.9424,-1.9424,0.0,0.0,0.0,0.0,0.0,0.0,-1.65,-1.65,-1.6722,-1.7322,-1.7237,-1.696,-1.6441,-1.5717,-1.4867,-1.3894,0.0,0.0,0.0,0.0,0.0,0.0,0.0,0.0,0.0,0.0,0.0,0.0,0.0,0.0,0.0,0.0,0.0,0.0,0.0,0.0,0.0,0.0,0.0,0.0,0.0,0.0,0.0,0.0,0.0,0.0,0.0,0.0,0.0,0.0,0.0,0.0,0.0,0.0,0.0,0.0,-2.3326,-2.29,-2.3877,-2.3963,-2.3299,-2.1428,-1.9553,-1.7836,0.0,0.0,0.0,-1.1615,-1.1129,-1.0955,-1.1243,-1.1335,-1.1757,-1.2779,0.0,-1.3507,0.0,0.0,0.0,0.0,0.0,0.0,0.0,0.0,0.0,0.0,0.0,0.0,0.0,-2.1523,-2.1109,-2.1109,-2.1109,-2.1109,-2.1109,-2.1109,-2.1109,-2.1109,-2.1109,-2.1109,-2.1109,-2.1109,-2.1015,-2.0862,-2.1029,0.0,0.0,-2.0848,-2.0388,-1.9653,-1.9446,-1.9424,-1.9424,-1.9424,-1.9424,-1.9424,0.0,0.0,0.0,0.0,0.0,0.0,0.0,-1.65,-1.6722,-1.7322,-1.6886,-1.6482,-1.6405,-1.5383,-1.4456,-1.3839,0.0,0.0,0.0,0.0,0.0,0.0,0.0,0.0,0.0,0.0,0.0,-1.2905,0.0,0.0,0.0,0.0,0.0,0.0,0.0,0.0,0.0,0.0,0.0,0.0,0.0,0.0,0.0,0.0,0.0,0.0,0.0,0.0,0.0,0.0,0.0,0.0,0.0,0.0,0.0,0.0,-2.0329,-2.1004,-2.0826,-2.1529,-2.1853,-1.9928,-1.8484,-1.7208,0.0,0.0,0.0,-1.1575,-1.0969,-1.0687,-1.0942,-1.1229,-1.1582,-1.2211,-1.3014,-1.39,0.0,0.0,0.0,0.0,0.0,0.0,0.0,0.0,0.0,0.0,0.0,0.0,0.0,-2.1744,-2.1109,-2.1109,-2.1109,-2.1109,-2.1109,-2.1109,-2.1109,-2.1109,-2.1109,-2.1109,-2.1109,-2.1109,-2.0788,0.0,0.0,0.0,0.0,-2.0241,-1.99,-1.943,-1.9424,-1.9424,-1.9424,-1.9424,-1.9424,-1.9424,0.0,0.0,0.0,0.0,0.0,0.0,0.0,-1.5622,-1.5814,-1.5588,-1.5751,-1.5726,-1.5303,-1.4914,-1.4468,-1.3839,0.0,0.0,0.0,0.0,0.0,0.0,0.0,0.0,0.0,0.0,-1.2905,-1.2905,-1.2905,-1.2905,0.0,0.0,0.0,0.0,0.0,0.0,0.0,0.0,0.0,0.0,0.0,0.0,0.0,0.0,0.0,0.0,0.0,0.0,0.0,0.0,0.0,0.0,0.0,0.0,0.0,-1.6471,0.0,0.0,-2.0484,-2.02,-1.9499,-1.8181,-1.6635,-1.5211,-1.4148,0.0,0.0,-1.1269,-1.0861,-1.068,-1.0942,-1.1069,-1.1523,-1.2726,-1.316,-1.3728,0.0,0.0,0.0,0.0,0.0,0.0,0.0,0.0,0.0,0.0,0.0,0.0,0.0,-2.1309,-2.1109,-2.1109,-2.1109,-2.1109,-2.1109,-2.1109,-2.1109,-2.1109,-2.1109,-2.1109,-2.1109,-2.1109,-2.0788,0.0,0.0,0.0,0.0,-1.9746,-1.9646,-1.9646,-1.9446,-1.9424,-1.9424,-1.9424,-1.9424,-1.9424,0.0,0.0,0.0,0.0,0.0,0.0,0.0,-1.5017,-1.513,-1.4744,-1.5039,-1.513,-1.4744,-1.4502,-1.4213,-1.3815,0.0,0.0,0.0,0.0,0.0,0.0,0.0,0.0,0.0,-1.2905,-1.2905,-1.2905,-1.3037,-1.3125,-1.3125,-1.3281,-1.3271,0.0,0.0,0.0,0.0,0.0,0.0,0.0,0.0,0.0,-1.2935,0.0,0.0,0.0,0.0,0.0,0.0,0.0,0.0,0.0,0.0,0.0,0.0,0.0,-1.618,0.0,0.0,-1.8128,-1.7591,-1.6404,-1.514,0.0,0.0,0.0,0.0,0.0,-1.0794,-1.0646,-1.0827,-1.1009,-1.1463,-1.2385,-1.2913,-1.354,0.0,0.0,0.0,0.0,0.0,0.0,0.0,0.0,0.0,0.0,0.0,0.0,0.0,-2.1109,-2.1042,-2.0895,-2.1029,-2.1109,-2.1109,-2.1109,-2.1109,-2.1109,-2.1109,-2.1109,-2.1096,-2.0655,-2.0327,0.0,0.0,0.0,0.0,-1.9586,-1.9573,-1.9619,-1.9497,-1.9424,-1.9424,-1.9424,-1.9424,-1.9424,0.0,0.0,0.0,0.0,0.0,0.0,0.0,0.0,0.0,0.0,-1.4606,-1.4617,-1.4594,-1.4097,-1.3768,0.0,0.0,0.0,0.0,0.0,0.0,0.0,0.0,0.0,0.0,-1.2905,-1.2905,-1.2905,-1.3301,-1.35,-1.3555,-1.3958,-1.3929,-1.3555,0.0,0.0,0.0,0.0,0.0,0.0,0.0,0.0,0.0,0.0,0.0,0.0,0.0,0.0,0.0,0.0,0.0,0.0,0.0,0.0,0.0,0.0,0.0,0.0,0.0,0.0,0.0,0.0,0.0,0.0,0.0,0.0,0.0,0.0,0.0,0.0,-1.0673,-1.1056,-1.1409,-1.1555,-1.2494,-1.346,0.0,0.0,0.0,0.0,0.0,0.0,0.0,0.0,0.0,0.0,0.0,0.0,0.0,-2.1082,-2.0902,-2.0535,-2.0822,-2.1015,-2.1076,-2.1096,-2.1109,-2.1109,-2.1069,-2.1029,-2.0949,-1.986,-1.9559,0.0,0.0,0.0,0.0,-1.9666,-1.9626,-1.9457,-1.943,-1.9424,-1.9424,-1.9424,-1.9424,-1.9424,0.0,0.0,0.0,0.0,0.0,0.0,0.0,0.0,0.0,0.0,0.0,-1.3826,-1.3358,-1.36,0.0,0.0,0.0,0.0,0.0,0.0,0.0,0.0,0.0,0.0,0.0,-1.2905,-1.2905,-1.2905,-1.3301,-1.3646,-1.3968,-1.4434,-1.4404,-1.3958,-1.3958,0.0,0.0,0.0,0.0,0.0,0.0,0.0,0.0,0.0,0.0,0.0,-1.3763,-1.3682,0.0,0.0,0.0,0.0,0.0,0.0,0.0,0.0,-1.333,-1.2115,-1.3178,0.0,-1.2305,-1.2402,0.0,0.0,0.0,0.0,0.0,0.0,0.0,0.0,0.0,0.0,-1.1617,-1.3206,-1.3507,-1.3833,0.0,0.0,0.0,0.0,0.0,0.0,0.0,0.0,0.0,0.0,0.0,0.0,0.0,-2.0822,-2.0621,-2.0528,-2.004,-2.01,-2.0768,-2.0995,-2.1109,-2.1102,-2.0655,-2.0207,-1.9766,-1.9492,-1.9419,0.0,0.0,0.0,-1.9686,-1.9533,-1.9559,-1.9679,-1.9452,-1.9424,-1.9424,-1.9424,-1.9424,-1.9424,0.0,0.0,0.0,0.0,0.0,0.0,0.0,0.0,0.0,0.0,0.0,0.0,0.0,0.0,0.0,0.0,0.0,0.0,0.0,0.0,0.0,0.0,0.0,0.0,-1.2905,-1.2905,-1.2905,-1.2905,-1.3301,-1.3828,-1.4443,-1.4873,-1.4941,-1.4669,-1.4085,-1.3486,0.0,0.0,0.0,0.0,0.0,0.0,0.0,0.0,0.0,0.0,-1.3633,-1.3332,0.0,-1.4695,-1.4323,-1.313,0.0,0.0,0.0,0.0,-1.2512,-1.1445,-1.2235,-1.1843,-1.1249,-1.1533,-1.1393,-1.1149,0.0,0.0,0.0,0.0,0.0,0.0,0.0,0.0,0.0,0.0,-1.3567,0.0,0.0,0.0,0.0,0.0,0.0,0.0,0.0,0.0,0.0,0.0,0.0,0.0,0.0,-2.0708,-2.0474,-2.0201,-1.9913,-1.9993,-2.0468,-2.0628,-2.0708,-2.0702,-2.0388,-1.9927,-1.9424,-1.9424,-1.9424,0.0,0.0,0.0,-1.9593,-1.9432,-1.9459,-1.9586,-1.9491,-1.9424,-1.9424,-1.9424,-1.9424,-1.9424,0.0,0.0,0.0,0.0,0.0,0.0,0.0,0.0,0.0,0.0,0.0,0.0,0.0,0.0,0.0,0.0,0.0,0.0,0.0,0.0,0.0,0.0,0.0,-1.2905,-1.2905,-1.2905,-1.2905,-1.2905,-1.3428,-1.4102,-1.4893,-1.5449,-1.5605,-1.5352,-1.4082,-1.3271,0.0,0.0,0.0,0.0,-1.2905,0.0,0.0,0.0,0.0,0.0,0.0,0.0,0.0,-1.4252,-1.3965,-1.2765,-1.3567,0.0,0.0,0.0,0.0,0.0,-1.1621,-1.1687,-1.1422,-1.1295,-1.1295,-1.1329,-1.1329,0.0,0.0,0.0,0.0,0.0,0.0,0.0,0.0,0.0,0.0,0.0,0.0,0.0,0.0,0.0,0.0,0.0,0.0,0.0,0.0,0.0,0.0,0.0,0.0,-2.0608,-2.0361,-1.982,-1.9993,-2.01,-2.01,-2.0187,-2.0173,-2.0173,-2.0187,-1.9913,-1.9452,-1.9392,-1.9424,-1.9424,0.0,0.0,-1.9491,-1.9444,-1.9392,-1.9491,-1.9444,-1.9424,-1.9424,-1.9424,-1.9424,-1.9424,0.0,0.0,0.0,0.0,0.0,0.0,0.0,0.0,0.0,0.0,0.0,0.0,0.0,0.0,0.0,0.0,0.0,0.0,0.0,0.0,0.0,0.0,-1.2905,-1.2905,-1.2905,-1.2905,-1.2905,-1.2905,-1.4023,-1.4834,-1.5342,-1.6523,-1.6484,-1.5352,-1.4082,-1.3271,-1.2905,-1.2905,-1.2905,-1.2905,-1.2905,0.0,0.0,0.0,0.0,0.0,0.0,0.0,0.0,-1.2679,-1.2305,-1.1115,-1.1896,0.0,0.0,0.0,0.0,0.0,-1.1853,-1.1972,-1.1658,-1.0914,-1.0875,-1.1056,-1.1056,0.0,0.0,0.0,0.0,0.0,0.0,0.0,0.0,0.0,0.0,0.0,0.0,0.0,0.0,0.0,0.0,0.0,0.0,0.0,0.0,0.0,0.0,0.0,0.0,-2.0301,-2.0147,-1.9813,-1.9606,-1.9499,-1.9499,-1.9987,-2.0173,-2.0227,-1.9987,-1.986,-1.978,-1.9512,-1.9424,-1.9424,0.0,-1.9506,-1.9713,-1.9466,-1.9512,-1.9713,-1.9466,-1.9424,-1.9424,-1.9424,-1.9424,-1.9424,0.0,0.0,0.0,0.0,0.0,0.0,0.0,0.0,0.0,0.0,0.0,0.0,0.0,0.0,0.0,0.0,0.0,0.0,0.0,0.0,0.0,-1.2905,-1.2905,-1.2905,-1.2905,-1.3105,-1.333,-1.3555,-1.4385,-1.5244,-1.6112,-1.6716,-1.6143,-1.4506,-1.3659,-1.292,-1.232,-1.232,-1.2535,-1.2905,0.0,0.0,0.0,0.0,0.0,0.0,0.0,0.0,0.0,0.0,-1.1821,-1.0717,-1.1319,0.0,0.0,0.0,0.0,0.0,-1.1188,-1.136,-1.1337,-1.0928,-1.1249,-1.1657,-1.1503,0.0,0.0,0.0,0.0,0.0,0.0,0.0,0.0,0.0,0.0,0.0,0.0,0.0,0.0,0.0,0.0,0.0,0.0,0.0,0.0,0.0,0.0,0.0,0.0,0.0,-1.9867,-1.9579,-1.9432,-1.9424,-1.9424,-1.9633,-1.9766,-1.9766,-1.9633,-1.9593,-1.9626,-1.9446,-1.9424,-1.9424,0.0,-1.9446,-1.9553,-1.9419,-1.9446,-1.9553,-1.9477,-1.9424,-1.9424,-1.9424,-1.9424,-1.9424,0.0,0.0,0.0,0.0,0.0,0.0,0.0,0.0,0.0,0.0,0.0,0.0,0.0,0.0,0.0,0.0,0.0,0.0,0.0,0.0,-1.2905,-1.2905,-1.2905,-1.2954,-1.3052,-1.334,-1.3685,-1.4104,-1.4668,-1.5547,-1.6697,-1.6492,-1.547,-1.378,-1.3369,-1.2595,-1.1591,-1.1922,-1.2286,-1.2632,0.0,0.0,0.0,0.0,0.0,0.0,0.0,0.0,0.0,0.0,0.0,0.0,0.0,0.0,0.0,-1.0593,-1.0593,-1.0606,-1.0673,-1.0854,-1.0995,-1.0995,0.0,-1.2011,-1.21,0.0,0.0,0.0,0.0,0.0,0.0,0.0,0.0,0.0,0.0,0.0,0.0,0.0,0.0,0.0,0.0,0.0,0.0,0.0,0.0,0.0,0.0,0.0,0.0,0.0,-1.9666,-1.9437,-1.9424,-1.9424,-1.9424,-1.9424,-1.9424,-1.9424,-1.9424,-1.9424,-1.9424,-1.9424,-1.9424,-1.9424,-1.9424,-1.9424,-1.9424,-1.9424,-1.9424,-1.9424,-1.9424,-1.9424,-1.9424,-1.9424,-1.9424,-1.9424,0.0,0.0,0.0,0.0,0.0,0.0,0.0,0.0,0.0,0.0,0.0,0.0,0.0,0.0,0.0,0.0,0.0,0.0,0.0,0.0,-1.2905,-1.2905,-1.2905,-1.3066,-1.3457,-1.3496,-1.3685,-1.4104,-1.4933,-1.581,-1.6687,-1.5859,-1.4888,-1.3799,-1.3573,-1.2494,-1.0965,-1.2255,-1.2452,-1.1888,-1.1888,0.0,0.0,0.0,0.0,0.0,0.0,0.0,0.0,0.0,0.0,0.0,0.0,0.0,-1.0593,-1.0593,-1.0593,-1.0646,-1.0889,-1.0982,-1.0995,-1.0995,0.0,0.0,-1.2476,-1.2723,0.0,0.0,0.0,0.0,0.0,0.0,0.0,0.0,0.0,0.0,0.0,0.0,0.0,0.0,0.0,0.0,0.0,0.0,0.0,0.0,0.0,0.0,0.0,0.0,0.0,-1.9437,-1.9424,-1.9424,-1.9424,-1.9424,-1.9424,-1.9424,-1.9424,-1.9424,-1.9424,-1.9424,-1.9424,-1.9424,-1.9424,-1.9424,-1.9424,-1.9424,-1.9424,-1.9424,-1.9424,-1.9424,-1.9424,-1.9424,-1.9424,-1.9424,0.0,0.0,0.0,0.0,0.0,0.0,0.0,0.0,0.0,0.0,0.0,0.0,0.0,0.0,0.0,0.0,0.0,0.0,0.0,0.0,-1.2905,-1.2905,-1.2905,-1.3076,-1.3496,-1.3506,-1.3685,-1.4104,-1.5264,-1.585,-1.5878,-1.5143,-1.4045,-1.2701,-1.1984,-1.1221,-1.0548,-1.1285,-1.1539,-1.1498,-1.1713,-1.1291,0.0,0.0,0.0,0.0,0.0,0.0,0.0,0.0,-0.9967,-1.0083,-1.0083,-1.0321,-1.0593,-1.0593,-1.0593,-1.062,-1.0727,-1.0855,-1.1035,-1.1216,0.0,0.0,0.0,0.0,0.0,0.0,0.0,0.0,0.0,0.0,0.0,0.0,0.0,0.0,0.0,0.0,0.0,0.0,0.0,0.0,0.0,0.0,0.0,0.0,0.0,0.0,0.0,0.0,0.0,-1.943,-1.9424,-1.9424,-1.9424,-1.9424,-1.9424,-1.9424,-1.9424,-1.9424,-1.9424,-1.9424,-1.9424,-1.9424,-1.9424,-1.9424,-1.9424,-1.9424,-1.9424,-1.9424,-1.9424,-1.9424,-1.9424,-1.9424,-1.9424,-1.9424,0.0,0.0,0.0,0.0,0.0,0.0,0.0,0.0,0.0,0.0,0.0,0.0,0.0,0.0,0.0,0.0,0.0,0.0,0.0,-1.2905,-1.2905,-1.2905,-1.2905,-1.3042,-1.3301,-1.3311,-1.3584,-1.4104,-1.5019,-1.5206,-1.4659,-1.4161,-1.3147,-1.1688,-1.1135,-1.0602,-1.0153,-1.0817,-1.1058,-1.1003,-1.1241,-1.0716,0.0,0.0,0.0,0.0,0.0,0.0,0.0,0.0,-0.982,-1.0,0.0,-1.0321,-1.0593,-1.0593,-1.0593,-1.0593,-1.0593,-1.0734,-1.0922,0.0,0.0,0.0,0.0,0.0,0.0,0.0,0.0,0.0,0.0,0.0,0.0,0.0,0.0,0.0,0.0,0.0,0.0,0.0,0.0,0.0,0.0,0.0,0.0,0.0,0.0,0.0,0.0,0.0,0.0,0.0,-1.9138,-1.9132,-1.9225,-1.9138,-1.9149,-1.9149,-1.9149,-1.9249,-1.9424,-1.9272,-1.9225,-1.9225,-1.9132,-1.9145,-1.9225,-1.9225,-1.9279,-1.9424,-1.9424,-1.9424,-1.9424,-1.9424,-1.9424,-1.9424,0.0,0.0,0.0,0.0,0.0,0.0,0.0,0.0,0.0,0.0,0.0,0.0,0.0,0.0,0.0,0.0,0.0,0.0,-1.2905,-1.2905,-1.2905,-1.2905,-1.2905,-1.2905,-1.2905,-1.2905,-1.3291,-1.4094,-1.4104,-1.3736,-1.3077,-1.295,-1.2161,-1.0927,-1.1455,-1.0927,-0.9802,-1.1118,-1.1146,-1.0295,-1.0287,-1.0086,-0.9755,0.0,0.0,0.0,0.0,0.0,0.0,0.0,-0.9715,-0.974,-1.0027,0.0,-1.0593,-1.0593,-1.0593,-1.0593,-1.0593,-1.0593,0.0,0.0,0.0,0.0,0.0,0.0,0.0,0.0,0.0,0.0,0.0,0.0,0.0,0.0,0.0,0.0,0.0,0.0,0.0,0.0,0.0,0.0,0.0,0.0,0.0,0.0,0.0,0.0,0.0,0.0,0.0,0.0,-1.8644,-1.8631,-1.8918,-1.8637,-1.849,-1.849,-1.849,-1.8791,-1.941,-1.9052,-1.8918,-1.8905,-1.8617,-1.8657,-1.8925,-1.8925,-1.9098,-1.9424,-1.9424,-1.9424,-1.9424,-1.9424,-1.9424,-1.9424,0.0,0.0,0.0,0.0,0.0,0.0,0.0,0.0,0.0,0.0,0.0,0.0,0.0,0.0,0.0,0.0,0.0,0.0,-1.2905,-1.2905,-1.2905,-1.2905,-1.2905,-1.2905,-1.2905,-1.2905,-1.3023,-1.3252,-1.3072,-1.2863,-1.2661,-1.185,-1.1266,-1.0878,-1.0458,-1.0189,-1.002,-1.051,-1.0497,-1.0165,-1.0252,-1.0067,-0.9707,0.0,0.0,0.0,0.0,0.0,0.0,0.0,0.0,0.0,-1.0334,0.0,-1.0593,-1.0593,-1.0593,-1.0593,-1.0593,0.0,0.0,0.0,0.0,0.0,0.0,0.0,0.0,0.0,0.0,0.0,0.0,0.0,0.0,0.0,0.0,0.0,0.0,0.0,0.0,0.0,0.0,0.0,0.0,0.0,0.0,0.0,0.0,0.0,0.0,0.0,0.0,0.0,-1.8537,-1.8531,-1.8617,-1.8537,-1.849,-1.849,-1.849,-1.8584,-1.8744,-1.8657,-1.8617,-1.8611,-1.8524,-1.8657,-1.8925,-1.8925,-1.9098,-1.9339,-1.9065,-1.9125,-1.9424,-1.9424,-1.9424,-1.9424,0.0,0.0,0.0,0.0,0.0,0.0,0.0,0.0,0.0,0.0,0.0,0.0,0.0,0.0,0.0,0.0,0.0,0.0,0.0,0.0,-1.2905,-1.2905,-1.2608,-1.2353,-1.2073,-1.2082,-1.2082,-1.2082,-1.2161,-1.1946,-1.1411,-1.102,-1.0679,-1.0415,-1.0157,-1.0157,-1.0298,-1.0373,-1.0307,-1.0117,-1.0184,-1.0015,-0.9722,0.0,0.0,0.0,0.0,0.0,0.0,0.0,0.0,0.0,-1.0499,0.0,0.0,-1.0593,-1.0593,-1.062,-1.0734,0.0,0.0,0.0,0.0,0.0,0.0,0.0,0.0,0.0,0.0,0.0,0.0,0.0,0.0,0.0,0.0,0.0,0.0,0.0,0.0,0.0,0.0,0.0,0.0,0.0,0.0,0.0,0.0,0.0,0.0,0.0,0.0,0.0,-1.8196,-1.819,-1.831,-1.819,-1.813,-1.813,-1.813,-1.813,-1.8136,-1.8257,-1.831,-1.8323,-1.8437,-1.8524,-1.8542,-1.8831,-1.9005,-1.9098,-1.8704,-1.8885,-1.9424,-1.9424,-1.9424,-1.9424,0.0,0.0,0.0,0.0,0.0,0.0,0.0,0.0,0.0,0.0,0.0,0.0,0.0,0.0,0.0,0.0,0.0,0.0,0.0,0.0,-1.2905,-1.2905,-1.2187,-1.1466,-1.0712,-1.0771,-1.0737,-1.0618,-1.1291,-1.1007,-0.9848,-1.0363,-1.0315,-0.9746,-1.0338,-1.0593,-1.0593,-1.0566,-1.0412,-1.0154,-1.0097,-0.9973,-0.9822,-1.0053,0.0,0.0,0.0,0.0,0.0,0.0,0.0,0.0,-1.0506,-1.0593,-1.0593,-1.0593,-1.0593,-1.066,0.0,0.0,0.0,0.0,0.0,0.0,0.0,0.0,0.0,0.0,0.0,0.0,0.0,0.0,0.0,0.0,0.0,0.0,0.0,0.0,0.0,0.0,0.0,0.0,0.0,0.0,0.0,0.0,0.0,0.0,0.0,0.0,0.0,-1.7942,-1.7729,-1.7716,-1.7949,-1.7722,-1.7582,-1.7582,-1.7555,-1.7555,-1.7595,-1.7876,-1.7949,-1.7969,-1.8317,-1.8297,-1.8029,-1.8568,-1.8798,-1.8691,-1.8297,-1.8577,-1.9263,-1.9263,-1.933,-1.9424,0.0,0.0,0.0,0.0,0.0,0.0,0.0,0.0,0.0,0.0,0.0,0.0,0.0,0.0,0.0,0.0,0.0,0.0,0.0,0.0,-1.2905,-1.2905,-1.2187,-1.1241,-1.0038,-1.0542,-1.0287,-0.9237,-0.9891,-1.0228,-1.019,-1.001,-0.9946,-1.004,-1.0432,-1.0593,-1.0579,-1.0314,-1.0307,-1.0479,-1.0207,-1.0214,-1.0405,-1.0472,-1.0281,0.0,0.0,0.0,0.0,0.0,0.0,0.0,-1.0573,-1.0593,-1.0593,-1.0593,-1.0593,-1.066,0.0,0.0,0.0,0.0,0.0,0.0,0.0,0.0,0.0,0.0,0.0,0.0,0.0,0.0,0.0,0.0,0.0,0.0,0.0,0.0,0.0,0.0,0.0,0.0,0.0,0.0,0.0,0.0,0.0,0.0,0.0,0.0,0.0,-1.7669,-1.7615,-1.7615,-1.7682,-1.7615,-1.7582,0.0,-1.7407,-1.7414,-1.7589,-1.7649,-1.7682,-1.7695,-1.7989,-1.8083,-1.8029,-1.8122,-1.827,-1.8283,-1.7876,-1.7816,-1.7963,-1.7963,-1.8564,-1.9424,0.0,0.0,0.0,0.0,0.0,0.0,0.0,0.0,0.0,0.0,0.0,0.0,0.0,0.0,0.0,0.0,0.0,0.0,0.0,0.0,0.0,-1.1925,-1.1225,-1.0364,-0.9335,-0.9666,-0.9484,-0.8804,-0.9278,-0.9613,0.0,0.0,-0.984,-1.0097,-1.0459,-1.0593,-1.0579,-1.0425,-1.0452,-1.0579,-1.0419,-1.0452,-1.0593,-1.0593,-1.0492,-1.0327,-1.0327,0.0,0.0,0.0,0.0,0.0,0.0,0.0,-1.0593,-1.0593,-1.0593,-1.066,0.0,0.0,0.0,0.0,0.0,0.0,0.0,0.0,0.0,0.0,0.0,0.0,0.0,0.0,0.0,0.0,0.0,0.0,0.0,0.0,0.0,0.0,0.0,0.0,0.0,0.0,0.0,0.0,0.0,0.0,0.0,-1.6857,-1.7157,-1.8004,-1.8011,-1.831,-1.8955,-1.8955,-1.8955,-1.8955,-1.8196,-1.7694,-1.7434,-1.7515,-1.7582,-1.7602,-1.7896,-1.7943,-1.7822,-1.7929,-1.7989,-1.7883,-1.7662,-1.7582,-1.7582,-1.7582,-1.7976,-1.8566,0.0,0.0,0.0,0.0,0.0,0.0,0.0,0.0,0.0,0.0,0.0,0.0,0.0,0.0,0.0,0.0,0.0,0.0,0.0,0.0,0.0,-1.0872,-1.0167,-0.9491,-0.8804,-0.8804,-0.8804,-0.8804,0.0,0.0,0.0,0.0,0.0,-1.0207,-1.0479,-1.0593,-1.0593,-1.0593,-1.0593,-1.0593,-1.0593,-1.0593,-1.0593,-1.0593,-1.0593,-1.0593,-1.0593,-1.0593,-1.0593,-1.0593,0.0,0.0,0.0,0.0,-1.0593,-1.0593,-1.0593,-1.066,0.0,0.0,0.0,0.0,0.0,0.0,0.0,0.0,0.0,0.0,0.0,0.0,0.0,0.0,0.0,0.0,0.0,0.0,0.0,0.0,0.0,0.0,0.0,0.0,0.0,0.0,0.0,0.0,0.0,0.0,-1.6613,-1.64,-1.689,-1.8156,-1.8171,-1.8697,-1.9756,-1.9748,-1.9853,-2.0047,-1.9228,-1.8329,-1.7357,-1.785,-1.7866,-1.7522,-1.7782,-1.7749,-1.7528,-1.7782,-1.7769,-1.7582,-1.7528,-1.7542,-1.7582,-1.7582,-1.7582,-1.7582,0.0,0.0,0.0,0.0,0.0,0.0,0.0,0.0,0.0,0.0,0.0,0.0,0.0,0.0,0.0,0.0,0.0,0.0,-1.2905,0.0,0.0,-1.0838,-1.0167,-0.9491,-0.8804,-0.8804,-0.8804,-0.8804,0.0,0.0,0.0,0.0,0.0,-1.0533,0.0,-1.0593,-1.0593,-1.0593,-1.0593,-1.0593,-1.0593,-1.0593,-1.0593,-1.0593,-1.0593,-1.0593,-1.0593,-1.0593,-1.0593,-1.0593,-1.0593,0.0,0.0,0.0,0.0,-1.0593,-1.0593,-1.066,0.0,0.0,0.0,0.0,0.0,0.0,0.0,0.0,0.0,0.0,0.0,0.0,0.0,0.0,0.0,0.0,0.0,0.0,0.0,0.0,0.0,0.0,0.0,0.0,0.0,0.0,0.0,0.0,0.0,0.0,-1.6319,-1.6342,-1.6505,-1.6943,-1.695,-1.7043,-1.7186,-1.7186,-1.7725,-1.8746,-1.9707,-1.9388,-1.803,-1.94,-1.9032,-1.7266,-1.73,-1.73,-1.7266,-1.7306,-1.7395,-1.7555,-1.7353,-1.7414,-1.7582,-1.7582,-1.7582,-1.7582,0.0,0.0,0.0,0.0,0.0,0.0,0.0,0.0,0.0,0.0,0.0,0.0,0.0,0.0,0.0,-1.2905,-1.2905,-1.2715,-1.232,-1.1625,-1.0939,-1.0269,-0.9588,-0.9113,-0.8811,-0.8804,-0.8804,0.0,0.0,0.0,0.0,-1.0374,-1.0848,0.0,0.0,0.0,0.0,-1.0727,-1.0593,-1.0593,-1.0593,-1.0593,-1.0593,-1.0593,-1.0593,-1.0593,-1.0593,-1.0593,-1.0593,-1.0593,-1.0593,-1.0593,-1.0593,0.0,0.0,0.0,-1.0593,0.0,0.0,0.0,0.0,0.0,0.0,0.0,0.0,0.0,0.0,0.0,0.0,0.0,0.0,0.0,0.0,0.0,0.0,0.0,0.0,0.0,0.0,0.0,0.0,0.0,0.0,0.0,0.0,0.0,0.0,-1.6164,-1.7056,-1.6402,-1.6416,-1.7214,-1.7912,-1.8603,-1.9248,-1.9959,-2.0192,-2.0052,-1.9967,-1.9248,-1.8074,-1.7934,-1.747,-1.6951,-1.7644,-1.7543,-1.6901,-1.6901,-1.6974,-1.7081,-1.6954,-1.7048,-1.7281,-1.7502,-1.7582,-1.7582,0.0,0.0,0.0,0.0,0.0,0.0,0.0,0.0,0.0,0.0,0.0,0.0,0.0,0.0,0.0,0.0,-1.2905,-1.2584,-1.1839,-1.1015,-1.0312,-0.9814,-0.9159,-0.8804,-0.8804,-0.8804,-0.8804,0.0,0.0,0.0,-0.9813,-1.0695,-1.1376,0.0,-1.1637,0.0,0.0,0.0,0.0,-1.07,-1.062,-1.0593,-1.0593,-1.0593,-1.0593,-1.0593,-1.0593,-1.0593,-1.0593,-1.0593,-1.0593,-1.0593,-1.0593,-1.0593,0.0,0.0,0.0,0.0,0.0,0.0,0.0,0.0,0.0,0.0,0.0,0.0,0.0,0.0,0.0,0.0,0.0,0.0,0.0,0.0,0.0,0.0,0.0,0.0,0.0,0.0,0.0,0.0,0.0,0.0,0.0,0.0,0.0,-1.7163,-1.8095,-1.7257,-1.7163,-1.8141,-1.9039,-1.9943,-2.0845,-2.1721,-2.1721,-2.0845,-1.9943,-1.8953,-1.7995,-1.7138,-1.6628,-1.6536,-1.7527,-1.7422,-1.66,-1.66,-1.664,-1.67,-1.662,-1.6927,-1.7454,-1.8103,-1.8198,-1.8008,0.0,0.0,0.0,0.0,0.0,0.0,0.0,0.0,0.0,0.0,0.0,0.0,-1.2905,-1.2905,-1.2905,-1.2905,-1.2905,-1.2584,-1.1839,-1.0593,-0.984,-0.9814,-0.9159,0.0,-0.8804,-0.8804,0.0,0.0,0.0,0.0,-1.0114,-1.0962,-1.157,-1.1906,-1.1893,-1.1571,-1.1035,0.0,0.0,0.0,-1.0707,-1.0593,-1.0593,-1.0593,-1.0593,0.0,0.0,0.0,-1.0593,-1.0593,-1.0593,-1.0593,-1.0593,-1.0593,-1.0593,0.0,0.0,0.0,0.0,0.0,0.0,0.0,0.0,0.0,0.0,0.0,0.0,0.0,0.0,0.0,0.0,0.0,0.0,0.0,0.0,0.0,0.0,0.0,0.0,0.0,0.0,0.0,0.0,0.0,0.0,0.0,0.0,-1.936,-1.9405,-1.9351,-1.936,-1.9405,-1.9451,-1.9534,-1.9579,-1.9679,-1.9679,-1.9579,-1.9534,-1.8872,-1.7761,-1.8826,-1.8048,-1.5892,-1.6269,-1.639,-1.6342,-1.6342,-1.646,-1.6673,-1.64,-1.719,-1.8572,-1.9796,-1.9848,-1.916,0.0,0.0,0.0,0.0,0.0,0.0,0.0,0.0,0.0,0.0,0.0,0.0,0.0,-1.2905,-1.2715,-1.2236,-1.2187,-1.1733,-1.0593,-1.0466,-1.0064,-0.9185,-0.8936,-0.8804,-0.8804,-0.8804,-0.8804,0.0,0.0,-0.9424,-0.9544,-1.0454,-1.0828,-1.0768,-1.1336,-1.147,-1.1249,-1.0982,0.0,0.0,0.0,0.0,0.0,0.0,0.0,0.0,0.0,0.0,0.0,0.0,-1.0593,-1.0593,-1.0593,-1.0593,-1.0593,-1.0593,-1.0593,0.0,0.0,0.0,0.0,0.0,0.0,0.0,0.0,0.0,0.0,0.0,0.0,0.0,0.0,0.0,0.0,0.0,0.0,0.0,0.0,0.0,0.0,0.0,0.0,0.0,0.0,0.0,0.0,0.0,0.0,0.0,-2.0218,-1.9771,-1.9497,-1.9497,-2.026,-2.1033,-2.181,-2.1819,-2.1819,-2.1774,-2.0223,-1.9268,-1.8818,-1.8503,-1.7863,-1.7091,-1.7976,-1.7896,-1.721,-1.721,-1.7687,-1.8471,-1.8395,-1.768,-1.6973,-1.8768,-1.8457,-1.7134,0.0,0.0,0.0,0.0,0.0,0.0,0.0,0.0,0.0,0.0,0.0,0.0,0.0,0.0,-1.2691,-1.2212,-1.1749,-1.1091,-1.0185,-1.0141,-0.9736,-0.8831,-0.8804,-0.8804,-0.8804,-0.8804,-0.8804,0.0,0.0,0.0,0.0,-1.004,-1.0307,-1.0117,-1.0828,-1.1189,0.0,0.0,0.0,-1.0727,0.0,0.0,-1.0747,0.0,0.0,0.0,0.0,0.0,0.0,0.0,0.0,0.0,-1.0593,-1.0593,-1.0593,-1.0593,-1.0593,0.0,0.0,0.0,0.0,0.0,0.0,0.0,0.0,0.0,0.0,0.0,0.0,0.0,0.0,0.0,0.0,0.0,0.0,0.0,0.0,0.0,0.0,0.0,0.0,0.0,0.0,0.0,0.0,0.0,0.0,0.0,-2.105,-2.0604,-2.0298,-2.0298,-2.1098,-2.1966,-2.2886,-2.2519,-2.2358,-2.2492,-2.0449,-1.9497,-1.9488,-1.8688,-1.8319,-1.8373,-1.9131,-1.9047,-1.8319,-1.8319,-1.8772,-1.9497,-1.9497,-1.8488,-1.7099,-1.7673,-1.7498,-1.7079,0.0,0.0,0.0,0.0,0.0,0.0,0.0,0.0,0.0,0.0,0.0,0.0,0.0,0.0,0.0,-1.2832,-1.1559,-1.0762,-1.0737,-0.9536,-0.8831,-0.8804,-0.8804,-0.8804,-0.8804,-0.8804,-0.8804,0.0,0.0,0.0,0.0,0.0,-1.0077,-1.0097,-1.0459,-1.0747,-1.0982,0.0,-1.1236,-1.0955,0.0,-1.076,-1.1009,0.0,0.0,0.0,-1.1369,-1.1223,0.0,0.0,0.0,0.0,0.0,0.0,0.0,0.0,0.0,0.0,0.0,0.0,0.0,0.0,0.0,0.0,0.0,0.0,0.0,0.0,0.0,0.0,0.0,0.0,0.0,0.0,0.0,0.0,0.0,0.0,0.0,0.0,0.0,0.0,0.0,0.0,0.0,0.0,0.0,-2.0717,-2.1824,-2.1875,-2.1885,-2.1885,-2.1885,-2.208,-2.249,-2.1321,-2.0931,-2.1301,-2.0099,-1.9526,-1.9526,-1.9534,-1.9534,-1.9534,-1.9588,-1.9633,-1.9579,-1.9588,-1.9579,-1.9579,-1.9588,-1.9542,-1.9222,-1.6796,-1.739,-1.9136,0.0,0.0,0.0,0.0,0.0,0.0,0.0,0.0,0.0,0.0,0.0,0.0,-1.2905,-1.1999,-1.1384,-1.1384,-1.0576,-0.9865,-0.9387,-0.9465,-0.9316,-0.8831,-0.8804,-0.8804,-0.8804,-0.8804,-0.8804,0.0,0.0,0.0,0.0,0.0,0.0,0.0,-1.0459,-1.0519,-1.0381,-1.0707,0.0,0.0,-1.0626,-1.064,0.0,0.0,0.0,0.0,0.0,-1.078,0.0,0.0,-1.0593,-1.0593,0.0,0.0,0.0,0.0,0.0,0.0,-1.0593,0.0,0.0,0.0,0.0,0.0,0.0,0.0,0.0,0.0,0.0,0.0,0.0,0.0,0.0,0.0,0.0,0.0,0.0,0.0,0.0,0.0,0.0,0.0,0.0,0.0,0.0,0.0,-2.093,-2.1063,-2.1375,-2.1719,-2.1885,-2.1885,-2.1885,-2.1943,-2.206,-2.1749,-2.1629,-2.1702,-2.0795,-2.0386,-2.0395,-2.0677,-2.08,-2.0845,-2.1721,-2.2085,-2.2041,-2.1168,-2.1302,-2.1996,-2.1123,-2.0621,-2.0116,-1.8311,-1.7257,-1.6786,0.0,0.0,0.0,0.0,0.0,0.0,0.0,0.0,0.0,0.0,0.0,0.0,-1.3125,-1.217,-1.1687,-1.2155,-1.1403,-1.0757,-1.0365,-1.0252,-1.0038,-0.9666,-0.9361,-0.9211,-0.9211,-0.8936,-0.8804,0.0,0.0,0.0,0.0,0.0,0.0,0.0,0.0,0.0,0.0,0.0,0.0,0.0,-1.0539,0.0,0.0,-1.0875,-1.0922,0.0,0.0,0.0,-1.0882,-1.0673,-1.0593,0.0,0.0,0.0,0.0,0.0,0.0,0.0,0.0,0.0,0.0,0.0,0.0,0.0,0.0,-1.159,0.0,0.0,0.0,0.0,0.0,0.0,0.0,0.0,0.0,0.0,0.0,0.0,0.0,0.0,0.0,0.0,0.0,0.0,0.0,-1.9972,-1.988,-2.0022,-2.0635,-2.1094,-2.1378,-2.1378,-2.1378,-2.1426,-2.1611,-2.1611,-2.1709,-2.1894,-2.1599,-2.1435,-2.1444,-2.1845,-2.2031,-2.2076,-2.2775,-2.2818,-2.235,-2.212,-2.2492,-2.3003,-2.1756,-2.0845,-2.0034,-1.8772,-1.7264,-1.5831,0.0,0.0,0.0,0.0,0.0,0.0,0.0,0.0,0.0,0.0,0.0,-1.3105,-1.3525,-1.2971,-1.2953,-1.3905,-1.3035,-1.2413,-1.2325,-1.1464,-1.0844,-1.0624,-1.0221,-0.9903,-0.9692,-0.9185,-0.8897,0.0,0.0,0.0,0.0,0.0,0.0,0.0,0.0,0.0,0.0,0.0,0.0,-1.014,-1.0472,-1.0747,0.0,0.0,-1.1315,0.0,-1.1309,-1.1315,-1.1289,-1.0774,-1.0676,0.0,0.0,0.0,0.0,0.0,-1.0798,0.0,0.0,0.0,0.0,0.0,0.0,0.0,-1.0852,-1.1934,-1.2833,0.0,0.0,0.0,0.0,0.0,0.0,0.0,0.0,0.0,0.0,0.0,0.0,0.0,0.0,0.0,0.0,-1.835,-1.8202,-1.9136,-1.8396,-1.8462,-1.9749,-2.0215,-2.0478,-2.0537,-2.0537,-2.0703,-2.1112,-2.1122,-2.1357,-2.1738,-2.2168,-2.2393,-2.2461,-2.2838,-2.3052,-2.3091,-2.3091,-2.2403,-2.1382,-2.2448,-2.2818,-2.2589,-2.1525,-2.035,-1.9177,-1.8319,-1.7077,-1.5784,0.0,0.0,0.0,0.0,0.0,0.0,0.0,0.0,0.0,0.0,0.0,0.0,0.0,-1.3382,-1.3059,-1.3277,-1.2605,-1.1895,-1.1249,-1.1608,-1.1146,-0.9582,-1.057,-1.0506,-0.9041,-0.9387,-0.9455,0.0,0.0,0.0,0.0,0.0,0.0,0.0,0.0,0.0,0.0,0.0,0.0,-1.014,-1.0472,0.0,-1.068,-1.074,-1.0875,-1.1049,-1.0847,-1.0875,-1.1022,0.0,-1.1181,-1.1911,0.0,0.0,0.0,0.0,0.0,0.0,0.0,0.0,0.0,0.0,0.0,0.0,-1.2523,-1.2445,-1.2822,0.0,0.0,0.0,0.0,0.0,0.0,0.0,0.0,0.0,0.0,0.0,0.0,0.0,0.0,0.0,0.0,-1.8547,-1.8511,-1.8724,-1.8901,-1.9097,-1.9404,-1.9492,-1.9687,-2.0029,-2.0039,-2.0254,-2.0693,-2.0732,-2.0781,-2.0869,-2.1269,-2.167,-2.2021,-2.2441,-2.2779,-2.3091,-2.3091,-2.2403,-2.1337,-2.1569,-2.1078,-2.0178,-1.9943,-1.9131,-1.7917,-1.6709,-1.6062,-1.5784,0.0,0.0,0.0,0.0,0.0,0.0,0.0,0.0,0.0,0.0,0.0,0.0,0.0,0.0,0.0,-1.4204,-1.3756,-1.3264,-1.2863,0.0,0.0,-1.1107,-1.1467,-1.1086,-0.9776,-0.9748,-0.9667,0.0,0.0,0.0,0.0,0.0,0.0,0.0,0.0,0.0,0.0,0.0,-1.0506,-1.0347,-1.0533,0.0,-1.0593,-1.0593,-1.0774,-1.1021,-1.1157,-1.1262,-1.1333,-1.0929,-1.1154,0.0,0.0,-1.1737,-1.1924,0.0,-1.2255,-1.2016,0.0,0.0,0.0,-1.3281,0.0,0.0,0.0,-1.2649,0.0,0.0,0.0,0.0,0.0,0.0,0.0,0.0,0.0,0.0,0.0,0.0,0.0,0.0,0.0,0.0,0.0,-1.8169,-1.8286,-1.8286,-1.8721,-1.8965,-1.8965,-1.917,-1.9385,-1.959,-1.96,-1.9805,-2.0234,-2.0244,-2.0352,-2.0605,-2.1025,-2.1307,-2.1582,-2.2227,-2.2627,-2.2789,-2.3003,-2.2085,-2.044,-2.1069,-1.9844,-1.7708,-1.8357,-1.8226,-1.7552,-1.6244,-1.5784,-1.5784,0.0,0.0,0.0,0.0,0.0,0.0,0.0,0.0,0.0,0.0,0.0,0.0,0.0,0.0,0.0,0.0,0.0,-1.4885,0.0,0.0,0.0,0.0,-1.2597,-1.2005,-1.0991,-1.058,-1.0329,0.0,0.0,0.0,0.0,0.0,0.0,0.0,0.0,0.0,0.0,0.0,0.0,-1.0593,0.0,-1.0593,-1.0593,-1.0593,-1.0774,-1.106,-1.1564,-1.184,-1.1877,-1.1285,0.0,-1.1423,-1.1423,-1.1553,0.0,0.0,0.0,0.0,0.0,0.0,0.0,0.0,0.0,-1.2545,0.0,0.0,0.0,0.0,0.0,0.0,0.0,0.0,0.0,0.0,0.0,0.0,0.0,0.0,0.0,0.0,0.0,0.0,0.0,-1.7568,-1.7803,-1.7881,-1.8203,-1.8393,-1.8481,-1.8848,-1.9082,-1.916,-1.916,-1.9365,-1.9785,-1.9873,-2.0088,-2.0488,-2.0889,-2.1112,-2.122,-2.1953,-2.2314,-2.2412,-2.2789,-2.1743,-1.9796,-2.0855,-1.9252,-1.6244,-1.7318,-1.7552,-1.7225,-1.6204,-1.5784,-1.5784,-1.2905,-1.2905,0.0,0.0,0.0,0.0,0.0,0.0,0.0,0.0,0.0,0.0,0.0,0.0,0.0,0.0,0.0,0.0,-1.49,0.0,0.0,0.0,0.0,0.0,-1.1991,-1.2446,-1.2563,0.0,0.0,0.0,0.0,0.0,0.0,0.0,-1.0566,0.0,0.0,0.0,-1.0593,0.0,-1.0593,-1.0593,0.0,-1.0593,-1.0774,-1.1055,-1.1344,-1.1931,-1.2476,0.0,-1.2026,-1.2877,0.0,-1.2969,0.0,0.0,0.0,0.0,0.0,0.0,0.0,0.0,-1.3725,0.0,0.0,0.0,0.0,0.0,0.0,0.0,0.0,0.0,0.0,0.0,0.0,0.0,0.0,0.0,0.0,0.0,0.0,0.0,0.0,0.0,-1.7009,-1.7432,-1.75,-1.7686,-1.8057,-1.8125,-1.833,-1.8666,-1.8676,-1.888,-1.9355,-1.9727,-1.9941,-1.999,-2.043,-2.085,-2.12,-2.1298,-2.1551,-2.1982,-2.2402,-2.1821,-2.0587,-2.1104,-1.9807,-1.7505,-1.7638,-1.699,-1.6015,-1.5825,-1.5784,-1.5784,-1.2905,-1.2905,0.0,0.0,0.0,0.0,0.0,0.0,0.0,0.0,0.0,0.0,0.0,0.0,0.0,0.0,0.0,-1.5883,0.0,0.0,0.0,0.0,0.0,0.0,0.0,-1.2906,-1.2982,-1.2816,-1.2827,0.0,0.0,0.0,0.0,0.0,-1.1697,0.0,-1.1024,0.0,0.0,0.0,0.0,0.0,0.0,-1.1476,-1.165,-1.2088,-1.1586,-1.2179,-1.3127,0.0,-1.2682,0.0,0.0,0.0,0.0,0.0,0.0,0.0,0.0,0.0,0.0,0.0,0.0,0.0,-1.4366,0.0,-1.3467,0.0,0.0,0.0,0.0,0.0,0.0,0.0,0.0,0.0,0.0,0.0,0.0,0.0,0.0,0.0,0.0,0.0,0.0,0.0,-1.7246,-1.7461,-1.7637,-1.7881,-1.8086,-1.8237,-1.8237,-1.8603,-1.9277,-1.9463,-1.9805,-2.0293,-2.0517,-2.0703,-2.0859,-2.1073,-2.1298,-2.1543,-2.2217,-2.1831,-2.0743,-2.113,-2.0305,-1.8726,-1.8726,-1.7529,-1.5872,-1.6622,-1.6433,-1.5784,-1.3027,0.0,0.0,0.0,0.0,0.0,0.0,0.0,0.0,0.0,0.0,0.0,-1.6212,-1.6543,0.0,0.0,0.0,-1.6609,0.0,0.0,-1.5263,0.0,0.0,0.0,0.0,0.0,0.0,-1.3666,0.0,0.0,0.0,0.0,0.0,0.0,0.0,-1.2134,-1.1758,0.0,0.0,-1.2887,-1.1725,-1.2089,-1.3213,-1.2197,-1.2352,-1.2983,-1.2133,-1.2695,-1.3827,-1.3601,-1.3677,0.0,-1.4629,0.0,0.0,0.0,0.0,0.0,-1.5517,0.0,0.0,0.0,0.0,0.0,0.0,0.0,0.0,0.0,0.0,0.0,0.0,0.0,0.0,0.0,0.0,0.0,0.0,0.0,0.0,0.0,0.0,0.0,0.0,0.0,0.0,-1.6543,-1.6846,-1.7161,-1.7406,-1.7676,-1.7891,-1.8008,-1.8008,-1.8311,-1.8936,-1.917,-1.9637,-2.0253,-2.0498,-2.0605,-2.0615,-2.0898,-2.1055,-2.1094,-2.1836,-2.1744,-2.1081,-2.1477,-2.098,-2.0034,-2.0359,-1.8764,-1.6433,-1.7365,-1.7131,-1.6244,-1.3408,-1.3164,0.0,0.0,0.0,0.0,0.0,0.0,0.0,0.0,0.0,0.0,0.0,0.0,0.0,0.0,0.0,-1.7386,-1.7357,0.0,-1.585,0.0,0.0,-1.5352,0.0,0.0,0.0,0.0,0.0,0.0,0.0,0.0,0.0,0.0,0.0,-1.1507,-1.2901,-1.2135,-1.2266,-1.3009,-1.2948,-1.3425,-1.3995,0.0,-1.2469,-1.3355,-1.2979,0.0,0.0,-1.4971,-1.5138,0.0,0.0,0.0,0.0,0.0,0.0,0.0,0.0,0.0,0.0,-1.5061,0.0,0.0,0.0,0.0,-1.5528,0.0,0.0,0.0,0.0,0.0,0.0,-1.4873,0.0,0.0,0.0,0.0,0.0,0.0,0.0,0.0,0.0,0.0,0.0,-1.6085,-1.6124,-1.6515,-1.7334,-1.7393,-1.7588,-1.7998,-1.8008,-1.8018,-1.8047,-1.8877,-1.9297,-1.9336,-2.0204,-2.0605,-2.0605,-2.0615,-2.0625,-2.0644,-2.1074,-2.1473,-2.1892,-2.2321,-2.2,-2.1346,-2.2545,-2.0773,-1.7638,-1.7692,-1.7692,-1.7458,0.0,0.0,0.0,0.0,0.0,0.0,0.0,-1.4813,0.0,0.0,0.0,0.0,0.0,0.0,-1.8594,0.0,0.0,-1.7978,-1.7422,-1.6826,0.0,0.0,0.0,-1.5976,0.0,0.0,0.0,0.0,0.0,0.0,0.0,0.0,0.0,0.0,0.0,-1.3777,0.0,0.0,0.0,0.0,0.0,-1.4115,-1.3394,0.0,0.0,-1.3913,-1.3737,-1.433,0.0,-1.5895,-1.6149,-1.6219,-1.6862,-1.6193,-1.5376,-1.6315,-1.6149,0.0,0.0,0.0,-1.6496,-1.6086,0.0,0.0,0.0,0.0,0.0,0.0,0.0,0.0,0.0,0.0,0.0,-1.5225,-1.5322,0.0,0.0,0.0,0.0,0.0,0.0,0.0,0.0,0.0,0.0,-1.5615,-1.5928,-1.6222,-1.6525,-1.7103,-1.7451,-1.7588,-1.7871,-1.8281,-1.8848,-1.9141,-1.957,-2.0175,-2.0468,-2.0605,-2.0605,-2.0605,-2.0605,-2.0625,-2.1045,-2.1484,-2.1873,-2.149,-2.131,-2.1248,-2.0854,-1.9951,-1.891,-1.891,-1.7855,-1.6386,-1.3936,0.0,0.0,0.0,0.0,0.0,0.0,0.0,0.0,0.0,-1.7272,0.0,-1.9521,0.0,-1.9404,0.0,-1.9346,-1.8695,-1.7881,-1.7422,0.0,-1.6328,-1.6541,0.0,0.0,0.0,0.0,0.0,0.0,-1.5566,0.0,0.0,0.0,0.0,0.0,0.0,0.0,0.0,-1.4658,0.0,0.0,-1.4776,0.0,0.0,-1.4543,-1.4441,0.0,-1.529,-1.6276,-1.6881,-1.7104,-1.7207,-1.7794,-1.7157,-1.6298,-1.6932,-1.668,-1.6193,-1.6193,-1.6655,0.0,-1.6671,-1.6686,0.0,-1.7068,0.0,0.0,0.0,0.0,0.0,0.0,0.0,0.0,-1.541,-1.541,-1.541,0.0,-1.541,0.0,0.0,0.0,0.0,0.0,0.0,-1.541,-1.541,-1.5674,-1.5997,0.0,0.0,-1.7295,-1.7598,-1.7871,-1.835,-1.9053,-1.9209,-1.9639,-2.0332,-2.0527,-2.0605,-2.0605,-2.0605,-2.0605,-2.0576,-2.0464,-2.0666,-2.1034,-2.0218,-2.0123,-2.0428,-1.9756,-1.9222,-1.8864,-1.8864,-1.7576,-1.5784,0.0,0.0,0.0,0.0,-1.4551,0.0,0.0,0.0,-1.7256,0.0,-1.7915,-1.887,-1.9365,-1.9394,-1.9744,-2.0566,-2.0176,0.0,-1.8715,-1.8281,0.0,0.0,-1.6765,-1.6746,-1.6697,0.0,0.0,0.0,0.0,0.0,0.0,0.0,0.0,0.0,-1.3786,0.0,-1.5352,-1.4569,-1.4688,-1.541,-1.541,-1.5381,-1.5352,-1.541,-1.5217,-1.4974,-1.5419,-1.636,-1.7451,-1.7871,-1.8008,-1.8008,-1.8008,-1.8008,-1.8008,-1.8008,-1.8008,-1.8008,-1.8008,-1.8008,-1.7794,-1.6888,0.0,0.0,0.0,0.0,-1.79,0.0,0.0,0.0,0.0,0.0,0.0,-1.5391,-1.541,-1.541,-1.541,0.0,0.0,0.0,0.0,0.0,0.0,-1.541,-1.541,-1.541,-1.541,0.0,0.0,0.0,-1.7087,-1.7949,-1.7998,-1.8178,-1.8598,-1.9072,-1.9502,-1.9922,-2.04,-2.0605,-2.0605,-2.0605,-2.0605,-2.0527,-1.952,-1.9303,-1.9529,-1.8735,-1.863,-1.9037,-1.922,-1.8634,-1.7598,-1.7598,-1.685,-1.5784,-1.4793,-1.5322,-1.5733,0.0,-1.5391,-1.54,0.0,0.0,0.0,0.0,-1.9473,-2.0361,-2.1133,-2.0928,-2.0781,-2.1045,-2.0361,0.0,0.0,0.0,0.0,-1.7672,-1.7686,-1.735,-1.6716,-1.6697,0.0,-1.6095,0.0,0.0,-1.541,0.0,0.0,0.0,0.0,0.0,-1.5381,-1.5167,-1.5196,-1.541,-1.541,-1.505,0.0,0.0,-1.5683,-1.5451,-1.6154,-1.6841,-1.7451,-1.7871,-1.8008,-1.8008,-1.8008,-1.8008,-1.8008,-1.8008,-1.8008,-1.8008,-1.8008,-1.8008,-1.794,-1.7681,-1.7828,-1.794,0.0,0.0,0.0,0.0,0.0,0.0,0.0,0.0,0.0,0.0,0.0,0.0,0.0,0.0,0.0,-1.5889,0.0,0.0,0.0,-1.541,-1.541,-1.541,-1.541,0.0,0.0,0.0,0.0,-1.7529,-1.7842,-1.8178,-1.8598,-1.9072,-1.9502,-1.9922,-2.04,-2.0605,-2.0605,-2.0605,-2.0605,-2.0566,-2.0323,-1.9951,-1.9529,-1.8608,-1.801,-1.7643,-1.6986,-1.6567,-1.6292,-1.6292,-1.6062,-1.5784,-1.5332,0.0,0.0,-1.6387,0.0,0.0,-1.6904,0.0,0.0,-1.917,-2.0067,0.0,-2.0986,-2.0977,-2.0947,-2.0947,-2.0488,0.0,0.0,0.0,0.0,-1.8266,-1.8105,-1.7783,-1.7272,-1.7109,0.0,-1.6357,0.0,0.0,-1.541,0.0,0.0,0.0,0.0,-1.541,0.0,-1.541,-1.541,-1.541,-1.541,0.0,0.0,-1.5846,-1.6196,-1.6402,-1.6841,-1.7295,-1.7695,-1.793,-1.8008,-1.8008,-1.8008,-1.8008,-1.8008,-1.8008,-1.8008,-1.8008,-1.8008,-1.8008,-1.8008,-1.8008,-1.8008,-1.8008,-1.8008,-1.8008,-1.8008,0.0,0.0,0.0,0.0,0.0,0.0,0.0,0.0,0.0,0.0,0.0,0.0,0.0,0.0,0.0,0.0,0.0,-1.541,0.0,0.0,0.0,0.0,0.0,0.0,-1.7406,-1.7969,-1.8364,-1.8598,-1.9248,-1.9678,-1.9922,-2.04,-2.0605,-2.0605,-2.0605,-2.0605,-2.0566,-2.0079,-1.969,-1.9246,-1.803,-1.7272,-1.6862,-1.6113,-1.5784,-1.5784,-1.5784,-1.5784,-1.5784,0.0,0.0,0.0,0.0,0.0,0.0,0.0,-1.8652,0.0,-1.9404,0.0,-2.0586,-2.0059,-2.0391,-2.0664,-2.0605,0.0,-2.0449,-2.0029,-1.9551,-1.9121,-1.8705,-1.8237,-1.8008,-1.8008,-1.7598,0.0,0.0,0.0,0.0,0.0,0.0,0.0,0.0,0.0,0.0,0.0,-1.5469,-1.5498,0.0,-1.5566,-1.5811,-1.6193,-1.6242,-1.6741,-1.7425,-1.7451,-1.7705,-1.8008,-1.8008,-1.8008,-1.8008,-1.8008,-1.8008,-1.8008,-1.8008,-1.8008,-1.8008,-1.8008,-1.8008,-1.8008,-1.8008,-1.8008,-1.8008,-1.8008,-1.8008,-1.8008,-1.8008,-1.7715,-1.7451,0.0,0.0,0.0,0.0,0.0,0.0,0.0,0.0,0.0,0.0,0.0,0.0,0.0,0.0,0.0,0.0,0.0,0.0,0.0,0.0,0.0,-1.7406,-1.8144,-1.8578,-1.8685,0.0,-1.9883,-2.0,-2.0419,-2.0605,-2.0605,-2.0605,-2.0605,-2.0566,-1.9599,-1.9125,-1.8891,-1.7552,-1.6923,-1.6846,-1.6251,-1.6157,-1.6244,-1.592,-1.5927,-1.6015,0.0,0.0,0.0,0.0,0.0,-1.9385,-2.0057,-2.0214,-2.0292,-2.037,-2.1153,-2.1388,-2.0576,-2.085,-2.0967,-2.0635,-2.0605,0.0,0.0,0.0,0.0,-1.918,-1.8428,-1.8008,-1.8008,-1.7598,-1.7168,0.0,0.0,0.0,0.0,0.0,0.0,0.0,0.0,0.0,-1.5439,-1.5791,0.0,-1.6016,-1.6348,-1.6512,-1.6629,-1.7012,-1.7279,-1.7432,-1.7773,-1.7949,-1.8008,-1.8008,-1.8008,-1.8008,-1.8008,-1.8008,-1.8008,-1.8008,-1.8008,-1.8008,-1.8008,-1.8008,-1.8008,-1.8008,-1.8008,-1.8008,-1.8008,-1.8008,-1.8008,-1.8008,-1.7949,-1.7793,-1.7451,0.0,0.0,0.0,0.0,0.0,0.0,0.0,0.0,0.0,0.0,0.0,0.0,0.0,0.0,0.0,0.0,0.0,0.0,0.0,0.0,0.0,-1.7861,0.0,0.0,0.0,-1.9756,-2.0488,-2.0566,-2.0605,-2.0605,-2.0605,-2.0605,-2.0605,-2.0401,-1.9805,-1.8993,-1.8912,-1.8692,-1.8318,-1.7666,-1.8002,-1.858,-1.656,-1.648,-1.7225,0.0,0.0,0.0,0.0,0.0,0.0,0.0,-2.1435,0.0,-2.1319,-2.1261,-2.1075,-2.0654,-2.0762,-2.0801,-2.0625,-2.0605,-2.0605,-2.0605,-1.9766,-1.9287,-1.9287,-1.8467,0.0,-1.8008,-1.7598,-1.7168,-1.6697,0.0,0.0,0.0,0.0,0.0,0.0,0.0,-1.5752,0.0,0.0,0.0,-1.6436,-1.6609,-1.6833,-1.709,-1.7305,-1.7519,-1.7734,-1.7939,-1.8008,-1.8008,-1.8008,-1.8008,-1.8008,-1.8008,-1.8008,-1.8008,-1.8008,-1.8008,-1.8008,-1.8008,-1.8008,-1.8008,-1.8008,-1.8008,-1.8008,-1.8008,-1.8008,-1.8008,-1.8008,-1.8008,-1.7949,-1.7744,-1.7363,0.0,0.0,0.0,0.0,0.0,0.0,0.0,0.0,0.0,0.0,0.0,0.0,0.0,0.0,0.0,0.0,0.0,0.0,0.0,0.0,0.0,0.0,0.0,0.0,0.0,-1.995,-2.039,-2.0605,-2.0605,-2.0605,-2.0605,-2.0605,-2.0605,-2.0409,-2.0141,-2.008,-1.9705,-1.9069,-1.808,-1.8048,-1.8319,-1.6473,-1.6204,-1.6622,0.0,-1.9258,0.0,0.0,-2.0781,0.0,-2.1836,-2.2246,-2.2363,-2.1943,-2.1201,-2.0713,-2.0615,-2.0605,-2.0566,-2.0478,-2.0468,-2.0429,-2.0341,-1.958,-1.915,-1.915,-1.8418,-1.8008,-1.8008,-1.7686,-1.7305,0.0,0.0,0.0,0.0,0.0,0.0,0.0,0.0,0.0,0.0,0.0,-1.6833,-1.6853,-1.6931,-1.7217,-1.7519,-1.7519,-1.7715,-1.8008,-1.8008,-1.8008,-1.8008,-1.8008,-1.8008,-1.8008,-1.8008,-1.8008,-1.8008,-1.8008,-1.8008,-1.8008,-1.8008,-1.8008,-1.8008,-1.8008,-1.8008,-1.8008,-1.8008,-1.8008,-1.8008,-1.8008,-1.7939,-1.79,-1.7988,-1.7666,0.0,0.0,0.0,0.0,0.0,0.0,0.0,0.0,0.0,0.0,0.0,0.0,0.0,0.0,0.0,0.0,0.0,0.0,0.0,0.0,0.0,-1.8403,-1.8281,0.0,-1.9707,-1.957,-2.0282,-2.0605,-2.0605,-2.0703,-2.0752,-2.0752,-2.084,-2.1045,-2.1345,-2.1179,-2.0545,-1.9653,-1.8518,-1.8095,-1.7909,-1.6386,-1.5967,-1.6157,0.0,0.0,0.0,0.0,0.0,0.0,0.0,-2.2246,-2.2363,-2.1943,-2.1465,-2.1016,-2.0644,-2.0605,-2.0449,-2.001,-1.9971,-1.9814,-1.9434,-1.8965,-1.8666,-1.8666,-1.8252,-1.8008,-1.8008,-1.7969,-1.7744,0.0,0.0,0.0,0.0,0.0,0.0,0.0,0.0,0.0,0.0,-1.7139,-1.7324,-1.7363,-1.7734,-1.792,-1.7949,-1.7949,-1.7978,-1.8008,-1.8008,-1.8008,-1.8008,-1.8008,-1.8008,-1.8008,-1.8008,-1.8008,-1.8008,-1.8008,-1.8008,-1.8008,-1.8008,-1.8008,-1.8008,-1.8008,-1.8008,-1.8008,-1.8008,-1.8008,-1.8008,-1.8008,-1.7705,-1.7559,-1.7939,-1.7666,-1.7406,0.0,0.0,0.0,0.0,0.0,0.0,0.0,0.0,0.0,0.0,0.0,0.0,0.0,0.0,0.0,0.0,0.0,0.0,-1.7314,0.0,-1.8418,-1.916,-1.9287,-1.9717,-2.0488,-2.0566,-2.0605,-2.0615,-2.0986,-2.1132,-2.1151,-2.1592,-2.1787,-2.1855,-2.2188,-2.1635,-2.0491,-1.9681,-1.9314,-1.9039,-1.6655,-1.6527,-1.7365,0.0,0.0,0.0,0.0,0.0,0.0,0.0,-2.2402,-2.2266,-2.1582,-2.1307,-2.1132,-2.0986,-2.0723,-2.0429,-1.9951,-1.9912,-1.9736,-1.9316,-1.8841,-1.8598,-1.8598,-1.8198,-1.8008,-1.8008,-1.8008,-1.7803,0.0,0.0,0.0,0.0,0.0,0.0,0.0,0.0,-1.7119,-1.7148,-1.7578,-1.7764,-1.7773,-1.7939,-1.8008,-1.8008,-1.8008,-1.8008,-1.8008,-1.8008,-1.8008,-1.8008,-1.8008,-1.8008,-1.8008,-1.8008,-1.8008,-1.8008,-1.8008,-1.8008,-1.8008,-1.8008,-1.8008,-1.8008,-1.8008,-1.8008,-1.8008,-1.8008,-1.8008,-1.8008,-1.8008,-1.7676,-1.7432,-1.7607,-1.75,-1.7305,0.0,0.0,0.0,0.0,0.0,0.0,0.0,0.0,0.0,0.0,0.0,0.0,0.0,0.0,0.0,0.0,0.0,0.0,-1.7406,0.0,-1.8174,-1.8516,-1.9033,-1.9463,-1.9842,-2.0361,-2.0605,-2.0615,-2.1025,-2.1337,-2.165,-2.208,-2.1857,-2.122,-2.1631,-2.1076,-1.9875,-1.8808,-1.8411,-1.8226,-1.6426,-1.6103,-1.648,-2.2041,0.0,-2.1795,0.0,-2.2344,-2.2168,-2.2471,-2.2295,-2.1882,-2.1278,-2.1123,-2.1035,-2.1035,-2.0752,-2.038,-1.9775,-1.9727,-1.9492,-1.8945,-1.8623,-1.8422,-1.8422,-1.813,0.0,-1.8008,-1.8008,-1.7861,-1.7568,-1.7451,0.0,0.0,0.0,0.0,0.0,-1.7432,-1.7568,-1.7588,-1.7881,-1.8008,-1.8008,-1.8008,-1.8008,-1.8008,-1.8008,-1.8008,-1.8008,-1.8008,-1.8008,-1.8008,-1.8008,-1.8008,-1.8008,-1.8008,-1.8008,-1.8008,-1.8008,-1.8008,-1.8008,-1.8008,-1.8008,-1.8008,-1.8008,-1.8008,-1.8008,-1.8008,-1.8008,-1.8008,-1.8008,-1.7676,-1.7422,-1.7539,-1.7471,-1.7285,-1.6973,0.0,0.0,0.0,0.0,0.0,0.0,-1.5488,-1.5459,-1.5586,0.0,0.0,0.0,0.0,0.0,0.0,0.0,0.0,0.0,0.0,0.0,0.0,-1.8857,-1.9287,-1.9297,-2.0194,-2.0605,-2.0625,-2.0772,-2.1097,-2.1558,-2.1583,-2.1124,-2.0377,-2.0641,-2.0079,-1.891,-1.8048,-1.7458,-1.7037,-1.6109,-1.5784,-1.5784,-2.2422,-2.25,-2.2627,-2.3013,-2.274,-2.251,-2.251,-2.1756,-2.121,-2.119,-2.085,-2.0615,-2.0615,-2.0605,-2.0263,-1.9365,-1.9297,-1.8936,-1.8076,-1.8018,-1.8018,0.0,0.0,-1.8008,-1.8008,-1.8008,-1.8008,-1.8008,0.0,0.0,-1.7373,0.0,-1.7598,-1.7988,-1.7998,-1.8008,-1.8008,-1.8008,-1.8008,-1.8008,-1.8008,-1.8008,-1.8008,-1.8008,-1.8008,-1.8008,-1.8008,-1.8008,-1.8008,-1.8008,-1.8008,-1.8008,-1.8008,-1.8008,-1.8008,-1.8008,-1.8008,-1.8008,-1.8008,-1.8008,-1.8008,-1.8008,-1.8008,-1.8008,-1.8008,-1.8008,-1.8008,-1.8008,-1.7676,-1.751,-1.793,-1.7666,-1.7383,-1.7373,0.0,0.0,0.0,0.0,0.0,0.0,-1.5674,-1.5586,-1.6046,0.0,0.0,0.0,0.0,0.0,0.0,0.0,0.0,-1.7978,-1.8008,0.0,-1.8008,-1.8857,-1.9287,-1.9297,-2.0194,-2.0605,-2.0596,-2.0172,-2.0285,-2.0681,-1.9872,-1.9534,-1.9488,-1.9542,-1.8818,-1.7738,-1.7692,-1.6943,-1.5825,-1.5832,-1.5784,-1.5784,-2.2867,-2.2896,-2.2935,-2.3071,-2.2984,-2.2701,-2.2168,-2.1855,-2.1465,-2.0859,-2.0693,-2.0488,-2.0156,-2.0117,-1.9775,0.0,-1.8812,-1.8568,0.0,-1.8008,-1.8008,-1.8008,-1.8008,-1.8008,-1.8008,-1.8008,-1.8008,-1.8008,0.0,0.0,0.0,-1.7812,-1.7881,-1.8008,-1.8008,-1.8008,-1.8008,-1.8008,-1.8008,-1.8008,-1.8008,-1.8008,-1.8008,-1.8008,-1.8008,-1.8008,-1.8008,-1.8008,-1.8008,-1.8008,-1.8008,-1.8008,-1.8008,-1.8008,-1.8008,-1.8008,-1.8008,-1.8008,-1.8008,-1.8008,-1.8008,-1.8008,-1.8008,-1.8008,-1.8008,-1.8008,-1.8008,-1.8008,-1.7676,-1.7422,-1.7559,-1.7471,-1.7285,-1.695,-1.6794,0.0,0.0,0.0,0.0,0.0,-1.5968,-1.6035,0.0,-1.6365,0.0,0.0,0.0,0.0,0.0,0.0,0.0,0.0,-1.8008,0.0,-1.8403,-1.9004,-1.9434,-1.9727,-2.0293,-2.0918,-2.1475,-2.1358,-2.1688,-2.2267,-2.1203,-2.0711,-2.0621,-1.8948,-1.8549,-1.8864,-1.8002,-1.7956,-1.8303,-1.8303,-1.7809,-1.7084,-2.2828,-2.2857,-2.2808,-2.2695,-2.2666,-2.2432,-2.1748,-2.1494,-2.1231,-2.0674,-2.0458,-2.0215,-1.9941,-1.9592,0.0,-1.8646,-1.8754,-1.8633,-1.8047,-1.8008,-1.8008,-1.8008,-1.8008,-1.8008,-1.8008,-1.8008,0.0,-1.8008,-1.8008,-1.8008,-1.8008,-1.8008,-1.8008,-1.8008,-1.8008,-1.8008,-1.8008,-1.8008,-1.8008,-1.8008,-1.8008,-1.8008,-1.8008,-1.8008,-1.8008,-1.8008,-1.8008,-1.8008,-1.8008,-1.8008,-1.8008,-1.8008,-1.8008,-1.8008,-1.8008,-1.8008,-1.8008,-1.8008,-1.8008,-1.8008,-1.8008,-1.8008,-1.8008,-1.8008,-1.8008,-1.8008,-1.8008,-1.8008,-1.7803,-1.7617,-1.7617,-1.7617,-1.7422,-1.6794,-1.6697,-1.6482,-1.5908,0.0,0.0,0.0,0.0,0.0,0.0,-1.6794,-1.6629,0.0,0.0,0.0,0.0,0.0,0.0,-1.7998,-1.8164,0.0,-1.8598,-1.9228,-1.9736,-2.0166,-2.0771,-2.1348,-2.1894,-2.1614,-2.1736,-2.2133,-2.1096,-2.0621,-2.0531,-1.9001,-1.8818,-1.9451,-1.868,-1.8818,-1.9451,-1.8993,-1.8373,-1.7645,-2.2393,-2.2471,-2.2344,0.0,-2.1885,0.0,-2.1259,-2.0879,-2.0635,-2.0605,-2.0215,-1.9951,-1.9922,-1.9163,-1.8666,-1.8607,0.0,0.0,0.0,-1.8008,-1.8008,-1.8008,-1.8008,-1.8008,-1.8008,-1.8008,-1.8008,-1.8008,-1.8008,-1.8008,-1.8008,-1.8008,-1.8008,-1.8008,-1.8008,-1.8008,-1.8008,-1.8008,-1.8008,-1.8008,-1.8008,-1.8008,-1.8008,-1.8008,-1.8008,-1.8008,-1.8008,-1.8008,-1.8008,-1.8008,-1.8008,-1.8008,-1.8008,-1.8008,-1.8008,-1.8008,-1.8008,-1.8008,-1.8008,-1.8008,-1.8008,-1.8008,-1.8008,-1.8008,-1.8008,-1.8008,-1.8008,-1.8008,-1.8008,-1.8008,-1.8008,-1.8008,-1.7701,-1.6843,-1.6697,-1.6395,-1.5508,0.0,0.0,0.0,0.0,0.0,0.0,-1.7061,-1.6631,0.0,0.0,0.0,0.0,0.0,-1.7646,-1.8037,-1.8393,-1.8627,-1.8685,-1.9475,-2.0146,-2.0664,-2.1445,-2.1875,-2.1902,-2.1172,-2.082,-2.0822,-1.9979,-1.9679,-1.9724,-1.9588,-1.9579,-1.9716,-1.9588,-1.9534,-1.9497,-1.828,-1.7777,-1.7552,0.0,0.0,-2.2002,-2.1904,-2.1885,-2.1738,-2.1259,-2.1103,-2.0957,-2.0644,-2.0517,-2.0283,-1.9951,-1.9736,-1.9309,-1.8656,-1.8437,-1.8223,-1.8018,-1.8008,-1.8008,-1.8008,-1.8008,-1.8008,-1.8008,-1.8008,-1.8008,-1.8008,-1.8008,-1.8008,-1.8008,-1.8008,-1.8008,-1.8008,-1.8008,-1.8008,-1.8008,-1.8008,-1.8008,-1.8008,-1.8008,-1.8008,-1.8008,-1.8008,-1.8008,-1.8008,-1.8008,-1.8008,-1.8008,-1.8008,-1.8008,-1.8008,-1.8008,-1.8008,-1.8008,-1.8008,-1.8008,-1.8008,-1.8008,-1.8008,-1.8008,-1.8008,-1.8008,-1.8008,-1.8008,-1.8008,-1.8008,-1.8008,-1.8008,-1.8008,-1.8008,-1.8008,-1.7701,-1.6843,-1.6697,-1.6395,-1.5508,-1.5693,0.0,0.0,-1.6934,-1.7275,-1.7812,-1.7764,-1.7529,0.0,0.0,0.0,0.0,-1.793,-1.8354,-1.8451,-1.8549,-1.8909,-1.9609,-1.9814,-2.0303,-2.1074,-2.1249,-2.1728,-2.2363,-2.2154,-2.2236,-2.249,-2.1355,-2.1391,-2.2085,-2.0268,-2.0584,-2.2041,-2.0223,-2.0079,-2.0711,-1.9542,-1.8503,-1.7645,-2.1543,-2.1592,-2.1523,-2.1359,-2.1455,-2.1435,-2.0996,-2.0928,-2.0771,-2.0322,-2.0136,-1.993,-1.9648,-1.9277,-1.8936,-1.8627,-1.8393,-1.8213,-1.8018,-1.8008,-1.8008,-1.8008,-1.8008,-1.8008,-1.8008,-1.8008,-1.8008,-1.8008,-1.8008,-1.8008,-1.8008,-1.8008,-1.8008,-1.8008,-1.8008,-1.8008,-1.8008,-1.8008,-1.8008,-1.8008,-1.8008,-1.8008,-1.8008,-1.8008,-1.8008,-1.8008,-1.8008,-1.8008,-1.8008,-1.8008,-1.8008,-1.8008,-1.8008,-1.8008,-1.8008,-1.8008,-1.8008,-1.8008,-1.8008,-1.8008,-1.8008,-1.8008,-1.8008,-1.8008,-1.8008,-1.8008,-1.8008,-1.8008,-1.8008,-1.8008,-1.8008,-1.7852,-1.75,-1.6804,-1.6562,-1.6191,-1.5508,-1.5811,0.0,-1.6648,-1.7119,-1.7549,-1.7969,-1.8008,-1.7832,-1.7422,-1.7773,0.0,-1.7686,-1.8247,-1.8598,-1.8598,-1.8978,-1.9407,-1.9912,-2.0312,-2.0917,-2.1775,-2.1775,-2.2116,-2.275,-2.275,-2.2606,-2.2262,-2.2164,-2.1854,-2.14,-2.0629,-2.0764,-2.1311,-1.9997,-1.9898,-2.035,-1.9131,-1.828,-1.7692,-2.1055,-2.1093,-2.1016,-2.0674,-2.0879,-2.1006,-2.0664,-2.0605,-2.0478,-2.0059,-1.9697,-1.9453,-1.9394,-1.8682,-1.832,-1.8578,-1.8539,-1.8354,-1.8037,-1.8008,-1.8008,-1.8008,-1.8008,-1.8008,-1.8008,-1.8008,-1.8008,-1.8008,-1.8008,-1.8008,-1.8008,-1.8008,-1.8008,-1.8008,-1.8008,-1.8008,-1.8008,-1.8008,-1.8008,-1.8008,-1.8008,-1.8008,-1.8008,-1.8008,-1.8008,-1.8008,-1.8008,-1.8008,-1.8008,-1.8008,-1.8008,-1.8008,-1.8008,-1.8008,-1.8008,-1.8008,-1.8008,-1.8008,-1.8008,-1.8008,-1.8008,-1.8008,-1.8008,-1.8008,-1.8008,-1.8008,-1.8008,-1.8008,-1.8008,-1.8008,-1.8008,-1.7666,-1.7266,-1.6863,-1.6396,-1.5958,-1.5557,0.0,-1.6339,-1.6658,-1.7178,-1.7617,-1.7978,-1.8066,-1.7959,-1.7598,-1.7969,-1.8203,-1.8203,-1.8568,-1.8792,-1.8792,-1.9494,-1.9941,-2.001,-2.0752,-2.143,-2.2096,-2.2096,-2.227,-2.2545,-2.2545,-2.1996,-2.1069,-2.2129,-2.1409,-1.9579,-2.0621,-2.0522,-1.9761,-1.9579,-1.9625,-1.9633,-1.8411,-1.7956,-1.7956,-2.0693,-2.0713,-2.0683,-2.0615,-2.0664,-2.0683,-2.0615,-2.0605,-2.0576,-2.0507,-2.0449,-2.0263,-1.9853,-1.9385,-1.8965,-1.8627,-1.8276,-1.8076,-1.8018,-1.8008,-1.8008,-1.8008,-1.8008,-1.8008,-1.8008,-1.8008,-1.8008,-1.8008,-1.8008,-1.8008,-1.8008,-1.8008,-1.8008,-1.8008,-1.8008,-1.8008,-1.8008,-1.8008,-1.8008,-1.8008,-1.8008,-1.8008,-1.8008,-1.8008,-1.8008,-1.8008,-1.8008,-1.8008,-1.8008,-1.8008,-1.8008,-1.8008,-1.8008,-1.8008,-1.8008,-1.8008,-1.8008,-1.8008,-1.8008,-1.8008,-1.8008,-1.8008,-1.8008,-1.8008,-1.8008,-1.8008,-1.8008,-1.8008,-1.8008,-1.8008,-1.8008,-1.7666,-1.7396,-1.7295,-1.6623,-1.6065,-1.6007,0.0,-1.6619,-1.6697,-1.7399,-1.7939,-1.8008,-1.8295,-1.8481,-1.8412,-1.8848,-1.9092,-1.9092,-1.9492,-1.9717,-1.9717,-1.9844,-2.0088,-2.0498,-2.0644,-2.0595,-2.0389,-2.0389,-2.0252,-2.0042,-2.0042,-1.9943,-1.9807,-1.9988,-1.9861,-1.9488,-1.9716,-2.026,-2.0935,-1.9898,-2.0124,-2.089,-1.9679,-1.9222,-1.9222,-2.0605,-2.0605,-2.0605,-2.0605,-2.0605,-2.0527,-2.0254,-2.0215,-2.0137,-1.995,-1.9668,-1.9443,-1.9212,-1.8848,-1.8516,-1.8286,-1.8125,-1.8008,-1.8008,-1.8008,-1.8008,-1.8008,-1.8008,-1.8008,-1.8008,-1.8008,-1.8008,-1.8008,-1.8008,-1.8008,-1.8008,-1.8008,-1.8008,-1.8008,-1.8008,-1.8008,-1.8008,-1.8008,-1.8008,-1.8008,-1.8008,-1.8008,-1.8008,-1.8008,-1.8008,-1.8008,-1.8008,-1.8008,-1.8008,-1.8008,-1.8008,-1.8008,-1.8008,-1.8008,-1.8008,-1.8008,-1.8008,-1.8008,-1.8008,-1.8008,-1.8008,-1.8008,-1.8008,-1.8008,-1.8008,-1.8008,-1.8008,-1.8008,-1.8008,-1.8008,-1.8008,-1.7666,-1.7383,-1.7383,-1.6846,0.0,-1.6426,-1.6807,-1.708,-1.708,-1.7627,-1.8105,-1.8286,-1.849,-1.8695,-1.8965,-1.918,-1.9385,-1.9609,-1.9814,-2.0019,-2.0254,-2.0498,-2.0683,-2.0918,-2.1162,-2.1327,-2.1367,-2.1367,-2.1376,-2.1445,-2.1445,-2.1078,-2.0531,-2.1177,-2.0719,-1.9534,-2.0215,-2.0395,-2.026,-1.9716,-1.9852,-2.026,-1.9724,-1.9093,-1.8634,-2.0605,-2.0605,-2.0576,-2.0468,-2.0537,-2.0419,-1.9853,-1.9941,-1.9912,-1.9482,-1.9141,-1.89,-1.89,-1.8432,-1.812,-1.812,-1.8066,-1.8008,-1.8008,-1.8008,-1.8008,-1.8008,-1.8008,-1.8008,-1.8008,-1.8008,-1.8008,-1.8008,-1.8008,-1.8008,-1.8008,-1.8008,-1.8008,-1.8008,-1.8008,-1.8008,-1.8008,-1.8008,-1.8008,-1.8008,-1.8008,-1.8008,-1.8008,-1.8008,-1.8008,-1.8008,-1.8008,-1.8008,-1.8008,-1.8008,-1.8008,-1.8008,-1.8008,-1.8008,-1.8008,-1.8008,-1.8008,-1.8008,-1.8008,-1.8008,-1.8008,-1.8008,-1.8008,-1.8008,-1.8008,-1.8008,-1.8008,-1.8008,-1.8008,-1.8008,-1.8008,-1.7666,-1.7422,-1.751,0.0,-1.6736,0.0,-1.7168,-1.7383,-1.7383,-1.7754,-1.8174,-1.8559,-1.8695,-1.8965,-1.9404,-1.9521,-1.9727,-2.0049,-1.9831,-1.9745,-1.9825,-2.0612,-2.1093,-2.119,-2.1562,-2.1858,-2.2064,-2.2064,-2.2145,-2.2271,-2.2271,-2.1765,-2.0935,-2.1854,-2.1221,-1.9579,-2.0486,-2.0486,-1.9898,-1.9898,-2.0079,-2.0359,-2.0359,-1.9588,-1.8688,-2.0605,-2.0605,-2.0478,-2.0029,-2.0303,-2.0321,-1.9463,-2.0048,-2.04,-1.9932,-1.9844,-1.9787,-1.9787,-1.9046,-1.8559,-1.8559,-1.8232,-1.8008,-1.8008,-1.8008,-1.8008,-1.8008,-1.8008,-1.8008,-1.8008,-1.8008,-1.8008,-1.8008,-1.8008,-1.8008,-1.8008,-1.8008,-1.8008,-1.8008,-1.8008,-1.8008,-1.8008,-1.8008,-1.8008,-1.8008,-1.8008,-1.8008,-1.8008,-1.8008,-1.8008,-1.8008,-1.8008,-1.8008,-1.8008,-1.8008,-1.8008,-1.8008,-1.8008,-1.8008,-1.8008,-1.8008,-1.8008,-1.8008,-1.8008,-1.8008,-1.8008,-1.8008,-1.8008,-1.8008,-1.8008,-1.8008,-1.8008,-1.8008,-1.8008,-1.8008,-1.8008,-1.7666,-1.751,-1.79,0.0,0.0,-1.7275,-1.7363,-1.7383,-1.7383,-1.7754,-1.8174,-1.8559,-1.9004,-1.9414,-1.9834,-2.0244,-2.0527,-2.0556,-1.9592,-1.8603,-1.7577,-1.9548,-2.081,-2.119,-2.122,-2.1094,-2.0846,-2.0846,-2.0483,-1.9761,-1.9761,-1.9724,-1.9625,-1.9716,-1.967,-1.9497,-1.9579,-2.026,-2.1159,-2.1159,-2.1845,-2.2818,-2.2818,-2.2085,-2.1069,-2.0605,-2.0283,-2.0019,-1.9932,-1.9697,-1.9375,-1.8955,-1.916,-1.9307,-1.9104,-1.9085,-1.9192,-1.9502,-1.8958,-1.8598,-1.8598,-1.8217,-1.8008,-1.8008,-1.8008,-1.8008,-1.8008,-1.8008,-1.8008,-1.8008,-1.8008,-1.8008,-1.8008,-1.8008,-1.8008,-1.8008,-1.8008,-1.8008,-1.8008,-1.8008,-1.8008,-1.8008,-1.8008,-1.8008,-1.8008,-1.8008,-1.8008,-1.8008,-1.8008,-1.8008,-1.8008,-1.8008,-1.8008,-1.8008,-1.8008,-1.8008,-1.8008,-1.8008,-1.8008,-1.8008,-1.8008,-1.8008,-1.8008,-1.8008,-1.8008,-1.8008,-1.8008,-1.8008,-1.8008,-1.8008,-1.8008,-1.8008,-1.8008,-1.8008,-1.8008,-1.8008,-1.7881,-1.791,-1.8295,0.0,-1.8032,-1.8506,-1.8564,-1.8564,-1.8564,-1.8467,-1.8637,-1.9329,-1.9346,-1.958,-2.0264,-2.0507,-2.0605,-2.0605,-1.9559,-1.8479,-1.7334,-1.8333,-1.9308,-2.0214,-2.1409,-2.1926,-2.184,-2.2053,-2.1662,-2.0621,-2.14,-2.0908,-1.9542,-2.0305,-2.0215,-1.9497,-1.9497,-2.0215,-2.1293,-2.1293,-2.1569,-2.1987,-2.1987,-2.0764,-1.9093,-2.0605,-2.0254,-1.998,-1.9922,-1.9639,-1.9287,-1.8896,-1.9036,-1.9189,-1.9017,-1.8997,-1.9199,-1.9639,-1.918,-1.8812,-1.8812,-1.8412,-1.812,-1.8018,-1.8008,-1.8008,-1.8008,-1.8008,-1.8008,-1.8008,-1.8008,-1.8008,-1.8008,-1.8008,-1.8008,-1.8008,-1.8008,-1.8008,-1.8008,-1.8008,-1.8008,-1.8008,-1.8008,-1.8008,-1.8008,-1.8008,-1.8008,-1.8008,-1.8008,-1.8008,-1.8008,-1.8008,-1.8008,-1.8008,-1.8008,-1.8008,-1.8008,-1.8008,-1.8008,-1.8008,-1.8008,-1.8008,-1.8008,-1.8008,-1.8008,-1.8008,-1.8008,-1.8008,-1.8008,-1.8008,-1.8008,-1.8047,-1.8149,-1.8178,-1.8217,-1.8389,-1.8408,-1.8506,-1.8754,-1.8812,-1.8945,-1.9248,-1.9287,-1.9287,-1.9287,-1.9023,-1.9085,-1.9844,-1.9648,-1.9785,-2.0546,-2.0605,-2.044,-2.0118,-1.9402,-1.8571,-1.7548,-1.7928,-1.8752,-1.9987,-2.0891,-2.1401,-2.1453,-2.181,-2.1543,-2.0755,-2.1578,-2.1087,-1.9542,-2.0395,-2.026,-1.9497,-1.9497,-1.9988,-2.0747,-2.0747,-2.0747,-2.0747,-2.0747,-1.9679,-1.828,-2.0605,-2.0605,-2.0458,-1.999,-2.0273,-2.0312,-1.9414,-2.0048,-2.0439,-1.9971,-1.9912,-2.0078,-2.0546,-1.9805,-1.9287,-1.9287,-1.8851,-1.8422,-1.8037,-1.8008,-1.8008,-1.8008,-1.8008,-1.8008,-1.8008,-1.8008,-1.8008,-1.8008,-1.8008,-1.8008,-1.8008,-1.8008,-1.8008,-1.8008,-1.8008,-1.8008,-1.8008,-1.8008,-1.8008,-1.8008,-1.8008,-1.8008,-1.8008,-1.8008,-1.8008,-1.8008,-1.8008,-1.8008,-1.8008,-1.8008,-1.8008,-1.8008,-1.8008,-1.8008,-1.8008,-1.8008,-1.8008,-1.8008,-1.8008,-1.8008,-1.8018,-1.8008,-1.8008,-1.8008,-1.8018,-1.8018,-1.8135,-1.852,-1.8598,-1.8734,-1.9209,-1.9287,-1.9287,-1.9287,-1.9287,-1.9297,-1.9297,-1.9297,-1.9297,-1.9297,-1.9297,-1.9453,-1.9883,-1.9912,-2.0098,-2.0566,-2.0605,-2.0118,-1.9076,-1.9006,-1.8695,-1.8037,-1.864,-1.9616,-2.0871,-1.957,-1.9004,-1.9146,-1.9414,-1.9542,-1.9488,-1.9542,-1.9542,-1.9497,-1.9488,-1.9497,-1.9497,-1.9497,-1.9497,-1.9488,-1.9488,-1.9488,-1.9488,-1.9488,-1.9497,-1.9497,-2.0605,-2.0312,-2.0068,-1.9932,-1.9775,-1.958,-1.9326,-1.9502,-1.9619,-1.9492,-1.9727,-1.9961,-2.0088,-1.9883,-1.9727,-1.9727,-1.9017,-1.8422,-1.8037,-1.8008,-1.8008,-1.8008,-1.8008,-1.8008,-1.8008,-1.8008,-1.8008,-1.8008,-1.8008,-1.8008,-1.8008,-1.8008,-1.8008,-1.8008,-1.8008,-1.8008,-1.8008,-1.8008,-1.8008,-1.8008,-1.8008,-1.8008,-1.8008,-1.8008,-1.8008,-1.8008,-1.8008,-1.8008,-1.8008,-1.8008,-1.8008,-1.8008,-1.8008,-1.8008,-1.8008,-1.8008,-1.8008,-1.8008,-1.8008,-1.8223,-1.8344,-1.8086,-1.8008,-1.8052,-1.8344,-1.8412,-1.8451,-1.8578,-1.8841,-1.9043,-1.8822,-1.9082,-1.9385,-1.9678,-1.9727,-1.9834,-2.0184,-2.0224,-2.0224,-2.0224,-1.9912,-1.9893,-2.037,-2.0088,-2.0098,-2.0566,-2.0605,-2.0118,-1.9076,-1.9259,-1.8968,-1.8046,-1.8398,-1.8803,-1.9264,-2.0413,-2.1304,-2.1907,-2.1985,-2.1578,-2.08,-2.1632,-2.1087,-1.9542,-2.0395,-2.026,-1.9497,-1.9497,-1.9988,-2.0755,-2.0755,-2.0755,-2.0755,-2.0755,-2.0215,-1.9497,-2.0605,-2.0352,-2.0117,-1.9941,-1.9707,-1.9482,-1.9307,-1.9287,-1.9346,-1.9512,-1.9756,-1.998,-2.0156,-2.0019,-1.9844,-1.9678,-1.8887,-1.8247,-1.8027,-1.8008,-1.8008,-1.8008,-1.8008,-1.8008,-1.8008,-1.8008,-1.8008,-1.8008,-1.8008,-1.8008,-1.8008,-1.8008,-1.8008,-1.8008,-1.8008,-1.8008,-1.8008,-1.8008,-1.8008,-1.8008,-1.8008,-1.8008,-1.8008,-1.8008,-1.8008,-1.8008,-1.8008,-1.8008,-1.8008,-1.8008,-1.8008,-1.8008,-1.8008,-1.8008,-1.8008,-1.8008,-1.8008,-1.8008,-1.8008,-1.8159,-1.8334,-1.8247,-1.8389,-1.8584,-1.8838,-1.8896,-1.8909,-1.9075,-1.9346,-1.9512,-1.9414,-1.9619,-1.9873,-2.0127,-2.0176,-2.0264,-2.0566,-2.0605,-2.0605,-2.0605,-2.0332,-2.0273,-2.0576,-2.0322,-2.0283,-2.0586,-2.0206,-1.9713,-1.9182,-1.9367,-1.9132,-1.8334,-1.8339,-1.8512,-1.8968,-2.0101,-2.0703,-2.0758,-2.0371,-2.0079,-1.9898,-2.0638,-2.0449,-1.9542,-2.026,-2.0169,-1.9497,-1.9497,-1.9943,-2.0576,-2.0576,-2.0576,-2.0576,-2.0576,-2.044,-2.0215,-2.0605,-2.0605,-2.0468,-1.999,-1.9912,-1.9775,-1.9346,-1.9287,-1.9424,-1.9805,-1.9853,-2.001,-2.0449,-2.0098,-1.9707,-1.9316,-1.8535,-1.8047,-1.8008,-1.8008,-1.8008,-1.8008,-1.8008,-1.8008,-1.8008,-1.8008,-1.8008,-1.8008,-1.8008,-1.8008,-1.8008,-1.8008,-1.8008,-1.8008,-1.8008,-1.8008,-1.8008,-1.8008,-1.8008,-1.8008,-1.8008,-1.8008,-1.8008,-1.8008,-1.8008,-1.8008,-1.8008,-1.8008,-1.8008,-1.8008,-1.8008,-1.8008,-1.8008,-1.8008,-1.8008,-1.8008,-1.8008,-1.8018,-1.8057,-1.8096,-1.8223,-1.8607,-1.9082,-1.9394,-1.9346,-1.9346,-1.9453,-1.9834,-1.9941,-2.0078,-2.0478,-2.0576,-2.0605,-2.0605,-2.0605,-2.0605,-2.0605,-2.0605,-2.0605,-2.0605,-2.0605,-2.0605,-2.0605,-2.0605,-2.0605,-2.0605,-1.9715,-1.9276,-1.9512,-1.9629,-1.9488,-1.9098,-1.8752,-1.8971,-1.9798,-1.9133,-1.8337,-1.7387,-1.6514,-1.6756,-1.787,-1.787,-1.8457,-1.9497,-1.9497,-1.9534,-1.967,-1.967,-1.9716,-1.9815,-1.9815,-1.9815,-1.9815,-1.9815,-2.0531,-2.1436,-2.0605,-2.0605,-2.0468,-1.999,-1.9912,-1.9775,-1.9346,-1.9287,-1.9316,-1.9414,-1.9424,-1.9463,-1.9551,-1.9482,-1.9385,-1.9297,-1.8809,-1.8325,-1.8037,-1.8008,-1.8008,-1.8008,-1.8008,-1.8008,-1.8008,-1.8008,-1.8008,-1.8008,-1.8008,-1.8008,-1.8008,-1.8008,-1.8008,-1.8008,-1.8008,-1.8008,-1.8008,-1.8008,-1.8008,-1.8008,-1.8008,-1.8008,-1.8008,-1.8008,-1.8008,-1.8008,-1.8008,-1.8008,-1.8008,-1.8008,-1.8008,-1.8008,-1.8008,-1.8008,-1.8008,-1.8008,-1.8008,-1.8086,-1.8373,-1.875,-1.9111,-1.9531,-1.9971,-2.0233,-1.9853,-1.9775,-1.9805,-1.9893,-2.0185,-2.039,-2.0098,-2.0332,-2.0605,-2.0605,-2.0605,-2.0605,-2.0605,-2.0605,-2.0605,-2.0605,-2.0605,-2.0605,-2.0605,-2.0605,-2.0605,-2.0605,-2.0691,-2.0609,-2.035,-2.1291,-2.1635,-2.124,-2.1457,-2.1815,-2.2315,-1.998,-1.8868,-1.9009,-1.8816,-1.8856,-1.9093,-1.9093,-1.9268,-1.9497,-1.9497,-2.0034,-2.089,-2.089,-2.1489,-2.2315,-2.2315,-2.2315,-2.2315,-2.2315,-2.2501,-2.258,-2.0605,-2.0605,-2.04,-1.9727,-1.9619,-1.9404,-1.8779,-1.8682,-1.875,-1.8955,-1.8984,-1.9053,-1.9268,-1.9102,-1.8896,-1.8691,-1.8467,-1.8208,-1.8027,-1.8008,-1.8008,-1.8008,-1.8008,-1.8008,-1.8008,-1.8008,-1.8008,-1.8008,-1.8008,-1.8008,-1.8008,-1.8008,-1.8008,-1.8008,-1.8008,-1.8008,-1.8008,-1.8008,-1.8008,-1.8008,-1.8008,-1.8008,-1.8008,-1.8008,-1.8008,-1.8008,-1.8008,-1.8008,-1.8008,-1.8008,-1.8008,-1.8008,-1.8008,-1.8008,-1.8008,-1.8008,-1.8154,-1.8325,-1.8539,-1.8955,-1.9394,-1.9814,-2.0088,-2.0254,-2.0225,-2.0225,-2.0225,-2.0225,-2.0449,-2.0537,-2.0273,-2.0449,-2.0605,-2.0605,-2.0605,-2.0605,-2.0605,-2.0605,-2.0605,-2.0605,-2.0605,-2.0605,-2.0605,-2.0118,-2.004,-2.0566,-2.052,-2.0323,-2.0057,-2.0855,-2.1042,-2.0427,-2.0625,-2.0958,-2.14,-1.9892,-1.9261,-1.9497,-1.8303,-1.8349,-1.9497,-1.9497,-2.0133,-2.1221,-2.1221,-2.1587,-2.2173,-2.2173,-2.2536,-2.3091,-2.3091,-2.3091,-2.3091,-2.3091,-2.3091,-2.3003,-2.0605,-2.0605,-2.0351,-1.9531,-1.9336,-1.9023,-1.8232,-1.8057,-1.8135,-1.8451,-1.849,-1.8662,-1.9033,-1.875,-1.8354,-1.8037,-1.8008,-1.8008,-1.8008,-1.8008,-1.8008,-1.8008,-1.8008,-1.8008,-1.8008,-1.8008,-1.8008,-1.8008,-1.8008,-1.8008,-1.8008,-1.8008,-1.8008,-1.8008,-1.8008,-1.8008,-1.8008,-1.8008,-1.8008,-1.8008,-1.8008,-1.8008,-1.8008,-1.8008,-1.8008,-1.8008,-1.8008,-1.8008,-1.8008,-1.8008,-1.8008,-1.8008,-1.8008,-1.8057,-1.8081,-1.8081,-1.8383,-1.8724,-1.8802,-1.9121,-1.9502,-1.9922,-2.0078,-2.0215,-2.0537,-2.0605,-2.0605,-2.0605,-2.0605,-2.0605,-2.0605,-2.0664,-2.0693,-2.0615,-2.0674,-2.0693,-2.0615,-2.0674,-2.0684,-2.0684,-2.0781,-2.083,-2.083,-2.0021,-1.9853,-2.0752,-2.0357,-1.9976,-1.9716,-2.0185,-2.0054,-1.9243,-1.9311,-1.9567,-2.003,-1.9805,-1.9748,-1.9761,-1.7522,-1.7522,-1.9497,-1.9497,-2.0584,-2.2501,-2.2501,-2.2589,-2.2775,-2.2775,-2.2906,-2.3091,-2.3091,-2.3091,-2.3091,-2.3091,-2.3091,-2.3047,-2.0605,-2.0605,-2.0449,-1.9912,-1.9531,-1.9121,-1.8588,-1.8208,-1.8037,-1.8052,-1.8096,-1.8115,-1.8174,-1.8135,-1.8076,-1.8018,-1.8008,-1.8008,-1.8008,-1.8008,-1.8008,-1.8008,-1.8008,-1.8008,-1.8008,-1.8008,-1.8008,-1.8008,-1.8008,-1.8008,-1.8008,-1.8008,-1.8008,-1.8008,-1.8008,-1.8008,-1.8008,-1.8008,-1.8008,-1.8008,-1.8008,-1.8008,-1.8008,-1.8008,-1.8008,-1.8008,-1.8008,-1.8008,-1.8008,-1.8008,-1.8008,-1.8008,-1.8008,-1.8227,-1.852,-1.852,-1.8857,-1.9277,-1.9639,-1.9785,-1.9932,-2.041,-2.0771,-2.0967,-2.0644,-2.0605,-2.0605,-2.0605,-2.0605,-2.0605,-2.0605,-2.0879,-2.1016,-2.0664,-2.0889,-2.1006,-2.0664,-2.0898,-2.1103,-2.1103,-2.1475,-2.1709,-2.1709,-2.1576,-2.1586,-2.1709,-2.1964,-2.1752,-2.0978,-2.1723,-2.1765,-2.0919,-2.1253,-2.1686,-2.2098,-2.1067,-2.0695,-2.1025,-1.967,-1.9177,-1.9497,-1.9497,-1.9679,-1.9997,-1.9997,-2.0576,-2.1525,-2.1525,-2.2173,-2.3091,-2.3091,-2.3091,-2.3091,-2.3091,-2.3091,-2.296,-2.0605,-2.041,-2.0068,-1.9639,-1.9209,-1.8744,-1.8315,-1.8091,-1.8008,-1.8008,-1.8008,-1.8008,-1.8008,-1.8008,-1.8008,-1.8008,-1.8008,-1.8008,-1.8008,-1.8008,-1.8008,-1.8008,-1.8008,-1.8008,-1.8008,-1.8008,-1.8008,-1.8008,-1.8008,-1.8008,-1.8008,-1.8008,-1.8008,-1.8008,-1.8008,-1.8008,-1.8008,-1.8008,-1.8008,-1.8008,-1.8008,-1.8008,-1.8008,-1.8008,-1.8008,-1.8008,-1.8008,-1.8008,-1.8008,-1.8008,-1.8008,-1.8047,-1.8247,-1.8451,-1.8646,-1.8926,-1.9307,-1.9678,-1.9863,-2.0088,-2.0322,-2.0556,-2.0713,-2.0869,-2.0928,-2.0742,-2.0605,-2.0605,-2.0762,-2.0937,-2.0937,-2.1299,-2.1533,-2.1378,-2.1269,-2.121,-2.1299,-2.1269,-2.1288,-2.1572,-2.1768,-2.1885,-2.1885,-2.1885,-2.1885,-2.1885,-2.2275,-2.2246,-2.1631,-2.2178,-2.2334,-2.1921,-2.2139,-2.2441,-2.2818,-2.2312,-2.2127,-2.2306,-2.1765,-2.1177,-2.0531,-2.0531,-2.0845,-2.1498,-2.1498,-2.181,-2.2306,-2.2306,-2.2633,-2.3091,-2.3091,-2.3091,-2.3091,-2.3091,-2.3091,-2.3003]},{"header":{"parameterUnit":"m.s-1","parameterCategory":1,"la1":30.6,"la2":28.766,"lo1":-90.7593,"lo2":-88.6598,"dy":0.0162,"dx":0.0183,"nx":116,"ny":114,"refTime":"2023-07-29T06:00:00:Z","depth":0,"parameterNumber":3,"parameterNumberName":"V-component_of_WINDS"},"data":[0.0,0.0,0.0,0.0,0.0,0.0,0.0,0.0,0.0,0.0,0.0,0.0,0.0,0.0,0.0,0.0,0.0,0.0,0.0,0.0,0.0,0.0,0.0,0.0,0.0,0.0,0.0,0.0,0.0,0.0,0.0,0.0,0.0,0.0,0.0,0.0,0.0,0.0,0.0,0.0,0.0,0.0,0.0,0.0,0.0,0.0,0.0,0.0,0.0,0.0,0.0,0.0,0.0,0.0,0.0,0.0,0.0,0.0,0.0,0.0,0.0,0.0,0.0,0.0,0.0,0.0,0.0,0.0,0.0,0.0,0.0,0.0,0.0,0.0,0.0,0.0,0.0,0.0,0.0,0.0,0.0,0.0,0.0,0.0,0.0,0.0,0.0,0.0,0.0,0.0,0.0,0.0,0.0,0.0,0.0,0.0,0.0,0.0,0.0,0.0,0.0,0.0,0.0,0.0,0.0,0.0,0.0,0.0,0.0,0.0,0.0,0.0,0.0,0.0,0.0,0.0,0.0,0.0,0.0,0.0,0.0,0.0,0.0,0.0,0.0,0.0,0.0,0.0,0.0,0.0,0.0,0.0,0.0,0.0,0.0,0.0,0.0,0.0,0.0,0.0,0.0,0.0,0.0,0.0,0.0,0.0,0.0,0.0,0.0,0.0,0.0,0.0,0.0,0.0,0.0,0.0,0.0,0.0,0.0,0.0,0.0,0.0,0.0,0.0,0.0,0.0,0.0,0.0,0.0,0.0,0.0,0.0,0.0,0.0,0.0,0.0,0.0,0.0,0.0,0.0,0.0,0.0,0.0,0.0,0.0,0.0,0.0,0.0,0.0,0.0,0.0,0.0,0.0,0.0,0.0,0.0,0.0,0.0,0.0,0.0,0.0,0.0,0.0,0.0,0.0,0.0,0.0,0.0,0.0,0.0,0.0,0.0,0.0,0.0,0.0,0.0,0.0,0.0,0.0,0.0,0.0,0.0,0.0,0.0,0.0,0.0,0.0,0.0,0.0,0.0,0.0,0.0,0.0,0.0,0.0,0.0,0.0,0.0,0.0,0.0,0.0,0.0,0.0,0.0,0.0,0.0,0.0,0.0,0.0,0.0,0.0,0.0,0.0,0.0,0.0,0.0,0.0,0.0,0.0,0.0,0.0,0.0,0.0,0.0,0.0,0.0,0.0,0.0,0.0,0.0,0.0,0.0,0.0,0.0,0.0,0.0,0.0,0.0,0.0,0.0,0.0,0.0,0.0,0.0,0.0,0.0,0.0,0.0,0.0,0.0,0.0,0.0,0.0,0.0,0.0,0.0,0.0,0.0,0.0,0.0,0.0,0.0,0.0,0.0,0.0,0.0,0.0,0.0,0.0,0.0,0.0,0.0,0.0,0.0,0.0,0.0,0.0,0.0,0.0,0.0,0.0,0.0,0.0,0.0,0.0,0.0,0.0,0.0,0.0,0.0,0.0,0.0,0.0,0.0,0.0,0.0,0.0,0.0,0.0,0.0,0.0,0.0,0.0,0.0,0.0,0.0,0.0,0.0,0.0,0.0,0.0,0.0,0.0,0.0,0.0,0.0,0.0,0.0,0.0,0.0,0.0,0.0,0.0,0.0,0.0,0.0,0.0,0.0,0.0,0.0,0.0,0.0,0.0,0.0,0.0,0.0,0.0,0.0,0.0,0.0,0.0,0.0,0.0,0.0,0.0,0.0,0.0,0.0,0.0,0.0,0.0,0.0,0.0,0.0,0.0,0.0,0.0,0.0,0.0,0.0,0.0,0.0,0.0,0.0,0.0,0.0,0.0,0.0,0.0,0.0,0.0,0.0,0.0,0.0,0.0,0.0,0.0,0.0,0.0,0.0,0.0,0.0,0.0,0.0,0.0,0.0,0.0,0.0,0.0,0.0,0.0,0.0,0.0,0.0,0.0,0.0,0.0,0.0,0.0,0.0,0.0,0.0,0.0,0.0,0.0,0.0,0.0,0.0,0.0,0.0,0.0,0.0,0.0,0.0,0.0,0.0,0.0,0.0,0.0,0.0,0.0,0.0,0.0,0.0,0.0,0.0,0.0,0.0,0.0,0.0,0.0,0.0,0.0,0.0,0.0,0.0,0.0,0.0,0.0,0.0,0.0,0.0,0.0,0.0,0.0,0.0,0.0,0.0,0.0,0.0,0.0,0.0,0.0,0.0,0.0,0.0,0.0,0.0,0.0,0.0,0.0,0.0,0.0,0.0,0.0,0.0,0.0,0.0,0.0,0.0,0.0,0.0,0.0,0.0,0.0,0.0,0.0,0.0,0.0,0.0,0.0,0.0,0.0,0.0,0.0,0.0,0.0,0.0,0.0,0.0,0.0,0.0,0.0,0.0,0.0,0.0,0.0,0.0,0.0,0.0,0.0,0.0,0.0,0.0,0.0,0.0,0.0,0.0,0.0,0.0,0.0,0.0,0.0,0.0,0.0,0.0,0.0,0.0,0.0,0.0,0.0,0.0,0.0,0.0,0.0,0.0,0.0,0.0,0.0,0.0,0.0,0.0,0.0,0.0,0.0,0.0,0.0,0.0,0.0,0.0,0.0,0.0,0.0,0.0,0.0,0.0,0.0,0.0,0.0,0.0,0.0,0.0,0.0,0.0,0.0,0.0,0.0,0.0,0.0,0.0,0.0,0.0,0.0,0.0,0.0,0.0,0.0,0.0,0.0,0.0,0.0,0.0,0.0,0.0,0.0,0.0,0.0,0.0,0.0,0.0,0.0,0.0,0.0,0.0,0.0,0.0,0.0,0.0,0.0,0.0,0.0,0.0,0.0,0.0,0.0,0.0,0.0,0.0,0.0,0.0,0.0,0.0,0.0,0.0,0.0,0.0,0.0,0.0,0.0,0.0,0.0,0.0,0.0,0.0,0.0,0.0,0.0,0.0,0.0,0.0,0.0,0.0,0.0,0.0,0.0,0.0,0.0,0.0,0.0,0.0,0.0,0.0,0.0,0.0,0.0,0.0,0.0,0.0,0.0,0.0,0.0,0.0,0.0,0.0,0.0,0.0,0.0,0.0,0.0,0.0,0.0,0.0,0.0,0.0,0.0,0.0,0.0,0.0,0.0,0.0,0.0,0.0,0.0,0.0,0.0,0.0,0.0,0.0,0.0,0.0,0.0,0.0,0.0,0.0,0.0,0.0,0.0,0.0,0.0,0.0,0.0,0.0,0.0,0.0,0.0,0.0,0.0,0.0,0.0,0.0,0.0,0.0,0.0,0.0,0.0,0.0,0.0,0.0,0.0,0.0,0.0,0.0,0.0,0.0,0.0,0.0,0.0,0.0,0.0,0.0,0.0,0.0,0.0,0.0,0.0,0.0,0.0,0.0,0.0,0.0,0.0,0.0,0.0,0.0,0.0,0.0,0.0,0.0,0.0,0.0,0.0,0.0,0.0,0.0,0.0,0.0,0.0,0.0,0.0,0.0,0.0,0.0,0.0,0.0,0.0,0.0,0.0,0.0,0.0,0.0,0.0,0.0,0.0,0.0,0.0,0.0,0.0,0.0,0.0,0.0,0.0,0.0,0.0,0.0,0.0,0.0,0.0,0.0,0.0,0.0,0.0,0.0,0.0,0.0,0.0,0.0,0.0,0.0,0.0,0.0,0.0,0.0,0.0,0.0,0.0,0.0,0.0,0.0,0.0,0.0,0.0,0.0,0.0,0.0,0.0,0.0,0.0,0.0,0.0,0.0,0.0,0.0,0.0,0.0,0.0,0.0,0.0,0.0,0.0,0.0,0.0,0.0,0.0,0.0,0.0,0.0,0.0,0.0,0.0,0.0,0.0,0.0,0.0,0.0,0.0,0.0,0.0,0.0,0.0,0.0,0.0,0.0,0.0,0.0,0.0,0.0,0.0,0.0,0.0,0.0,0.0,0.0,0.0,0.0,0.0,0.0,0.0,0.0,0.0,0.0,0.0,0.0,0.0,0.0,0.0,0.0,0.0,0.0,0.0,0.0,0.0,0.0,0.0,0.0,0.0,0.0,0.0,0.0,0.0,0.0,0.0,0.0,0.0,0.0,0.0,0.0,0.0,0.0,0.0,0.0,0.0,0.0,0.0,0.0,0.0,0.0,0.0,0.0,0.0,0.0,0.0,0.0,0.0,0.0,0.0,0.0,0.0,0.0,0.0,0.0,0.0,0.0,0.0,0.0,0.0,0.0,0.0,0.0,0.0,0.0,0.0,0.0,0.0,0.0,0.0,0.0,0.0,0.0,0.0,0.0,0.0,0.0,0.0,0.0,0.0,0.0,0.0,0.0,0.0,0.0,0.0,0.0,0.0,0.0,0.0,0.0,0.0,0.0,0.0,0.0,0.0,0.0,0.0,0.0,0.0,0.0,0.0,0.0,0.0,0.0,0.0,0.0,0.0,0.0,0.0,0.0,0.0,0.0,0.0,0.0,0.0,0.0,0.0,0.0,0.0,0.0,0.0,0.0,0.0,0.0,0.0,0.0,0.0,0.0,0.0,0.0,0.0,0.0,0.0,0.0,0.0,0.0,0.0,0.0,0.0,0.0,0.0,0.0,0.0,0.0,0.0,0.0,0.0,0.0,0.0,0.0,0.0,0.0,0.0,0.0,0.0,0.0,0.0,0.0,0.0,0.0,0.0,0.0,0.0,0.0,0.0,0.0,0.0,0.0,0.0,0.0,0.0,0.0,0.0,0.0,0.0,0.0,0.0,0.0,0.0,0.0,0.0,0.0,0.0,0.0,0.0,0.0,0.0,0.0,0.0,0.0,0.0,0.0,0.0,0.0,0.0,0.0,0.0,0.0,0.0,0.0,0.0,0.0,0.0,0.0,0.0,0.0,0.0,0.0,0.0,0.0,0.0,0.0,0.0,0.0,0.0,0.0,0.0,0.0,0.0,0.0,0.0,0.0,0.0,0.0,0.0,0.0,0.0,0.0,0.0,0.0,0.0,0.0,0.0,0.0,0.0,0.0,0.0,0.0,0.0,0.0,0.0,0.0,0.0,0.0,0.0,0.0,0.0,0.0,0.0,0.0,0.0,0.0,0.0,0.0,0.0,0.0,0.0,0.0,0.0,0.0,0.0,0.0,0.0,0.0,0.0,0.0,0.0,0.0,0.0,0.0,0.0,0.0,0.0,0.0,0.0,0.0,0.0,0.0,0.0,0.0,0.0,0.0,0.0,0.0,0.0,0.0,0.0,0.0,0.0,0.0,0.0,0.0,0.0,0.0,0.0,0.0,0.0,0.0,0.0,0.0,0.0,0.0,0.0,0.0,0.0,0.0,0.0,0.0,0.0,0.0,0.0,0.0,0.0,0.0,0.0,0.0,0.0,0.0,0.0,0.0,0.0,0.0,0.0,0.0,0.0,0.0,0.0,0.0,0.0,0.0,0.0,0.0,0.0,0.0,0.0,0.0,0.0,0.0,0.0,0.0,0.0,0.0,0.0,0.0,0.0,0.0,0.0,0.0,0.0,0.0,0.0,0.0,0.0,0.0,0.0,0.0,0.0,0.0,0.0,0.0,0.0,0.0,0.0,0.0,0.0,0.0,0.0,0.0,0.0,0.0,0.0,0.0,0.0,0.0,0.0,0.0,0.0,0.0,0.0,0.0,0.0,0.0,0.0,0.0,0.0,0.0,0.0,0.0,0.0,0.0,0.0,0.0,0.0,0.0,0.0,0.0,0.0,0.0,0.0,0.0,0.0,0.0,0.0,0.0,0.0,0.0,0.0,0.0,0.0,0.0,0.0,0.0,0.0,0.0,0.0,0.0,0.0,0.0,0.0,0.0,0.0,0.0,0.0,0.0,0.0,0.0,0.0,0.0,0.0,0.0,0.0,0.0,0.0,0.0,0.0,0.0,0.0,0.0,0.0,0.0,0.0,0.0,0.0,0.0,0.0,0.0,0.0,0.0,0.0,0.0,0.0,0.0,0.0,0.0,0.0,0.0,0.0,0.0,0.0,0.0,0.0,0.0,0.0,0.0,0.0,0.0,0.0,0.0,0.0,0.0,0.0,0.0,0.0,0.0,0.0,0.0,0.0,0.0,0.0,0.0,0.0,0.0,0.0,0.0,0.0,0.0,0.0,0.0,0.0,0.0,0.0,0.0,0.0,0.0,-2.6833,0.0,0.0,0.0,0.0,0.0,0.0,0.0,0.0,0.0,0.0,0.0,0.0,0.0,0.0,0.0,0.0,0.0,0.0,0.0,0.0,0.0,0.0,0.0,0.0,0.0,0.0,0.0,0.0,0.0,0.0,0.0,0.0,0.0,0.0,0.0,0.0,0.0,0.0,0.0,0.0,0.0,0.0,0.0,0.0,0.0,0.0,0.0,0.0,0.0,0.0,0.0,0.0,0.0,0.0,0.0,0.0,0.0,0.0,0.0,0.0,0.0,0.0,0.0,0.0,0.0,0.0,0.0,0.0,0.0,0.0,0.0,0.0,0.0,0.0,0.0,0.0,0.0,0.0,0.0,0.0,0.0,0.0,0.0,0.0,0.0,0.0,0.0,0.0,0.0,0.0,0.0,0.0,0.0,0.0,0.0,0.0,0.0,0.0,0.0,0.0,0.0,0.0,0.0,0.0,0.0,0.0,0.0,0.0,0.0,0.0,0.0,0.0,0.0,0.0,0.0,0.0,-2.8466,0.0,0.0,0.0,0.0,0.0,0.0,0.0,0.0,0.0,0.0,0.0,0.0,0.0,0.0,0.0,0.0,0.0,0.0,0.0,0.0,0.0,0.0,0.0,0.0,0.0,0.0,0.0,0.0,0.0,0.0,0.0,0.0,0.0,0.0,0.0,0.0,0.0,0.0,0.0,0.0,0.0,0.0,0.0,0.0,0.0,0.0,0.0,0.0,0.0,0.0,0.0,0.0,0.0,0.0,0.0,0.0,0.0,0.0,0.0,0.0,0.0,0.0,0.0,0.0,0.0,0.0,0.0,0.0,0.0,0.0,0.0,0.0,0.0,0.0,0.0,0.0,0.0,0.0,0.0,0.0,0.0,0.0,0.0,0.0,0.0,0.0,0.0,0.0,0.0,0.0,0.0,0.0,0.0,0.0,0.0,0.0,0.0,0.0,0.0,0.0,0.0,0.0,0.0,0.0,0.0,0.0,0.0,0.0,-3.3752,-3.4578,-3.6505,-3.6652,-3.6725,-3.6578,-3.4004,-3.1806,-3.0087,0.0,0.0,0.0,0.0,0.0,0.0,0.0,0.0,0.0,0.0,0.0,0.0,0.0,0.0,0.0,0.0,0.0,0.0,0.0,0.0,0.0,0.0,0.0,0.0,0.0,0.0,0.0,0.0,0.0,0.0,0.0,0.0,0.0,0.0,0.0,0.0,0.0,0.0,0.0,-2.9685,-3.0973,-3.1802,-3.2141,-2.9848,0.0,0.0,0.0,0.0,0.0,0.0,0.0,0.0,0.0,0.0,0.0,0.0,0.0,0.0,0.0,0.0,0.0,0.0,0.0,0.0,0.0,0.0,0.0,0.0,0.0,0.0,0.0,0.0,0.0,0.0,0.0,0.0,0.0,0.0,0.0,0.0,0.0,0.0,0.0,0.0,0.0,0.0,0.0,-2.5246,-2.5246,0.0,0.0,0.0,0.0,0.0,0.0,0.0,0.0,0.0,0.0,0.0,0.0,0.0,-3.2632,-3.5312,-3.5587,-3.5807,-3.5991,-3.7936,-3.8355,-3.7364,-3.8065,-3.8377,-3.8395,-3.8652,0.0,-3.4105,-3.2821,0.0,0.0,0.0,0.0,0.0,0.0,0.0,0.0,0.0,0.0,0.0,0.0,0.0,0.0,0.0,0.0,0.0,0.0,0.0,0.0,0.0,0.0,0.0,0.0,0.0,0.0,0.0,0.0,0.0,0.0,0.0,0.0,0.0,0.0,0.0,0.0,-2.8264,-3.0495,-3.3199,-3.3863,-3.5013,-3.6491,-3.5277,-3.4006,-3.2722,-3.1252,0.0,0.0,0.0,0.0,0.0,0.0,0.0,0.0,0.0,0.0,0.0,0.0,0.0,0.0,0.0,0.0,0.0,0.0,0.0,0.0,0.0,0.0,0.0,0.0,0.0,0.0,0.0,0.0,0.0,0.0,0.0,0.0,0.0,0.0,0.0,0.0,0.0,0.0,0.0,-2.5668,-2.6403,-2.5503,-2.6594,-2.6924,0.0,0.0,0.0,0.0,0.0,0.0,0.0,0.0,0.0,-3.5822,-3.645,-3.7477,-3.8982,-4.102,-4.1699,-4.1038,-4.2543,-4.2671,-4.1534,-4.1442,-4.1405,-4.1442,-4.2249,-4.1277,-3.893,-3.6876,-3.5206,-3.3848,0.0,0.0,0.0,0.0,-3.3238,-3.3642,0.0,0.0,0.0,0.0,0.0,0.0,0.0,0.0,0.0,0.0,0.0,0.0,0.0,0.0,0.0,-2.6691,0.0,0.0,0.0,0.0,0.0,0.0,0.0,0.0,0.0,0.0,0.0,0.0,-3.0869,-3.3199,-3.6462,-3.6671,-3.7855,-3.9842,-3.9735,-3.8117,-3.5375,-3.397,-3.287,0.0,0.0,0.0,0.0,0.0,0.0,0.0,0.0,0.0,0.0,0.0,0.0,0.0,0.0,0.0,0.0,0.0,0.0,0.0,0.0,0.0,0.0,0.0,0.0,0.0,0.0,0.0,0.0,0.0,0.0,0.0,0.0,0.0,0.0,0.0,0.0,0.0,0.0,-2.6759,-2.7824,-2.6201,-2.8503,-2.9519,0.0,0.0,0.0,0.0,0.0,0.0,-3.4945,-3.5811,-3.711,-3.898,-4.0653,-4.1735,-4.2104,-4.4635,-4.5681,-4.5223,-4.5828,-4.5608,-4.469,-4.4287,-4.3883,-4.3551,-4.4415,-4.4195,-4.302,-4.0396,-3.8086,-3.6197,-3.5573,-3.522,-3.5147,-3.5991,-3.6156,-3.627,0.0,0.0,0.0,0.0,0.0,0.0,0.0,0.0,0.0,0.0,0.0,0.0,0.0,0.0,-2.9077,-2.982,-2.9989,-2.9702,0.0,0.0,0.0,0.0,0.0,0.0,0.0,0.0,0.0,-3.1089,-3.3926,-3.6535,-3.8836,-3.9554,-4.0688,-4.2117,-4.2136,-4.1527,-4.033,-3.7309,-3.5701,-3.4929,0.0,0.0,0.0,0.0,0.0,0.0,0.0,0.0,0.0,0.0,0.0,0.0,0.0,0.0,0.0,0.0,0.0,0.0,0.0,0.0,0.0,0.0,0.0,0.0,0.0,0.0,0.0,0.0,0.0,0.0,0.0,0.0,0.0,0.0,0.0,0.0,0.0,0.0,0.0,-2.786,-3.1164,0.0,0.0,0.0,0.0,-3.355,-3.5073,-3.6707,-3.8377,-3.9221,-4.0726,-4.3129,-4.4268,-4.4874,-4.4892,-4.5553,-4.614,-4.6599,-4.6636,-4.5975,-4.4709,-4.5461,-4.4947,-4.357,-4.4617,-4.5314,-4.5461,-4.2288,-4.0469,-3.9423,-3.7129,-3.7147,-3.8285,-3.6835,-3.7239,-3.8432,0.0,0.0,0.0,0.0,0.0,0.0,0.0,0.0,0.0,0.0,0.0,0.0,0.0,-2.9042,-3.1089,-3.278,-3.3372,-3.3115,-3.1901,0.0,0.0,0.0,0.0,0.0,0.0,0.0,-3.1376,-3.4815,-3.6332,-3.8227,-4.0426,-4.0679,-4.1863,-4.3785,-4.4204,-4.4688,-4.497,-4.1301,-3.8947,-3.7448,-3.5266,-3.3149,0.0,0.0,0.0,0.0,0.0,0.0,0.0,0.0,0.0,0.0,0.0,0.0,0.0,0.0,0.0,0.0,0.0,0.0,0.0,0.0,0.0,0.0,0.0,0.0,0.0,0.0,0.0,0.0,0.0,0.0,0.0,0.0,0.0,0.0,0.0,0.0,0.0,-3.2491,-3.5569,0.0,-3.5087,-3.5675,-3.6395,-3.6909,-3.8469,-4.0322,-4.2451,-4.2837,-4.4342,-4.7334,-4.7241,-4.7425,-4.7995,-4.8197,-4.8086,-4.7737,-4.7737,-4.7223,-4.6232,-4.6012,-4.5388,-4.4562,-4.5296,-4.5718,-4.5883,-4.5792,-4.4342,-4.2121,-4.1275,-4.0653,-4.0249,-4.0175,-4.0524,-4.1056,0.0,0.0,0.0,0.0,0.0,0.0,0.0,0.0,0.0,0.0,0.0,-2.62,-2.8669,-3.119,-3.3575,-3.5808,-3.6011,-3.5487,-3.4213,0.0,0.0,0.0,0.0,0.0,0.0,-3.1072,-3.3677,-3.7161,-3.8413,-3.9901,-4.1576,-4.21,-4.3413,-4.5337,-4.6002,-4.6923,-4.7871,-4.5449,-4.2884,-4.0291,-3.8604,-3.6615,-3.4325,0.0,0.0,0.0,0.0,0.0,0.0,0.0,0.0,0.0,0.0,0.0,0.0,0.0,0.0,0.0,0.0,0.0,0.0,0.0,0.0,0.0,0.0,0.0,0.0,0.0,0.0,0.0,0.0,0.0,0.0,0.0,0.0,0.0,0.0,0.0,-3.6454,-3.5917,-3.9203,-4.0781,-3.8891,-3.9714,-4.0561,-4.1093,-4.2286,-4.3847,-4.581,-4.5902,-4.6911,-4.9077,-4.8967,-4.915,-4.9719,-4.9353,-4.8875,-4.8306,-4.8306,-4.7865,-4.7094,-4.6838,-4.592,-4.4635,-4.6085,-4.6709,-4.6783,-4.7865,-4.704,-4.5002,-4.392,-4.2837,-4.1974,-4.2506,-4.269,-4.2782,0.0,0.0,0.0,0.0,0.0,0.0,0.0,0.0,0.0,0.0,-2.5338,-2.7875,-3.0903,-3.388,-3.6546,-3.8836,-3.7625,-3.64,-3.565,-3.141,0.0,0.0,0.0,0.0,-3.0275,-3.3842,-3.6445,-3.8041,-4.0189,-4.1627,-4.2388,-4.3904,-4.5371,-4.6777,-4.7469,-4.8269,-4.9039,-4.9629,-4.7536,-4.3698,-4.1956,-4.027,-3.8377,0.0,0.0,0.0,0.0,0.0,0.0,0.0,0.0,0.0,0.0,0.0,0.0,0.0,0.0,0.0,0.0,0.0,0.0,0.0,0.0,0.0,0.0,0.0,0.0,0.0,0.0,0.0,0.0,0.0,0.0,0.0,0.0,0.0,-3.1745,-3.6486,-3.9494,-3.7951,-4.1956,-4.392,-4.1554,-4.4176,-4.6012,-4.6012,-4.6526,-4.7297,-4.8361,-4.8379,-4.8379,-4.8453,-4.9462,-5.0013,-5.0068,-4.8948,-4.8379,-4.8343,-4.8324,-4.7902,-4.7168,-4.7938,-4.6599,-4.3827,-4.6948,-4.8306,-4.8306,-4.8306,-4.8306,-4.7994,-4.4856,-4.3588,-4.3515,-4.3515,-4.3515,-4.3515,0.0,0.0,0.0,0.0,0.0,0.0,0.0,0.0,0.0,0.0,-2.5778,-2.8653,-3.1667,-3.468,-3.7364,-3.9605,-3.6948,-3.5267,-3.5566,0.0,0.0,0.0,0.0,0.0,-3.5673,-3.6755,-3.8531,-4.1085,-4.1694,-4.2658,-4.3988,-4.4412,-4.5677,-4.7583,-4.7788,-4.918,-5.1394,-5.1531,-5.1542,-5.1004,-4.6416,-4.3277,-4.1001,0.0,0.0,0.0,0.0,0.0,0.0,0.0,0.0,0.0,0.0,0.0,0.0,0.0,0.0,0.0,0.0,0.0,0.0,0.0,0.0,0.0,0.0,0.0,0.0,0.0,0.0,0.0,0.0,0.0,0.0,0.0,0.0,-3.8946,-3.6964,-4.0561,-4.3442,-4.3571,-4.6361,-4.7737,-4.6452,-4.7682,-4.8564,-4.8508,-4.9224,-5.0068,-5.093,-5.0068,-5.0251,-5.1791,-5.0655,-5.0472,-5.1426,-5.0563,-4.9811,-4.9224,-4.86,-4.8196,-4.7994,-4.8214,-4.7829,-4.704,-4.7921,-4.8306,-4.8306,-4.8306,-4.8306,-4.8214,-4.7333,-4.5553,-4.3515,-4.3515,-4.3515,-4.3515,0.0,0.0,0.0,0.0,0.0,0.0,0.0,0.0,0.0,0.0,-2.6454,-2.9313,-3.2005,-3.4675,-3.6806,-3.8091,-3.5656,-3.3829,-3.3318,0.0,0.0,0.0,0.0,-3.4112,-3.7821,-3.8819,-4.0426,-4.276,-4.3081,-4.3887,-4.506,-4.5686,-4.6995,-4.8821,-4.9129,-5.0553,-5.2723,-5.2723,-5.3394,-5.4109,-5.0444,-4.7926,-4.5993,-4.2525,-4.0836,-4.0084,-3.8215,-3.7973,-3.8319,-3.6986,0.0,0.0,0.0,0.0,0.0,0.0,0.0,0.0,0.0,0.0,0.0,0.0,0.0,0.0,0.0,0.0,0.0,0.0,0.0,0.0,0.0,0.0,0.0,0.0,-4.102,-4.3296,-4.3259,-4.5278,-4.6929,-4.7388,-4.9022,-4.9903,-4.9407,-5.0105,-5.0602,-5.0545,-5.1334,-5.2013,-5.2472,-5.1756,-5.172,-5.2509,-5.1334,-5.0949,-5.1481,-5.1041,-5.0563,-5.0086,-4.9591,-4.9242,-4.9003,-4.8526,-4.8306,0.0,-4.8306,-4.8306,-4.8306,-4.8306,-4.8306,0.0,0.0,0.0,0.0,0.0,-4.3515,-4.3515,0.0,0.0,0.0,0.0,0.0,0.0,0.0,0.0,0.0,0.0,0.0,-2.9585,-3.1802,-3.3947,-3.5278,-3.5447,-3.3981,-3.2185,0.0,0.0,0.0,-3.1749,-3.4353,-3.6586,-3.8362,-4.0324,-4.21,-4.3646,-4.4367,-4.5128,-4.5991,-4.7378,-4.8754,-5.0132,-5.0875,-5.1993,-5.3309,-5.3309,-5.3816,-5.4579,-5.3789,-5.2872,-5.1518,-4.7076,-4.5718,-4.5773,-4.282,-4.1442,-4.0855,-3.9955,0.0,0.0,0.0,0.0,0.0,0.0,0.0,0.0,0.0,0.0,0.0,0.0,0.0,0.0,0.0,0.0,0.0,0.0,0.0,0.0,0.0,0.0,0.0,0.0,-4.4342,-4.6471,-4.9574,-5.0014,-4.9941,-4.9757,-5.0527,-5.1041,-5.0949,-5.1665,-5.2142,-5.2142,-5.2803,-5.3185,-5.3185,0.0,0.0,0.0,0.0,-5.1555,-5.1077,-5.0986,-5.0949,-5.093,-5.0839,-5.0545,-5.0068,-4.904,-4.8489,-4.8306,-4.8306,-4.8306,-4.8306,-4.8306,-4.8306,-4.8306,-4.8306,-4.6324,-4.3515,-4.3606,-4.3588,-4.3515,0.0,0.0,0.0,0.0,0.0,0.0,0.0,0.0,0.0,-2.4305,-2.6048,-2.801,-3.0277,-3.1968,-3.3427,-3.4607,-3.229,-3.0565,0.0,0.0,-3.163,-3.556,-3.6271,-3.8091,-4.1373,-4.1863,-4.3132,-4.5263,-4.5415,-4.6177,-4.7483,-4.8392,-4.9263,-5.013,-5.0864,-5.2032,-5.3448,-5.3448,-5.425,-5.546,-5.5269,-5.3912,-5.183,-5.0233,-4.8875,-4.7682,-4.6397,-4.6709,-4.7499,-4.5993,-4.4947,-4.3975,-4.2176,0.0,0.0,0.0,0.0,0.0,0.0,0.0,0.0,0.0,0.0,0.0,0.0,0.0,0.0,0.0,0.0,0.0,0.0,0.0,0.0,-4.6489,-4.8545,-5.0306,-5.2234,-5.2509,-5.2032,-5.0729,-5.1848,-5.2491,-5.183,-5.2509,-5.2968,-5.2968,-5.3115,-5.3185,-5.3185,-5.3185,-5.3093,-5.2892,-5.2894,-5.2837,-5.2726,-5.2087,-5.1756,-5.1756,0.0,0.0,-5.0637,-5.0417,-4.9591,-4.8306,-4.8306,-4.8306,-4.8306,-4.8306,-4.8306,-4.8306,-4.8306,-4.6324,-4.3588,-4.4232,-4.4066,-4.3515,0.0,0.0,0.0,0.0,0.0,0.0,0.0,0.0,0.0,0.0,-2.5472,-2.686,-2.8737,-2.9617,-3.0192,-3.0548,-2.8907,0.0,0.0,-3.1495,-3.3981,-3.7743,-3.9309,-4.0967,-4.2811,-4.3234,-4.4181,-4.5703,-4.6075,-4.7005,-4.8477,-4.9204,-5.0135,-5.1217,-5.1589,-5.2393,-5.3526,-5.3898,-5.447,-5.5168,-5.5567,-5.4965,-5.3713,-5.2516,-5.1761,-5.1202,-5.0034,-5.0117,-5.06,-4.937,-4.8691,-4.7994,-4.5957,-4.3369,-4.0451,0.0,0.0,0.0,0.0,0.0,0.0,0.0,0.0,0.0,0.0,0.0,0.0,0.0,0.0,-4.0286,0.0,0.0,-4.748,-5.0306,-5.1793,-5.3023,-5.4234,-5.4399,-5.3794,-5.2197,-5.3078,-5.3482,-5.2674,-5.3335,-5.3628,-5.3222,-5.3185,-5.3185,-5.3185,-5.3185,-5.3185,-5.3185,-5.3185,-5.3463,-5.3995,-5.3078,-5.2803,-5.3188,-5.2399,-5.2013,-5.2013,-5.2013,-5.1555,-5.0765,-5.0765,-4.9829,-4.8306,-4.8306,-4.8306,-4.8306,-4.8306,-4.6985,-4.5021,-4.4342,-4.3846,-4.3515,0.0,0.0,0.0,0.0,0.0,0.0,0.0,0.0,0.0,0.0,-2.4797,-2.5693,-2.7012,-2.7148,-2.6928,0.0,0.0,0.0,0.0,-3.3152,-3.6113,-3.9276,-4.1847,-4.324,-4.3392,-4.4045,-4.4857,-4.5923,-4.6498,-4.7547,-4.9018,-4.9898,-5.0947,-5.2097,-5.2401,-5.2892,-5.3534,-5.4121,-5.4374,-5.4451,-5.5173,-5.5403,-5.5121,-5.3634,-5.3624,-5.4169,-5.2459,-5.1592,-5.1169,-5.0527,-5.0325,-4.9994,-4.8158,-4.6581,-4.4654,-4.0781,-3.8726,0.0,0.0,0.0,0.0,0.0,0.0,0.0,0.0,0.0,-3.931,-4.1534,-4.3809,-4.5975,-4.792,-4.9921,-5.1848,-5.3607,-5.4308,-5.4913,-5.5721,-5.5684,-5.5078,-5.3683,-5.4051,-5.4087,-5.3277,-5.3794,-5.3904,-5.324,-5.3332,-5.3424,-5.3424,-5.3592,-5.3628,-5.3518,-5.3518,-5.3922,-5.4806,-5.4142,-5.4051,-5.4473,-5.383,-5.3408,-5.3185,-5.3185,-5.3185,-5.3185,-5.3185,-5.1332,-4.8306,-4.8306,-4.8306,-4.8306,-4.8306,-4.7774,-4.6764,-4.4709,-4.3772,-4.3515,0.0,0.0,0.0,0.0,0.0,0.0,0.0,0.0,0.0,0.0,0.0,0.0,0.0,0.0,0.0,0.0,0.0,0.0,-3.187,-3.4201,-3.7104,-4.0798,-4.1897,-4.2726,-4.3375,-4.3504,-4.457,-4.6667,-4.6752,-4.7547,-4.9035,-5.0439,-5.1166,-5.1403,-5.2756,-5.3416,-5.3501,-5.3584,-5.3601,-5.3701,-5.4437,-5.4335,-5.3648,-5.2694,-5.32,-5.4106,-5.1765,-4.9971,-4.871,-4.8618,-4.8581,-4.8673,-4.915,-4.8673,-4.726,-4.392,0.0,-3.8175,-3.6376,-3.5445,-3.5683,-3.8505,-3.8355,-3.9145,0.0,0.0,-4.4103,-4.8655,-5.093,-5.2215,-5.2451,-5.2726,-5.3702,-5.6033,-5.5868,-5.5739,-5.6547,-5.6051,-5.5376,-5.4715,-5.4491,-5.4087,-5.3277,-5.3277,-5.3316,-5.3203,-5.3867,-5.4271,-5.4271,-5.4932,-5.5097,-5.4641,-5.4623,-5.4696,-5.4806,-5.5629,-5.5592,-5.4751,-5.4678,-5.4124,-5.3185,-5.3185,-5.3185,-5.3185,-5.3185,-5.1332,-4.8306,-4.8306,-4.8306,-4.8306,-4.8306,-4.8233,-4.7921,-4.625,-4.4727,-4.3515,0.0,0.0,0.0,0.0,0.0,0.0,0.0,0.0,0.0,0.0,0.0,0.0,0.0,0.0,0.0,0.0,0.0,0.0,-3.143,-3.4112,-3.7273,-4.1052,-4.1914,-4.2642,-4.3375,-4.3392,-4.4316,-4.616,-4.6583,-4.7547,-4.9018,-5.0067,-5.1014,-5.1877,-5.252,-5.3061,-5.3534,-5.3979,-5.3608,-5.2857,-5.3656,-5.3528,-5.2686,-5.0956,-5.0401,-5.0353,-4.8669,-4.7264,0.0,0.0,-4.6526,-4.7131,-4.8434,-4.7627,-4.5865,-4.403,-4.1882,0.0,-3.9845,-3.9863,0.0,0.0,-4.3276,-4.5204,-4.7737,-4.8379,-4.915,-5.1683,-5.3482,-5.4748,-5.5225,-5.5684,-5.6326,0.0,-5.7226,-5.7097,-5.7446,-5.7207,-5.6436,-5.499,-5.4968,-5.484,-5.4179,-5.4124,-5.4252,-5.4564,-5.4051,-5.4252,-5.55,-5.5574,-5.5945,-5.6638,-5.6657,-5.6657,-5.6657,-5.7097,-5.6859,-5.5941,-5.5005,-5.4087,-5.3185,-5.3185,-5.3185,-5.3185,-5.3185,-5.2435,-5.1004,-4.9095,-4.8306,-4.8306,-4.8306,-4.8306,-4.7994,-4.5443,-4.4066,-4.3515,0.0,0.0,0.0,0.0,0.0,0.0,0.0,0.0,0.0,0.0,0.0,0.0,0.0,0.0,0.0,0.0,0.0,0.0,0.0,-3.3216,-3.6563,-4.0138,-4.1576,-4.2642,-4.3375,-4.3815,-4.4688,-4.6007,-4.6735,-4.775,-4.9018,-4.9746,-5.0659,-5.1708,-5.1911,-5.2334,-5.2891,-5.344,-5.29,-5.1773,-5.2563,-5.2054,-5.0631,-4.8695,-4.6976,-4.5533,-4.4982,-4.3808,0.0,0.0,-4.2928,-4.3828,-4.5223,-4.4746,-4.3644,-4.3259,-4.2194,-4.1224,-4.1809,0.0,0.0,-4.4599,-4.7572,-5.0216,-5.0031,-5.172,-5.3555,-5.4363,-5.5262,-5.6106,-5.6693,-5.7097,0.0,-5.7629,-5.7666,-5.7758,-5.796,-5.7997,-5.7244,-5.5265,-5.4968,-5.4785,-5.4399,-5.4748,-5.5008,-5.4932,-5.4418,-5.4638,-5.5886,-5.6143,-5.6785,-5.796,-5.7997,-5.7997,-5.7997,-5.7997,-5.7703,-5.7134,-5.5959,-5.462,-5.3185,-5.3185,-5.3185,-5.3185,-5.3185,-5.3185,-5.2983,-5.0398,-4.893,-4.8306,-4.8306,-4.8306,-4.8031,-4.5681,-4.425,-4.3515,0.0,0.0,0.0,0.0,0.0,0.0,0.0,0.0,0.0,0.0,0.0,0.0,0.0,0.0,0.0,0.0,0.0,0.0,0.0,-3.141,-3.4827,-3.7872,-4.0764,-4.2642,-4.3375,-4.4874,-4.6007,-4.6752,-4.7513,-4.8274,-4.9018,-4.9746,-5.0101,-5.0185,-5.093,-5.1236,-5.1252,-5.1285,-5.0877,-5.0219,-5.0979,-4.954,-4.6869,-4.5956,-4.3301,-4.017,-4.1171,0.0,0.0,0.0,-3.7088,-3.7896,-3.8726,-3.9994,0.0,-4.2121,-4.1754,-4.1113,0.0,0.0,-4.425,-4.737,-5.005,-5.2325,-5.3867,-5.5482,-5.6877,-5.7685,-5.7281,-5.6785,-5.6804,-5.618,-5.5923,-5.6712,-5.684,-5.7116,-5.7886,-5.7997,-5.7391,-5.578,-5.4216,-5.328,0.0,-5.4656,-5.4932,-5.339,-5.5152,-5.5868,-5.4917,-5.6804,-5.7941,-5.7997,-5.7997,-5.7997,-5.7997,-5.7997,-5.7997,-5.796,-5.7905,-5.6235,-5.3185,-5.3185,-5.3185,-5.3185,-5.3185,-5.3185,-5.3133,-5.2252,-5.0472,-4.8306,-4.8306,-4.8306,-4.8306,-4.8196,-4.6177,-4.3515,0.0,0.0,0.0,0.0,0.0,0.0,0.0,0.0,0.0,0.0,0.0,0.0,0.0,0.0,0.0,0.0,0.0,0.0,0.0,-2.9668,-3.2104,-3.4104,-3.7516,-3.9512,-3.9766,-4.1711,-4.3318,-4.4553,-4.4778,-4.5314,-4.6075,-4.6341,-4.6701,-4.7208,-4.7953,-4.8562,-4.9004,-4.9004,-4.8595,-4.7834,-4.7107,-4.621,-4.51,-4.2798,-4.0222,-3.7632,0.0,0.0,0.0,0.0,0.0,-3.4486,-3.5811,-3.6252,-3.6633,-3.8542,-4.0065,-4.1682,0.0,0.0,-4.8141,-5.0875,-5.339,-5.5464,-5.6547,-5.7629,-5.8327,-5.8052,-5.651,-5.5482,-5.6363,-5.4711,-5.394,-5.6161,-5.6235,-5.6473,-5.7813,-5.7997,-5.7005,-5.4326,-5.2601,0.0,0.0,0.0,0.0,-5.4252,-5.6253,-5.706,-5.618,-5.7317,-5.7997,-5.7997,-5.7997,-5.7997,-5.7997,-5.7997,-5.7997,-5.7997,-5.7281,-5.5629,-5.3185,-5.3185,-5.3185,-5.3185,-5.3185,-5.3185,-5.3112,-5.2142,-5.1041,-4.9958,-4.9958,-4.9279,-4.8306,-4.8306,-4.7609,-4.6673,0.0,0.0,0.0,0.0,0.0,0.0,0.0,0.0,0.0,0.0,0.0,0.0,0.0,0.0,0.0,0.0,0.0,0.0,0.0,0.0,-2.9161,-3.0632,-3.3778,-3.5622,-3.5893,-3.7804,-3.9276,-4.0223,-4.0781,-4.1441,-4.2202,-4.2499,-4.298,-4.3724,-4.4198,-4.4823,-4.5471,-4.5229,-4.4688,-4.3893,-4.2675,-4.1542,-4.0324,-3.7862,-3.5712,0.0,0.0,0.0,0.0,0.0,0.0,-3.2155,-3.3209,-3.4462,-3.5807,-3.7125,-3.9827,-4.3132,0.0,-4.893,-5.1114,-5.4161,-5.6308,-5.7772,-5.8309,-5.8621,-5.8382,-5.7005,-5.4785,-5.328,-5.387,-5.1444,-5.049,-5.3849,-5.361,-5.3959,-5.6748,-5.7629,-5.7226,-5.517,-5.3004,0.0,0.0,0.0,0.0,-5.4216,-5.6565,-5.7611,-5.6712,-5.7501,-5.7997,-5.7997,-5.7997,-5.7997,-5.7997,-5.7997,-5.785,-5.7556,-5.6565,-5.528,-5.3757,-5.3371,-5.3185,-5.3185,-5.3185,-5.3185,-5.3148,-5.2472,-5.1738,-5.1077,-5.0875,-5.049,-4.9994,-4.9407,-4.9315,-4.937,0.0,0.0,0.0,0.0,0.0,0.0,0.0,0.0,0.0,0.0,0.0,0.0,0.0,0.0,0.0,0.0,0.0,0.0,0.0,0.0,0.0,-2.7519,-2.9837,-3.1413,-3.2056,-3.3563,-3.432,-3.432,-3.5814,-3.688,-3.7584,-3.8261,-3.8971,-3.964,-3.9673,-4.0079,-4.0696,-4.0011,-3.93,-3.8582,-3.7821,-3.5808,-3.3136,-3.1647,0.0,0.0,0.0,0.0,0.0,0.0,0.0,0.0,0.0,0.0,-3.8652,-3.8098,-4.1295,-4.5535,-4.8012,-5.0472,-5.328,-5.7116,-5.8676,-5.9239,-5.9148,-5.8492,-5.7189,-5.4766,-5.227,-5.0233,0.0,0.0,-4.5902,-5.0013,-4.9444,-5.0178,-5.4968,-5.7005,-5.7997,0.0,0.0,0.0,0.0,0.0,0.0,-5.3445,0.0,-5.7538,-5.6473,-5.7409,-5.7997,-5.7997,-5.7997,-5.7997,-5.7997,-5.7997,-5.7593,-5.6804,-5.5978,-5.528,-5.4696,-5.3665,-5.3185,-5.3185,-5.3185,-5.3185,-5.3185,-5.313,-5.2546,-5.1573,-5.1059,-5.1775,-5.2928,-5.1408,-5.1169,-5.1298,0.0,0.0,0.0,0.0,0.0,0.0,0.0,0.0,0.0,0.0,0.0,0.0,0.0,0.0,0.0,0.0,0.0,0.0,0.0,0.0,0.0,0.0,0.0,0.0,-2.8975,-3.0987,-3.2036,-3.2036,-3.2425,-3.2713,-3.2916,-3.3102,-3.3288,-3.3491,-3.4032,-3.4409,-3.4561,-3.4375,-3.4189,-3.3901,0.0,-3.1968,-3.1596,0.0,0.0,0.0,0.0,0.0,0.0,0.0,0.0,0.0,0.0,0.0,-4.0139,-4.2928,0.0,-4.9903,-5.2913,-5.5519,-5.7611,-5.8634,-5.952,-5.9795,-5.8584,-5.7207,-5.5519,-5.3096,-4.9224,-4.5773,0.0,0.0,0.0,-4.8288,-5.0123,0.0,-5.5978,-5.7354,0.0,0.0,0.0,-5.5959,-5.618,-5.6381,0.0,0.0,-5.6859,-5.7611,-5.6748,-5.7538,-5.7997,-5.7997,-5.7997,-5.7997,-5.7997,-5.7997,-5.7593,-5.6804,-5.5978,-5.4895,-5.361,-5.3314,-5.3185,-5.3185,-5.3185,-5.3185,-5.313,-5.2344,-5.1958,-5.1848,-5.1536,-5.1665,-5.1958,-5.1555,-5.1481,-5.1518,0.0,0.0,0.0,0.0,0.0,0.0,0.0,0.0,0.0,0.0,0.0,0.0,0.0,0.0,0.0,0.0,0.0,0.0,0.0,0.0,0.0,0.0,0.0,0.0,-2.5406,-2.6624,-2.73,-2.73,0.0,0.0,0.0,-2.8586,-2.8924,-2.9228,-2.967,-3.0025,-3.0294,-2.9991,0.0,0.0,0.0,0.0,0.0,0.0,0.0,0.0,0.0,0.0,0.0,0.0,0.0,-3.6863,-3.8744,-4.1325,-4.427,-4.7606,0.0,-5.3445,-5.5959,-5.8162,-5.9716,-5.9716,-5.9813,-5.9281,-5.695,-5.517,-5.2821,-4.86,-4.5278,0.0,0.0,0.0,0.0,0.0,0.0,0.0,-5.462,-5.5904,-5.6804,0.0,-5.7593,0.0,-5.7116,-5.7244,-5.7134,0.0,-5.7483,-5.7648,-5.684,-5.7556,-5.7997,-5.7997,-5.7997,-5.7997,-5.7997,-5.7997,-5.7776,-5.7317,-5.6859,-5.5629,-5.3739,-5.3739,-5.3537,-5.3185,0.0,-5.3185,-5.3148,-5.2543,-5.2399,-5.2509,-5.2362,-5.2307,-5.2307,-5.2307,-5.2307,-5.2252,0.0,0.0,0.0,0.0,0.0,0.0,0.0,0.0,0.0,0.0,0.0,0.0,0.0,0.0,0.0,0.0,0.0,0.0,0.0,0.0,0.0,0.0,0.0,-2.2296,-2.2296,-2.2296,-2.2296,-2.2296,0.0,0.0,0.0,0.0,0.0,0.0,0.0,0.0,0.0,0.0,0.0,0.0,0.0,0.0,0.0,0.0,0.0,0.0,0.0,0.0,0.0,0.0,-3.6908,-4.0312,-4.2651,-4.5906,-4.937,-5.1898,-5.4271,-5.6418,-5.8033,-5.9575,-6.0676,-6.0456,-5.9648,-5.8052,-5.4821,-5.2491,-4.9297,-4.3222,0.0,0.0,-3.7419,0.0,-3.8667,-4.2707,0.0,-4.6856,-5.2564,-5.3959,-5.5299,-5.7703,-5.7997,-5.7997,-5.7997,-5.8107,-5.8107,-5.7997,-5.8198,-5.7923,-5.7024,-5.7611,-5.7997,-5.7997,-5.7997,-5.7997,-5.7997,-5.7997,-5.7997,-5.7997,-5.7886,-5.6748,-5.4711,-5.4509,-5.4051,-5.3408,-5.3259,0.0,-5.3185,-5.3185,-5.3185,-5.3185,-5.3185,-5.3185,-5.3185,-5.3185,-5.3185,-5.3093,0.0,0.0,0.0,0.0,0.0,0.0,0.0,0.0,0.0,0.0,0.0,0.0,0.0,0.0,0.0,0.0,0.0,0.0,0.0,0.0,0.0,0.0,0.0,-2.2296,-2.2296,-2.2296,-2.2296,0.0,0.0,0.0,0.0,0.0,0.0,0.0,0.0,0.0,0.0,0.0,0.0,0.0,0.0,0.0,0.0,0.0,0.0,0.0,0.0,0.0,0.0,0.0,-3.8077,-4.3049,-4.5999,-4.8964,-5.1979,-5.5066,-5.7226,-5.8933,-6.0529,-6.1667,-6.2071,-6.0731,-5.8804,-5.6381,-5.3151,-4.9077,0.0,0.0,0.0,-3.5738,-3.4633,-3.5569,0.0,-4.1846,0.0,0.0,0.0,0.0,-5.5299,0.0,0.0,0.0,0.0,0.0,0.0,0.0,0.0,-5.9336,-5.7868,-5.7923,-5.7997,-5.7997,-5.7997,-5.7997,-5.7997,-5.7997,-5.7997,-5.7997,-5.7336,-5.6804,-5.6345,-5.5005,-5.4436,-5.4454,-5.3592,0.0,-5.3185,-5.3185,-5.3185,-5.3185,-5.3185,-5.3185,-5.3185,-5.3185,-5.3185,-5.3167,0.0,0.0,0.0,0.0,0.0,0.0,0.0,0.0,0.0,0.0,-2.1028,-2.1042,0.0,0.0,0.0,0.0,0.0,0.0,0.0,0.0,0.0,0.0,0.0,0.0,0.0,0.0,0.0,0.0,0.0,0.0,0.0,0.0,0.0,0.0,0.0,0.0,0.0,0.0,0.0,0.0,0.0,0.0,0.0,0.0,0.0,0.0,0.0,0.0,0.0,0.0,-3.7013,-4.231,-4.6547,-5.0095,-5.3202,-5.5577,-5.768,-5.9461,-6.0701,-6.1912,-6.2395,-6.0805,-5.8272,-5.4987,-5.049,0.0,0.0,0.0,0.0,-3.4009,-3.2779,0.0,0.0,0.0,0.0,0.0,0.0,0.0,0.0,0.0,0.0,0.0,0.0,0.0,0.0,0.0,0.0,-5.9263,-5.8052,-5.7997,-5.7997,-5.7997,-5.7997,-5.7997,-5.7997,-5.7997,-5.7997,-5.7997,-5.7611,-5.7207,-5.6785,-5.6014,-5.5335,-5.477,-5.4252,0.0,-5.3185,-5.3185,-5.3185,-5.3185,-5.3185,-5.3185,-5.3185,-5.3185,-5.3185,-5.3185,0.0,0.0,0.0,0.0,0.0,0.0,0.0,-1.9764,-2.0077,-2.0752,-2.0992,-2.1122,-2.1198,-2.0953,0.0,0.0,0.0,0.0,0.0,0.0,0.0,0.0,0.0,0.0,0.0,0.0,0.0,0.0,0.0,0.0,0.0,0.0,0.0,0.0,0.0,0.0,0.0,0.0,0.0,0.0,0.0,0.0,0.0,0.0,0.0,0.0,0.0,0.0,0.0,0.0,-3.4776,-3.9272,-4.4217,-4.8942,-5.2954,-5.4435,-5.6794,-5.9102,-5.9804,-6.1262,-6.2126,-6.0327,-5.7336,-5.3427,-4.8048,-4.3956,0.0,0.0,-3.2834,-3.2687,-3.1599,0.0,0.0,0.0,0.0,0.0,0.0,0.0,0.0,0.0,0.0,0.0,0.0,0.0,0.0,0.0,0.0,0.0,-5.829,-5.8088,-5.7997,-5.7997,-5.7997,-5.7997,-5.7997,-5.7997,-5.7997,-5.7997,-5.7997,-5.7666,-5.706,-5.6895,-5.6326,-5.5467,-5.4748,0.0,0.0,-5.3185,-5.3185,-5.3185,-5.3185,-5.3185,-5.3185,-5.3185,-5.3185,-5.3185,0.0,0.0,0.0,0.0,0.0,0.0,0.0,-2.0017,-2.0493,-2.1155,-2.076,-2.0778,-2.1803,-2.2199,0.0,0.0,0.0,0.0,0.0,0.0,0.0,0.0,0.0,0.0,0.0,0.0,0.0,0.0,0.0,0.0,0.0,0.0,0.0,0.0,0.0,0.0,0.0,0.0,0.0,0.0,0.0,0.0,0.0,0.0,0.0,0.0,0.0,0.0,0.0,0.0,0.0,-3.3698,-3.7594,-4.4103,-5.0525,-5.1513,0.0,0.0,-5.8344,-6.003,-6.1153,-5.8804,-5.5244,-5.1206,-4.6985,0.0,0.0,0.0,-3.1513,-3.0705,-3.1292,-3.2173,0.0,0.0,0.0,0.0,0.0,0.0,0.0,0.0,0.0,0.0,0.0,0.0,0.0,0.0,0.0,0.0,-5.9093,-5.84,-5.7997,-5.7997,-5.7997,-5.7997,-5.7997,-5.7997,-5.7997,-5.7997,-5.7997,-5.796,-5.785,-5.7134,-5.7134,-5.7538,-5.462,0.0,0.0,-5.3185,-5.3185,-5.3185,-5.3185,-5.3185,-5.3185,-5.3185,-5.3185,-5.3185,0.0,0.0,0.0,0.0,0.0,0.0,0.0,-1.9854,-2.0188,-2.0852,-2.0716,-2.0806,-2.15,-2.198,-2.2134,0.0,0.0,0.0,0.0,0.0,0.0,0.0,0.0,0.0,0.0,0.0,0.0,0.0,0.0,0.0,0.0,0.0,0.0,0.0,0.0,0.0,0.0,0.0,0.0,0.0,0.0,0.0,0.0,0.0,0.0,0.0,0.0,0.0,0.0,0.0,0.0,0.0,-3.2205,-3.6861,0.0,0.0,-5.0468,-5.437,-5.6295,-5.85,-5.9987,-5.8967,-5.4968,-5.0215,-4.6122,0.0,0.0,-3.2559,-3.098,-3.0448,-3.125,-3.1659,-3.3054,0.0,0.0,0.0,0.0,0.0,0.0,0.0,0.0,0.0,0.0,0.0,0.0,0.0,0.0,0.0,-5.996,-5.8694,-5.7997,-5.7997,-5.7997,-5.7997,-5.7997,-5.7997,-5.7997,-5.7997,-5.7997,-5.7997,-5.7997,-5.7666,-5.7703,-5.7923,-5.6657,0.0,0.0,-5.6088,-5.5225,-5.3867,-5.339,-5.3185,-5.3185,-5.3185,-5.3185,-5.3185,0.0,0.0,0.0,0.0,0.0,0.0,-1.9708,-1.9708,-1.9929,-2.0598,-2.0543,-2.062,-2.1234,-2.1534,-2.1682,-2.1601,0.0,0.0,0.0,0.0,0.0,0.0,0.0,0.0,0.0,0.0,0.0,0.0,0.0,0.0,0.0,0.0,0.0,0.0,0.0,0.0,0.0,0.0,0.0,0.0,0.0,0.0,0.0,0.0,0.0,0.0,0.0,0.0,0.0,0.0,0.0,0.0,0.0,0.0,0.0,0.0,-4.6028,-5.0542,-5.3315,-5.5943,-5.7848,-5.7504,-5.372,-4.9003,0.0,0.0,0.0,-3.2021,-3.0577,-3.0099,-3.0889,-3.125,-3.2302,-3.511,0.0,-3.6986,0.0,0.0,0.0,0.0,0.0,0.0,0.0,0.0,0.0,0.0,0.0,0.0,0.0,-5.9134,-5.7997,-5.7997,-5.7997,-5.7997,-5.7997,-5.7997,-5.7997,-5.7997,-5.7997,-5.7997,-5.7997,-5.7997,-5.774,-5.7317,-5.7776,0.0,0.0,-5.7281,-5.6014,-5.3995,-5.3427,-5.3185,-5.3185,-5.3185,-5.3185,-5.3185,0.0,0.0,0.0,0.0,0.0,0.0,0.0,-1.9708,-1.9929,-2.0598,-2.0124,-2.0128,-2.1188,-2.1125,-2.1182,-2.1567,0.0,0.0,0.0,0.0,0.0,0.0,0.0,0.0,0.0,0.0,0.0,-2.2296,0.0,0.0,0.0,0.0,0.0,0.0,0.0,0.0,0.0,0.0,0.0,0.0,0.0,0.0,0.0,0.0,0.0,0.0,0.0,0.0,0.0,0.0,0.0,0.0,0.0,0.0,0.0,0.0,-4.1912,-4.7176,-4.9212,-5.2136,-5.4429,-5.3478,-5.0784,-4.7278,0.0,0.0,0.0,-3.1911,-3.0136,-2.9262,-3.0063,-3.0852,-3.1929,-3.355,-3.5877,-3.8319,0.0,0.0,0.0,0.0,0.0,0.0,0.0,0.0,0.0,0.0,0.0,0.0,0.0,-5.974,-5.7997,-5.7997,-5.7997,-5.7997,-5.7997,-5.7997,-5.7997,-5.7997,-5.7997,-5.7997,-5.7997,-5.7997,-5.7116,0.0,0.0,0.0,0.0,-5.5611,-5.4675,-5.3203,-5.3185,-5.3185,-5.3185,-5.3185,-5.3185,-5.3185,0.0,0.0,0.0,0.0,0.0,0.0,0.0,-2.0313,-2.0287,-2.0828,-2.0435,-2.0356,-2.1015,-2.1054,-2.115,-2.1567,0.0,0.0,0.0,0.0,0.0,0.0,0.0,0.0,0.0,0.0,-2.2296,-2.2296,-2.2296,-2.2296,0.0,0.0,0.0,0.0,0.0,0.0,0.0,0.0,0.0,0.0,0.0,0.0,0.0,0.0,0.0,0.0,0.0,0.0,0.0,0.0,0.0,0.0,0.0,0.0,0.0,-3.139,0.0,0.0,-4.331,-4.5503,-4.693,-4.6304,-4.4346,-4.1791,-3.8872,0.0,0.0,-3.0962,-2.9739,-2.9244,-3.0063,-3.0411,-3.1659,-3.4963,-3.6156,-3.7716,0.0,0.0,0.0,0.0,0.0,0.0,0.0,0.0,0.0,0.0,0.0,0.0,0.0,-5.8547,-5.7997,-5.7997,-5.7997,-5.7997,-5.7997,-5.7997,-5.7997,-5.7997,-5.7997,-5.7997,-5.7997,-5.7997,-5.7116,0.0,0.0,0.0,0.0,-5.4252,-5.3977,-5.3977,-5.3427,-5.3185,-5.3185,-5.3185,-5.3185,-5.3185,0.0,0.0,0.0,0.0,0.0,0.0,0.0,-2.0764,-2.0682,-2.0959,-2.0747,-2.0682,-2.0959,-2.115,-2.1322,-2.1582,0.0,0.0,0.0,0.0,0.0,0.0,0.0,0.0,0.0,-2.2296,-2.2296,-2.2296,-2.2581,-2.2733,-2.2733,-2.3004,-2.2987,0.0,0.0,0.0,0.0,0.0,0.0,0.0,0.0,0.0,-2.2347,0.0,0.0,0.0,0.0,0.0,0.0,0.0,0.0,0.0,0.0,0.0,0.0,0.0,-3.1585,0.0,0.0,-4.0717,-4.1822,-4.1778,-4.0359,0.0,0.0,0.0,0.0,0.0,-2.9555,-2.9152,-2.9647,-3.0246,-3.1494,-3.4027,-3.5477,-3.7202,0.0,0.0,0.0,0.0,0.0,0.0,0.0,0.0,0.0,0.0,0.0,0.0,0.0,-5.7997,-5.7813,-5.7409,-5.7776,-5.7997,-5.7997,-5.7997,-5.7997,-5.7997,-5.7997,-5.7997,-5.796,-5.6748,-5.5849,0.0,0.0,0.0,0.0,-5.3812,-5.3775,-5.3904,-5.3387,-5.3185,-5.3185,-5.3185,-5.3185,-5.3185,0.0,0.0,0.0,0.0,0.0,0.0,0.0,0.0,0.0,0.0,-2.1055,-2.1071,-2.1087,-2.1399,-2.1612,0.0,0.0,0.0,0.0,0.0,0.0,0.0,0.0,0.0,0.0,-2.2296,-2.2296,-2.2296,-2.3038,-2.3441,-2.3477,-2.4237,-2.4186,-2.3477,0.0,0.0,0.0,0.0,0.0,0.0,0.0,0.0,0.0,0.0,0.0,0.0,0.0,0.0,0.0,0.0,0.0,0.0,0.0,0.0,0.0,0.0,0.0,0.0,0.0,0.0,0.0,0.0,0.0,0.0,0.0,0.0,0.0,0.0,0.0,0.0,-2.9225,-3.0375,-3.1452,-3.1856,-3.4444,-3.6982,0.0,0.0,0.0,0.0,0.0,0.0,0.0,0.0,0.0,0.0,0.0,0.0,0.0,-5.7923,-5.7428,-5.6418,-5.7207,-5.774,-5.7905,-5.796,-5.7997,-5.7997,-5.7886,-5.7776,-5.7556,-5.4564,-5.3739,0.0,0.0,0.0,0.0,-5.4032,-5.3922,-5.3277,-5.3203,-5.3185,-5.3185,-5.3185,-5.3185,-5.3185,0.0,0.0,0.0,0.0,0.0,0.0,0.0,0.0,0.0,0.0,0.0,-2.1598,-2.1959,-2.1764,0.0,0.0,0.0,0.0,0.0,0.0,0.0,0.0,0.0,0.0,0.0,-2.2296,-2.2296,-2.2296,-2.3038,-2.3695,-2.4254,-2.5,-2.4949,-2.4237,-2.4237,0.0,0.0,0.0,0.0,0.0,0.0,0.0,0.0,0.0,0.0,0.0,-2.4326,-2.533,0.0,0.0,0.0,0.0,0.0,0.0,0.0,0.0,-2.8026,-2.8891,-2.9773,0.0,-3.2055,-3.1284,0.0,0.0,0.0,0.0,0.0,0.0,0.0,0.0,0.0,0.0,-3.1916,-3.6285,-3.711,-3.8135,0.0,0.0,0.0,0.0,0.0,0.0,0.0,0.0,0.0,0.0,0.0,0.0,0.0,-5.7207,-5.6657,-5.64,-5.506,-5.5225,-5.706,-5.7685,-5.7997,-5.7978,-5.6748,-5.5519,-5.4308,-5.3555,-5.3353,0.0,0.0,0.0,-5.4087,-5.3665,-5.3739,-5.4069,-5.3445,-5.3185,-5.3185,-5.3185,-5.3185,-5.3185,0.0,0.0,0.0,0.0,0.0,0.0,0.0,0.0,0.0,0.0,0.0,0.0,0.0,0.0,0.0,0.0,0.0,0.0,0.0,0.0,0.0,0.0,0.0,0.0,-2.2296,-2.2296,-2.2296,-2.2296,-2.3038,-2.3951,-2.5017,-2.5761,-2.5879,-2.5472,-2.4457,-2.3359,0.0,0.0,0.0,0.0,0.0,0.0,0.0,0.0,0.0,0.0,-2.422,-2.5207,0.0,-2.6579,-2.7224,-2.784,0.0,0.0,0.0,0.0,-2.8102,-2.8596,-2.8224,-2.9404,-3.0595,-2.9946,-3.0271,-3.0632,0.0,0.0,0.0,0.0,0.0,0.0,0.0,0.0,0.0,0.0,-3.7276,0.0,0.0,0.0,0.0,0.0,0.0,0.0,0.0,0.0,0.0,0.0,0.0,0.0,0.0,-5.6895,-5.6253,-5.55,-5.4711,-5.4932,-5.6235,-5.6675,-5.6895,-5.6877,-5.6014,-5.4748,-5.3185,-5.3185,-5.3185,0.0,0.0,0.0,-5.383,-5.339,-5.3463,-5.3812,-5.3369,-5.3185,-5.3185,-5.3185,-5.3185,-5.3185,0.0,0.0,0.0,0.0,0.0,0.0,0.0,0.0,0.0,0.0,0.0,0.0,0.0,0.0,0.0,0.0,0.0,0.0,0.0,0.0,0.0,0.0,0.0,-2.2296,-2.2296,-2.2296,-2.2296,-2.2296,-2.3257,-2.4425,-2.5795,-2.6759,-2.7029,-2.659,-2.4391,-2.2987,0.0,0.0,0.0,0.0,-2.2296,0.0,0.0,0.0,0.0,0.0,0.0,0.0,0.0,-2.6664,-2.7409,-2.801,-2.7587,0.0,0.0,0.0,0.0,0.0,-2.8672,-3.0054,-3.1488,-3.114,-3.114,-3.1231,-3.1231,0.0,0.0,0.0,0.0,0.0,0.0,0.0,0.0,0.0,0.0,0.0,0.0,0.0,0.0,0.0,0.0,0.0,0.0,0.0,0.0,0.0,0.0,0.0,0.0,-5.662,-5.5941,-5.4454,-5.4932,-5.5225,-5.5225,-5.5464,-5.5614,-5.5614,-5.5464,-5.4711,-5.3445,-5.328,-5.3185,-5.3185,0.0,0.0,-5.3369,-5.324,-5.328,-5.3369,-5.324,-5.3185,-5.3185,-5.3185,-5.3185,-5.3185,0.0,0.0,0.0,0.0,0.0,0.0,0.0,0.0,0.0,0.0,0.0,0.0,0.0,0.0,0.0,0.0,0.0,0.0,0.0,0.0,0.0,0.0,-2.2296,-2.2296,-2.2296,-2.2296,-2.2296,-2.2296,-2.4289,-2.5693,-2.6573,-2.8619,-2.8552,-2.659,-2.4391,-2.2987,-2.2296,-2.2296,-2.2296,-2.2296,-2.2296,0.0,0.0,0.0,0.0,0.0,0.0,0.0,0.0,-2.7662,-2.8215,-2.8767,-2.8368,0.0,0.0,0.0,0.0,0.0,-2.9337,-3.0886,-3.1922,-2.9886,-2.9879,-3.0375,-3.0375,0.0,0.0,0.0,0.0,0.0,0.0,0.0,0.0,0.0,0.0,0.0,0.0,0.0,0.0,0.0,0.0,0.0,0.0,0.0,0.0,0.0,0.0,0.0,0.0,-5.5776,-5.5354,-5.4436,-5.3867,-5.3573,-5.3573,-5.4913,-5.5614,-5.5574,-5.4913,-5.4564,-5.4531,-5.361,-5.3185,-5.3185,0.0,-5.3592,-5.4161,-5.3482,-5.361,-5.4161,-5.3482,-5.3185,-5.3185,-5.3185,-5.3185,-5.3185,0.0,0.0,0.0,0.0,0.0,0.0,0.0,0.0,0.0,0.0,0.0,0.0,0.0,0.0,0.0,0.0,0.0,0.0,0.0,0.0,0.0,-2.2296,-2.2296,-2.2296,-2.2296,-2.2699,-2.3088,-2.3477,-2.4915,-2.6404,-2.7977,-2.9027,-2.8387,-2.6304,-2.4898,-2.361,-2.2514,-2.2514,-2.244,-2.2296,0.0,0.0,0.0,0.0,0.0,0.0,0.0,0.0,0.0,0.0,-2.8018,-2.8855,-2.8015,0.0,0.0,0.0,0.0,0.0,-2.9241,-3.0283,-3.1041,-2.9922,-3.0907,-3.2027,-3.1604,0.0,0.0,0.0,0.0,0.0,0.0,0.0,0.0,0.0,0.0,0.0,0.0,0.0,0.0,0.0,0.0,0.0,0.0,0.0,0.0,0.0,0.0,0.0,0.0,0.0,-5.4583,-5.3794,-5.339,-5.3185,-5.3185,-5.394,-5.4308,-5.4308,-5.394,-5.383,-5.3922,-5.3427,-5.3185,-5.3185,0.0,-5.3427,-5.372,-5.3353,-5.3427,-5.372,-5.3332,-5.3185,-5.3185,-5.3185,-5.3185,-5.3185,0.0,0.0,0.0,0.0,0.0,0.0,0.0,0.0,0.0,0.0,0.0,0.0,0.0,0.0,0.0,0.0,0.0,0.0,0.0,0.0,-2.2296,-2.2296,-2.2296,-2.2381,-2.255,-2.3105,-2.3763,-2.4491,-2.5406,-2.6928,-2.8993,-2.8637,-2.7623,-2.6053,-2.5077,-2.394,-2.281,-2.266,-2.251,-2.2385,0.0,0.0,0.0,0.0,0.0,0.0,0.0,0.0,0.0,0.0,0.0,0.0,0.0,0.0,0.0,-2.9005,-2.9005,-2.9042,-2.9225,-2.9721,-3.021,-3.021,0.0,-3.2999,-3.3133,0.0,0.0,0.0,0.0,0.0,0.0,0.0,0.0,0.0,0.0,0.0,0.0,0.0,0.0,0.0,0.0,0.0,0.0,0.0,0.0,0.0,0.0,0.0,0.0,0.0,-5.4032,-5.3222,-5.3185,-5.3185,-5.3185,-5.3185,-5.3185,-5.3185,-5.3185,-5.3185,-5.3185,-5.3185,-5.3185,-5.3185,-5.3185,-5.3185,-5.3185,-5.3185,-5.3185,-5.3185,-5.3185,-5.3185,-5.3185,-5.3185,-5.3185,-5.3185,0.0,0.0,0.0,0.0,0.0,0.0,0.0,0.0,0.0,0.0,0.0,0.0,0.0,0.0,0.0,0.0,0.0,0.0,0.0,0.0,-2.2296,-2.2296,-2.2296,-2.2632,-2.3308,-2.3376,-2.3763,-2.4491,-2.5929,-2.7453,-2.8976,-2.7537,-2.6584,-2.6021,-2.4298,-2.3374,-2.3117,-2.2571,-2.2463,-2.2656,-2.2656,0.0,0.0,0.0,0.0,0.0,0.0,0.0,0.0,0.0,0.0,0.0,0.0,0.0,-2.9005,-2.9005,-2.9005,-2.9152,-2.9916,-3.0173,-3.021,-3.021,0.0,0.0,-3.416,-3.4839,0.0,0.0,0.0,0.0,0.0,0.0,0.0,0.0,0.0,0.0,0.0,0.0,0.0,0.0,0.0,0.0,0.0,0.0,0.0,0.0,0.0,0.0,0.0,0.0,0.0,-5.3222,-5.3185,-5.3185,-5.3185,-5.3185,-5.3185,-5.3185,-5.3185,-5.3185,-5.3185,-5.3185,-5.3185,-5.3185,-5.3185,-5.3185,-5.3185,-5.3185,-5.3185,-5.3185,-5.3185,-5.3185,-5.3185,-5.3185,-5.3185,-5.3185,0.0,0.0,0.0,0.0,0.0,0.0,0.0,0.0,0.0,0.0,0.0,0.0,0.0,0.0,0.0,0.0,0.0,0.0,0.0,0.0,-2.2296,-2.2296,-2.2296,-2.2649,-2.3376,-2.3393,-2.3763,-2.4491,-2.6437,-2.7452,-2.7571,-2.7179,-2.6554,-2.5684,-2.4708,-2.427,-2.4187,-2.3267,-2.3207,-2.3706,-2.2989,-2.296,0.0,0.0,0.0,0.0,0.0,0.0,0.0,0.0,-2.7383,-2.7798,-2.7798,-2.8356,-2.9005,-2.9005,-2.9005,-2.9078,-2.9372,-2.9824,-3.032,-3.0815,0.0,0.0,0.0,0.0,0.0,0.0,0.0,0.0,0.0,0.0,0.0,0.0,0.0,0.0,0.0,0.0,0.0,0.0,0.0,0.0,0.0,0.0,0.0,0.0,0.0,0.0,0.0,0.0,0.0,-5.3203,-5.3185,-5.3185,-5.3185,-5.3185,-5.3185,-5.3185,-5.3185,-5.3185,-5.3185,-5.3185,-5.3185,-5.3185,-5.3185,-5.3185,-5.3185,-5.3185,-5.3185,-5.3185,-5.3185,-5.3185,-5.3185,-5.3185,-5.3185,-5.3185,0.0,0.0,0.0,0.0,0.0,0.0,0.0,0.0,0.0,0.0,0.0,0.0,0.0,0.0,0.0,0.0,0.0,0.0,0.0,-2.2296,-2.2296,-2.2296,-2.2296,-2.2533,-2.3038,-2.3054,-2.3528,-2.4491,-2.6015,-2.6538,-2.6175,-2.6425,-2.6225,-2.5646,-2.523,-2.5205,-2.5368,-2.4367,-2.4194,-2.4498,-2.37,-2.3513,0.0,0.0,0.0,0.0,0.0,0.0,0.0,0.0,-2.6979,-2.7475,0.0,-2.8356,-2.9005,-2.9005,-2.9005,-2.9005,-2.9005,-2.939,-3.0008,0.0,0.0,0.0,0.0,0.0,0.0,0.0,0.0,0.0,0.0,0.0,0.0,0.0,0.0,0.0,0.0,0.0,0.0,0.0,0.0,0.0,0.0,0.0,0.0,0.0,0.0,0.0,0.0,0.0,0.0,0.0,-5.2582,-5.2564,-5.2821,-5.2582,-5.2433,-5.2433,-5.2433,-5.2708,-5.3185,-5.2949,-5.2821,-5.2821,-5.2564,-5.2601,-5.2821,-5.2821,-5.2968,-5.3185,-5.3185,-5.3185,-5.3185,-5.3185,-5.3185,-5.3185,0.0,0.0,0.0,0.0,0.0,0.0,0.0,0.0,0.0,0.0,0.0,0.0,0.0,0.0,0.0,0.0,0.0,0.0,-2.2296,-2.2296,-2.2296,-2.2296,-2.2296,-2.2296,-2.2296,-2.2296,-2.3021,-2.4474,-2.4491,-2.4654,-2.4988,-2.5076,-2.5425,-2.5979,-2.5729,-2.5979,-2.657,-2.5877,-2.5332,-2.4931,-2.4913,-2.4425,-2.3843,0.0,0.0,0.0,0.0,0.0,0.0,0.0,-2.6602,-2.6759,-2.7548,0.0,-2.9005,-2.9005,-2.9005,-2.9005,-2.9005,-2.9005,0.0,0.0,0.0,0.0,0.0,0.0,0.0,0.0,0.0,0.0,0.0,0.0,0.0,0.0,0.0,0.0,0.0,0.0,0.0,0.0,0.0,0.0,0.0,0.0,0.0,0.0,0.0,0.0,0.0,0.0,0.0,0.0,-5.1224,-5.1187,-5.1977,-5.1206,-5.0802,-5.0802,-5.0802,-5.1628,-5.3148,-5.2344,-5.1977,-5.194,-5.1151,-5.1261,-5.1995,-5.1995,-5.2472,-5.3185,-5.3185,-5.3185,-5.3185,-5.3185,-5.3185,-5.3185,0.0,0.0,0.0,0.0,0.0,0.0,0.0,0.0,0.0,0.0,0.0,0.0,0.0,0.0,0.0,0.0,0.0,0.0,-2.2296,-2.2296,-2.2296,-2.2296,-2.2296,-2.2296,-2.2296,-2.2296,-2.2499,-2.2953,-2.3705,-2.4129,-2.4258,-2.5269,-2.5834,-2.6021,-2.6213,-2.6717,-2.7343,-2.5771,-2.5819,-2.683,-2.5454,-2.5234,-2.5792,0.0,0.0,0.0,0.0,0.0,0.0,0.0,0.0,0.0,-2.8393,0.0,-2.9005,-2.9005,-2.9005,-2.9005,-2.9005,0.0,0.0,0.0,0.0,0.0,0.0,0.0,0.0,0.0,0.0,0.0,0.0,0.0,0.0,0.0,0.0,0.0,0.0,0.0,0.0,0.0,0.0,0.0,0.0,0.0,0.0,0.0,0.0,0.0,0.0,0.0,0.0,0.0,-5.093,-5.0912,-5.1151,-5.093,-5.0802,-5.0802,-5.0802,-5.1059,-5.1499,-5.1261,-5.1151,-5.1132,-5.0894,-5.1261,-5.1995,-5.1995,-5.2472,-5.3133,-5.238,-5.2546,-5.3185,-5.3185,-5.3185,-5.3185,0.0,0.0,0.0,0.0,0.0,0.0,0.0,0.0,0.0,0.0,0.0,0.0,0.0,0.0,0.0,0.0,0.0,0.0,0.0,0.0,-2.2296,-2.2296,-2.2398,-2.2517,-2.2647,-2.2664,-2.2664,-2.2664,-2.3175,-2.3572,-2.3857,-2.5344,-2.6103,-2.6272,-2.7167,-2.7813,-2.8198,-2.7023,-2.7027,-2.7703,-2.653,-2.6261,-2.662,0.0,0.0,0.0,0.0,0.0,0.0,0.0,0.0,0.0,-2.8748,0.0,0.0,-2.9005,-2.9005,-2.9078,-2.939,0.0,0.0,0.0,0.0,0.0,0.0,0.0,0.0,0.0,0.0,0.0,0.0,0.0,0.0,0.0,0.0,0.0,0.0,0.0,0.0,0.0,0.0,0.0,0.0,0.0,0.0,0.0,0.0,0.0,0.0,0.0,0.0,0.0,-4.9994,-4.9976,-5.0306,-4.9976,-4.9811,-4.9811,-4.9811,-4.9811,-4.9829,-5.016,-5.0306,-5.0343,-5.0655,-5.0894,-5.1116,-5.1738,-5.2215,-5.2472,-5.1389,-5.1885,-5.3185,-5.3185,-5.3185,-5.3185,0.0,0.0,0.0,0.0,0.0,0.0,0.0,0.0,0.0,0.0,0.0,0.0,0.0,0.0,0.0,0.0,0.0,0.0,0.0,0.0,-2.2296,-2.2296,-2.2563,-2.2873,-2.3236,-2.323,-2.3224,-2.33,-2.296,-2.3141,-2.3848,-2.5409,-2.6354,-2.6778,-2.8308,-2.9005,-2.9005,-2.8932,-2.851,-2.7897,-2.7835,-2.7402,-2.6895,-2.7622,0.0,0.0,0.0,0.0,0.0,0.0,0.0,0.0,-2.8767,-2.9005,-2.9005,-2.9005,-2.9005,-2.9189,0.0,0.0,0.0,0.0,0.0,0.0,0.0,0.0,0.0,0.0,0.0,0.0,0.0,0.0,0.0,0.0,0.0,0.0,0.0,0.0,0.0,0.0,0.0,0.0,0.0,0.0,0.0,0.0,0.0,0.0,0.0,0.0,0.0,-4.9463,-4.871,-4.8673,-4.9482,-4.8691,-4.8306,-4.8306,-4.8233,-4.8233,-4.8343,-4.9114,-4.9482,-4.9537,-5.0325,-5.027,-4.9702,-5.1189,-5.1646,-5.1353,-5.027,-5.1041,-5.2745,-5.2745,-5.2928,-5.3185,0.0,0.0,0.0,0.0,0.0,0.0,0.0,0.0,0.0,0.0,0.0,0.0,0.0,0.0,0.0,0.0,0.0,0.0,0.0,0.0,-2.2296,-2.2296,-2.2563,-2.2984,-2.3577,-2.3335,-2.3448,-2.3986,-2.366,-2.3878,-2.4678,-2.5907,-2.687,-2.7585,-2.8565,-2.9005,-2.8968,-2.8338,-2.8319,-2.8693,-2.8044,-2.8062,-2.8491,-2.8675,-2.8246,0.0,0.0,0.0,0.0,0.0,0.0,0.0,-2.895,-2.9005,-2.9005,-2.9005,-2.9005,-2.9189,0.0,0.0,0.0,0.0,0.0,0.0,0.0,0.0,0.0,0.0,0.0,0.0,0.0,0.0,0.0,0.0,0.0,0.0,0.0,0.0,0.0,0.0,0.0,0.0,0.0,0.0,0.0,0.0,0.0,0.0,0.0,0.0,0.0,-4.8545,-4.8398,-4.8398,-4.8581,-4.8398,-4.8306,0.0,-4.7663,-4.7681,-4.8324,-4.8489,-4.8581,-4.8618,-4.9426,-4.9682,-4.9536,-4.9959,-5.0196,-5.0233,-4.9114,-4.8948,-4.9352,-4.9352,-5.1004,-5.3185,0.0,0.0,0.0,0.0,0.0,0.0,0.0,0.0,0.0,0.0,0.0,0.0,0.0,0.0,0.0,0.0,0.0,0.0,0.0,0.0,0.0,-2.2725,-2.3014,-2.3414,-2.3927,-2.3774,-2.3847,-2.419,-2.4409,-2.472,0.0,0.0,-2.7034,-2.7835,-2.8638,-2.9005,-2.8968,-2.8546,-2.862,-2.8968,-2.8528,-2.862,-2.9005,-2.9005,-2.873,-2.8374,-2.8374,0.0,0.0,0.0,0.0,0.0,0.0,0.0,-2.9005,-2.9005,-2.9005,-2.9189,0.0,0.0,0.0,0.0,0.0,0.0,0.0,0.0,0.0,0.0,0.0,0.0,0.0,0.0,0.0,0.0,0.0,0.0,0.0,0.0,0.0,0.0,0.0,0.0,0.0,0.0,0.0,0.0,0.0,0.0,0.0,-4.6159,-4.6194,-4.675,-4.6769,-4.6632,-4.6331,-4.6331,-4.6331,-4.6331,-4.6194,-4.6702,-4.7736,-4.8122,-4.8306,-4.8361,-4.9169,-4.9297,-4.8967,-4.9427,-4.9426,-4.9132,-4.8526,-4.8306,-4.8306,-4.8306,-4.9389,-5.0837,0.0,0.0,0.0,0.0,0.0,0.0,0.0,0.0,0.0,0.0,0.0,0.0,0.0,0.0,0.0,0.0,0.0,0.0,0.0,0.0,0.0,-2.3183,-2.3522,-2.3865,-2.419,-2.419,-2.419,-2.419,0.0,0.0,0.0,0.0,0.0,-2.8044,-2.8693,-2.9005,-2.9005,-2.9005,-2.9005,-2.9005,-2.9005,-2.9005,-2.9005,-2.9005,-2.9005,-2.9005,-2.9005,-2.9005,-2.9005,-2.9005,0.0,0.0,0.0,0.0,-2.9005,-2.9005,-2.9005,-2.9189,0.0,0.0,0.0,0.0,0.0,0.0,0.0,0.0,0.0,0.0,0.0,0.0,0.0,0.0,0.0,0.0,0.0,0.0,0.0,0.0,0.0,0.0,0.0,0.0,0.0,0.0,0.0,0.0,0.0,0.0,-4.5645,-4.5057,-4.4876,-4.5222,-4.5258,-4.5001,-4.4503,-4.4485,-4.446,-4.4373,-4.4755,-4.551,-4.6578,-4.7269,-4.7785,-4.8141,-4.8857,-4.8765,-4.8159,-4.8857,-4.882,-4.8306,-4.8159,-4.8196,-4.8306,-4.8306,-4.8306,-4.8306,0.0,0.0,0.0,0.0,0.0,0.0,0.0,0.0,0.0,0.0,0.0,0.0,0.0,0.0,0.0,0.0,0.0,0.0,-2.2296,0.0,0.0,-2.3177,-2.3522,-2.3865,-2.419,-2.419,-2.419,-2.419,0.0,0.0,0.0,0.0,0.0,-2.884,0.0,-2.9005,-2.9005,-2.9005,-2.9005,-2.9005,-2.9005,-2.9005,-2.9005,-2.9005,-2.9005,-2.9005,-2.9005,-2.9005,-2.9005,-2.9005,-2.9005,0.0,0.0,0.0,0.0,-2.9005,-2.9005,-2.9189,0.0,0.0,0.0,0.0,0.0,0.0,0.0,0.0,0.0,0.0,0.0,0.0,0.0,0.0,0.0,0.0,0.0,0.0,0.0,0.0,0.0,0.0,0.0,0.0,0.0,0.0,0.0,0.0,0.0,0.0,-4.4837,-4.4746,-4.504,-4.5773,-4.5792,-4.5736,-4.5662,-4.5662,-4.5434,-4.498,-4.4525,-4.4324,-4.4346,-4.4617,-4.5665,-4.7278,-4.7369,-4.7369,-4.7278,-4.7388,-4.7792,-4.8233,-4.7516,-4.7681,-4.8306,-4.8306,-4.8306,-4.8306,0.0,0.0,0.0,0.0,0.0,0.0,0.0,0.0,0.0,0.0,0.0,0.0,0.0,0.0,0.0,-2.2296,-2.2296,-2.236,-2.2514,-2.2815,-2.3129,-2.3477,-2.3806,-2.4054,-2.4208,-2.419,-2.419,0.0,0.0,0.0,0.0,-2.8503,-2.9806,0.0,0.0,0.0,0.0,-2.9372,-2.9005,-2.9005,-2.9005,-2.9005,-2.9005,-2.9005,-2.9005,-2.9005,-2.9005,-2.9005,-2.9005,-2.9005,-2.9005,-2.9005,-2.9005,0.0,0.0,0.0,-2.9005,0.0,0.0,0.0,0.0,0.0,0.0,0.0,0.0,0.0,0.0,0.0,0.0,0.0,0.0,0.0,0.0,0.0,0.0,0.0,0.0,0.0,0.0,0.0,0.0,0.0,0.0,0.0,0.0,0.0,0.0,-4.3521,-4.3578,-4.387,-4.4052,-4.4124,-4.3782,-4.343,-4.3105,-4.2802,-4.2692,-4.2758,-4.2819,-4.3233,-4.3906,-4.3837,-4.4779,-4.6415,-4.6115,-4.6153,-4.6434,-4.6434,-4.6636,-4.6929,-4.6581,-4.6838,-4.748,-4.8086,-4.8306,-4.8306,0.0,0.0,0.0,0.0,0.0,0.0,0.0,0.0,0.0,0.0,0.0,0.0,0.0,0.0,0.0,0.0,-2.2296,-2.2412,-2.2682,-2.3093,-2.3437,-2.3692,-2.4016,-2.419,-2.419,-2.419,-2.419,0.0,0.0,0.0,-2.6961,-2.9384,-3.1256,0.0,-3.1971,0.0,0.0,0.0,0.0,-2.9299,-2.9078,-2.9005,-2.9005,-2.9005,-2.9005,-2.9005,-2.9005,-2.9005,-2.9005,-2.9005,-2.9005,-2.9005,-2.9005,-2.9005,0.0,0.0,0.0,0.0,0.0,0.0,0.0,0.0,0.0,0.0,0.0,0.0,0.0,0.0,0.0,0.0,0.0,0.0,0.0,0.0,0.0,0.0,0.0,0.0,0.0,0.0,0.0,0.0,0.0,0.0,0.0,0.0,0.0,-4.2884,-4.25,-4.2847,-4.2884,-4.248,-4.2021,-4.1578,-4.1133,-4.0744,-4.0744,-4.1133,-4.1578,-4.2445,-4.3579,-4.3231,-4.3889,-4.5278,-4.5071,-4.5238,-4.5608,-4.5608,-4.5718,-4.5883,-4.5663,-4.5883,-4.6375,-4.7006,-4.7408,-4.769,0.0,0.0,0.0,0.0,0.0,0.0,0.0,0.0,0.0,0.0,0.0,0.0,-2.2296,-2.2296,-2.2296,-2.2296,-2.2296,-2.2412,-2.2682,-2.3311,-2.3682,-2.3692,-2.4016,0.0,-2.419,-2.419,0.0,0.0,0.0,0.0,-2.7787,-3.0222,-3.1788,-3.2601,-3.2564,-3.1684,-3.032,0.0,0.0,0.0,-2.9317,-2.9005,-2.9005,-2.9005,-2.9005,0.0,0.0,0.0,-2.9005,-2.9005,-2.9005,-2.9005,-2.9005,-2.9005,-2.9005,0.0,0.0,0.0,0.0,0.0,0.0,0.0,0.0,0.0,0.0,0.0,0.0,0.0,0.0,0.0,0.0,0.0,0.0,0.0,0.0,0.0,0.0,0.0,0.0,0.0,0.0,0.0,0.0,0.0,0.0,0.0,0.0,-4.1874,-4.1853,-4.1856,-4.1874,-4.1853,-4.1832,-4.1771,-4.175,-4.1725,-4.1725,-4.175,-4.1771,-4.2139,-4.2746,-4.216,-4.2519,-4.3663,-4.4398,-4.4728,-4.4746,-4.4746,-4.5223,-4.581,-4.5057,-4.4929,-4.5116,-4.4593,-4.4975,-4.5972,0.0,0.0,0.0,0.0,0.0,0.0,0.0,0.0,0.0,0.0,0.0,0.0,0.0,-2.2296,-2.236,-2.2537,-2.2563,-2.2781,-2.3311,-2.3369,-2.3566,-2.4006,-2.4141,-2.419,-2.419,-2.419,-2.419,0.0,0.0,-2.598,-2.6311,-2.8723,-2.9751,-2.9586,-3.1146,-3.1513,-3.0907,-3.0173,0.0,0.0,0.0,0.0,0.0,0.0,0.0,0.0,0.0,0.0,0.0,0.0,-2.9005,-2.9005,-2.9005,-2.9005,-2.9005,-2.9005,-2.9005,0.0,0.0,0.0,0.0,0.0,0.0,0.0,0.0,0.0,0.0,0.0,0.0,0.0,0.0,0.0,0.0,0.0,0.0,0.0,0.0,0.0,0.0,0.0,0.0,0.0,0.0,0.0,0.0,0.0,0.0,0.0,-4.0552,-4.1335,-4.181,-4.181,-4.1424,-4.1059,-4.0696,-4.0713,-4.0713,-4.0737,-4.1464,-4.1916,-4.2142,-4.2302,-4.2598,-4.2976,-4.2868,-4.3071,-4.3412,-4.3412,-4.3368,-4.3252,-4.2945,-4.335,-4.4071,-4.4081,-4.4149,-4.4637,0.0,0.0,0.0,0.0,0.0,0.0,0.0,0.0,0.0,0.0,0.0,0.0,0.0,0.0,-2.2374,-2.255,-2.2751,-2.3057,-2.3493,-2.3533,-2.3724,-2.418,-2.419,-2.419,-2.419,-2.419,-2.419,0.0,0.0,0.0,0.0,-2.7585,-2.8319,-2.789,-2.9751,-3.0742,0.0,0.0,0.0,-2.9372,0.0,0.0,-2.9427,0.0,0.0,0.0,0.0,0.0,0.0,0.0,0.0,0.0,-2.9005,-2.9005,-2.9005,-2.9005,-2.9005,0.0,0.0,0.0,0.0,0.0,0.0,0.0,0.0,0.0,0.0,0.0,0.0,0.0,0.0,0.0,0.0,0.0,0.0,0.0,0.0,0.0,0.0,0.0,0.0,0.0,0.0,0.0,0.0,0.0,0.0,0.0,-3.9175,-4.0006,-4.049,-4.049,-4.0101,-3.9833,-3.974,-3.9904,-4.0129,-4.0368,-4.1353,-4.181,-4.1793,-4.2221,-4.2382,-4.238,-4.1979,-4.2038,-4.2382,-4.2382,-4.2162,-4.181,-4.181,-4.2266,-4.2994,-4.3605,-4.3445,-4.3359,0.0,0.0,0.0,0.0,0.0,0.0,0.0,0.0,0.0,0.0,0.0,0.0,0.0,0.0,0.0,-2.2338,-2.287,-2.3212,-2.3224,-2.3827,-2.418,-2.419,-2.419,-2.419,-2.419,-2.419,-2.419,0.0,0.0,0.0,0.0,0.0,-2.778,-2.7835,-2.8638,-2.9427,-3.0173,0.0,-3.087,-3.0099,0.0,-2.9464,-3.0246,0.0,0.0,0.0,-3.1342,-3.0834,0.0,0.0,0.0,0.0,0.0,0.0,0.0,0.0,0.0,0.0,0.0,0.0,0.0,0.0,0.0,0.0,0.0,0.0,0.0,0.0,0.0,0.0,0.0,0.0,0.0,0.0,0.0,0.0,0.0,0.0,0.0,0.0,0.0,0.0,0.0,0.0,0.0,0.0,0.0,-3.8356,-3.7895,-3.7889,-3.7905,-3.7905,-3.7905,-3.8244,-3.8954,-3.9473,-4.01,-4.081,-4.1438,-4.1754,-4.1754,-4.1771,-4.1771,-4.1771,-4.1768,-4.1746,-4.175,-4.1768,-4.175,-4.175,-4.1768,-4.1789,-4.1937,-4.3051,-4.2772,-4.2234,0.0,0.0,0.0,0.0,0.0,0.0,0.0,0.0,0.0,0.0,0.0,0.0,-2.2296,-2.2686,-2.2958,-2.2958,-2.3341,-2.3671,-2.3907,-2.3876,-2.3955,-2.418,-2.419,-2.419,-2.419,-2.419,-2.419,0.0,0.0,0.0,0.0,0.0,0.0,0.0,-2.8638,-2.8803,-2.8521,-2.9317,0.0,0.0,-2.9097,-2.9133,0.0,0.0,0.0,0.0,0.0,-2.9519,0.0,0.0,-2.9005,-2.9005,0.0,0.0,0.0,0.0,0.0,0.0,-2.9005,0.0,0.0,0.0,0.0,0.0,0.0,0.0,0.0,0.0,0.0,0.0,0.0,0.0,0.0,0.0,0.0,0.0,0.0,0.0,0.0,0.0,0.0,0.0,0.0,0.0,0.0,0.0,-3.6899,-3.7228,-3.7117,-3.7618,-3.7905,-3.7905,-3.7905,-3.8007,-3.821,-3.8343,-3.8523,-3.8751,-3.9841,-4.0336,-4.0354,-4.0911,-4.1155,-4.1133,-4.0744,-4.057,-4.0594,-4.099,-4.092,-4.0618,-4.1013,-4.1246,-4.1473,-4.2364,-4.2847,-4.3306,0.0,0.0,0.0,0.0,0.0,0.0,0.0,0.0,0.0,0.0,0.0,0.0,-2.2733,-2.3192,-2.357,-2.3728,-2.3774,-2.388,-2.4053,-2.3719,-2.3577,-2.3774,-2.3917,-2.3996,-2.3996,-2.4141,-2.419,0.0,0.0,0.0,0.0,0.0,0.0,0.0,0.0,0.0,0.0,0.0,0.0,0.0,-2.8858,0.0,0.0,-2.9879,-3.0008,0.0,0.0,0.0,-2.9898,-2.9225,-2.9005,0.0,0.0,0.0,0.0,0.0,0.0,0.0,0.0,0.0,0.0,0.0,0.0,0.0,0.0,-2.8958,0.0,0.0,0.0,0.0,0.0,0.0,0.0,0.0,0.0,0.0,0.0,0.0,0.0,0.0,0.0,0.0,0.0,0.0,0.0,-3.468,-3.5317,-3.5752,-3.5831,-3.6535,-3.6935,-3.6935,-3.6935,-3.711,-3.7432,-3.7432,-3.7601,-3.7922,-3.8965,-3.9478,-3.9495,-4.0233,-4.0577,-4.0552,-4.0254,-4.0229,-4.0424,-4.0528,-4.0368,-4.0146,-4.0703,-4.1133,-4.1534,-4.2162,-4.2865,-4.3643,0.0,0.0,0.0,0.0,0.0,0.0,0.0,0.0,0.0,0.0,0.0,-2.2699,-2.3427,-2.3827,-2.417,-2.4515,-2.4259,-2.4101,-2.4124,-2.3701,-2.3454,-2.3448,-2.3647,-2.3761,-2.3764,-2.4006,-2.4197,0.0,0.0,0.0,0.0,0.0,0.0,0.0,0.0,0.0,0.0,0.0,0.0,-2.786,-2.8675,-2.9427,0.0,0.0,-3.1195,0.0,-3.1176,-3.1195,-3.1017,-2.95,-2.9037,0.0,0.0,0.0,0.0,0.0,-2.9075,0.0,0.0,0.0,0.0,0.0,0.0,0.0,-2.893,-2.8458,-2.8322,0.0,0.0,0.0,0.0,0.0,0.0,0.0,0.0,0.0,0.0,0.0,0.0,0.0,0.0,0.0,0.0,-3.3708,-3.3788,-3.3313,-3.3794,-3.418,-3.438,-3.5013,-3.538,-3.5481,-3.5481,-3.5859,-3.666,-3.6677,-3.6992,-3.7652,-3.8396,-3.8785,-3.8903,-3.9656,-4.0028,-4.0096,-4.0096,-4.0417,-4.0856,-4.0392,-4.0229,-4.0336,-4.0803,-4.138,-4.1958,-4.2382,-4.294,-4.3515,0.0,0.0,0.0,0.0,0.0,0.0,0.0,0.0,0.0,0.0,0.0,0.0,0.0,-2.4582,-2.4821,-2.4905,-2.5076,-2.5292,-2.5564,-2.5253,-2.5033,-2.4962,-2.4454,-2.4162,-2.4102,-2.3907,-2.4236,0.0,0.0,0.0,0.0,0.0,0.0,0.0,0.0,0.0,0.0,0.0,0.0,-2.786,-2.8675,0.0,-2.9244,-2.9409,-2.9879,-3.0356,-2.9702,-2.9879,-3.0283,0.0,-2.9223,-2.9481,0.0,0.0,0.0,0.0,0.0,0.0,0.0,0.0,0.0,0.0,0.0,0.0,-2.846,-2.8707,-2.8883,0.0,0.0,0.0,0.0,0.0,0.0,0.0,0.0,0.0,0.0,0.0,0.0,0.0,0.0,0.0,0.0,-3.2615,-3.2635,-3.2513,-3.3155,-3.3583,-3.3609,-3.3761,-3.41,-3.4692,-3.4709,-3.5081,-3.5842,-3.5819,-3.5904,-3.6056,-3.684,-3.7533,-3.8142,-3.887,-3.9554,-4.0096,-4.0096,-4.0417,-4.088,-4.078,-4.1036,-4.1486,-4.1578,-4.1979,-4.2596,-4.3105,-4.3392,-4.3515,0.0,0.0,0.0,0.0,0.0,0.0,0.0,0.0,0.0,0.0,0.0,0.0,0.0,0.0,0.0,-2.5824,-2.5667,-2.5617,-2.5799,0.0,0.0,-2.5243,-2.5017,-2.4974,-2.5139,-2.5149,-2.5432,0.0,0.0,0.0,0.0,0.0,0.0,0.0,0.0,0.0,0.0,0.0,-2.8767,-2.8429,-2.884,0.0,-2.9005,-2.9005,-2.95,-3.0075,-2.9065,-2.8961,-2.9332,-2.9526,-2.9734,0.0,0.0,-3.0181,-3.0464,0.0,-3.0333,-3.0407,0.0,0.0,0.0,-3.0005,0.0,0.0,0.0,-2.8746,0.0,0.0,0.0,0.0,0.0,0.0,0.0,0.0,0.0,0.0,0.0,0.0,0.0,0.0,0.0,0.0,0.0,-3.1549,-3.1752,-3.1752,-3.2425,-3.2848,-3.2848,-3.3203,-3.3575,-3.3931,-3.3947,-3.4303,-3.5047,-3.5064,-3.525,-3.56,-3.6417,-3.6998,-3.7381,-3.8497,-3.9191,-3.9571,-3.9943,-4.057,-4.1335,-4.1018,-4.1603,-4.262,-4.2344,-4.2422,-4.2769,-4.3303,-4.3515,-4.3515,0.0,0.0,0.0,0.0,0.0,0.0,0.0,0.0,0.0,0.0,0.0,0.0,0.0,0.0,0.0,0.0,0.0,-2.5912,0.0,0.0,0.0,0.0,-2.5474,-2.5671,-2.5973,-2.6186,-2.639,0.0,0.0,0.0,0.0,0.0,0.0,0.0,0.0,0.0,0.0,0.0,0.0,-2.9005,0.0,-2.9005,-2.9005,-2.9005,-2.95,-3.0082,-2.9263,-2.8941,-2.9032,-3.0082,0.0,-3.0552,-3.0552,-3.1003,0.0,0.0,0.0,0.0,0.0,0.0,0.0,0.0,0.0,-2.9917,0.0,0.0,0.0,0.0,0.0,0.0,0.0,0.0,0.0,0.0,0.0,0.0,0.0,0.0,0.0,0.0,0.0,0.0,0.0,-3.0429,-3.0835,-3.097,-3.1529,-3.1938,-3.209,-3.2645,-3.3051,-3.3186,-3.3186,-3.3541,-3.4269,-3.4421,-3.4793,-3.5397,-3.618,-3.666,-3.6846,-3.8024,-3.865,-3.8819,-3.9571,-4.0466,-4.1388,-4.104,-4.1881,-4.3303,-4.2864,-4.2769,-4.2902,-4.3339,-4.3515,-4.3515,-2.2296,-2.2296,0.0,0.0,0.0,0.0,0.0,0.0,0.0,0.0,0.0,0.0,0.0,0.0,0.0,0.0,0.0,0.0,-2.8023,0.0,0.0,0.0,0.0,0.0,-2.557,-2.5308,-2.5686,0.0,0.0,0.0,0.0,0.0,0.0,0.0,-2.8932,0.0,0.0,0.0,-2.9005,0.0,-2.9005,-2.9005,0.0,-2.9005,-2.95,-3.0271,-3.0852,-3.0881,-3.0686,0.0,-3.1535,-3.1872,0.0,-3.1898,0.0,0.0,0.0,0.0,0.0,0.0,0.0,0.0,-3.0918,0.0,0.0,0.0,0.0,0.0,0.0,0.0,0.0,0.0,0.0,0.0,0.0,0.0,0.0,0.0,0.0,0.0,0.0,0.0,0.0,0.0,-2.9534,-3.0192,-3.0311,-3.0632,-3.1275,-3.1393,-3.1749,-3.2412,-3.2429,-3.2784,-3.3525,-3.4167,-3.4539,-3.4624,-3.5385,-3.6113,-3.6812,-3.6981,-3.7422,-3.8075,-3.8802,-3.9467,-4.008,-4.0649,-4.1643,-4.2788,-4.2713,-4.2995,-4.341,-4.3479,-4.3515,-4.3515,-2.2296,-2.2296,0.0,0.0,0.0,0.0,0.0,0.0,0.0,0.0,0.0,0.0,0.0,0.0,0.0,0.0,0.0,-2.7861,0.0,0.0,0.0,0.0,0.0,0.0,0.0,-2.6757,-2.6915,-2.7405,-2.6968,0.0,0.0,0.0,0.0,0.0,-2.824,0.0,-2.7985,0.0,0.0,0.0,0.0,0.0,0.0,-2.8583,-2.8744,-2.9093,-3.0782,-3.0721,-2.9923,0.0,-3.1487,0.0,0.0,0.0,0.0,0.0,0.0,0.0,0.0,0.0,0.0,0.0,0.0,0.0,-2.9131,0.0,-2.8156,0.0,0.0,0.0,0.0,0.0,0.0,0.0,0.0,0.0,0.0,0.0,0.0,0.0,0.0,0.0,0.0,0.0,0.0,0.0,-2.9871,-3.0243,-3.0548,-3.097,-3.1326,-3.1667,-3.1667,-3.2222,-3.3389,-3.3711,-3.4303,-3.5148,-3.5447,-3.5769,-3.6129,-3.6592,-3.6981,-3.7313,-3.8481,-3.9283,-3.9846,-4.0591,-4.1402,-4.2183,-4.2183,-4.2715,-4.3462,-4.316,-4.3232,-4.3515,-2.2564,0.0,0.0,0.0,0.0,0.0,0.0,0.0,0.0,0.0,0.0,0.0,-2.801,-2.8653,0.0,0.0,0.0,-2.884,0.0,0.0,-2.7045,0.0,0.0,0.0,0.0,0.0,0.0,-2.756,0.0,0.0,0.0,0.0,0.0,0.0,0.0,-2.7906,-2.7451,0.0,0.0,-2.7954,-2.8482,-2.8308,-2.7779,-2.8219,-2.8322,-2.849,-3.0508,-3.0554,-2.9821,-3.091,-3.1643,0.0,-3.1732,0.0,0.0,0.0,0.0,0.0,-3.235,0.0,0.0,0.0,0.0,0.0,0.0,0.0,0.0,0.0,0.0,0.0,0.0,0.0,0.0,0.0,0.0,0.0,0.0,0.0,0.0,0.0,0.0,0.0,0.0,0.0,0.0,-2.8653,-2.9178,-2.9649,-3.0072,-3.0615,-3.0987,-3.119,-3.119,-3.1715,-3.2797,-3.3203,-3.3926,-3.4991,-3.5414,-3.56,-3.5616,-3.6197,-3.6468,-3.6535,-3.7821,-3.8727,-3.9336,-4.0076,-4.0845,-4.1534,-4.1397,-4.2144,-4.3232,-4.2845,-4.2939,-4.3303,-2.3224,-2.2801,0.0,0.0,0.0,0.0,0.0,0.0,0.0,0.0,0.0,0.0,0.0,0.0,0.0,0.0,0.0,-3.0038,-2.9987,0.0,-2.7452,0.0,0.0,-2.6725,0.0,0.0,0.0,0.0,0.0,0.0,0.0,0.0,0.0,0.0,0.0,-2.857,-2.7904,-2.8246,-2.821,-2.7897,-2.7926,-2.7678,-2.7394,0.0,-2.8676,-2.9221,-3.0391,0.0,0.0,-3.2197,-3.2464,0.0,0.0,0.0,0.0,0.0,0.0,0.0,0.0,0.0,0.0,-3.1399,0.0,0.0,0.0,0.0,-2.9127,0.0,0.0,0.0,0.0,0.0,0.0,-2.5761,0.0,0.0,0.0,0.0,0.0,0.0,0.0,0.0,0.0,0.0,0.0,-2.779,-2.7858,-2.8534,-3.0023,-3.0125,-3.0463,-3.1173,-3.119,-3.1207,-3.1258,-3.2696,-3.3423,-3.3491,-3.4906,-3.56,-3.56,-3.5616,-3.5633,-3.5667,-3.6502,-3.7286,-3.8014,-3.8759,-3.9792,-4.0897,-4.036,-4.1213,-4.2713,-4.2711,-4.2711,-4.2807,0.0,0.0,0.0,0.0,0.0,0.0,0.0,-2.5592,0.0,0.0,0.0,0.0,0.0,0.0,-3.2205,0.0,0.0,-3.114,-3.0176,-2.9144,0.0,0.0,0.0,-2.774,0.0,0.0,0.0,0.0,0.0,0.0,0.0,0.0,0.0,0.0,0.0,-2.7482,0.0,0.0,0.0,0.0,0.0,-2.7332,-2.7692,0.0,0.0,-2.8135,-2.9798,-3.0298,0.0,-3.162,-3.2039,-3.2004,-3.1714,-3.2039,-3.2417,-3.1933,-3.2039,0.0,0.0,0.0,-3.1774,-3.1655,0.0,0.0,0.0,0.0,0.0,0.0,0.0,0.0,0.0,0.0,0.0,-2.637,-2.6539,0.0,0.0,0.0,0.0,0.0,0.0,0.0,0.0,0.0,0.0,-2.7046,-2.7519,-2.8027,-2.8551,-2.9548,-3.0226,-3.0463,-3.0954,-3.1664,-3.2645,-3.3152,-3.3897,-3.4856,-3.5363,-3.56,-3.56,-3.56,-3.56,-3.5633,-3.6451,-3.7212,-3.798,-3.907,-4.0077,-4.0926,-4.115,-4.1595,-4.2101,-4.2101,-4.258,-4.325,-2.4137,0.0,0.0,0.0,0.0,0.0,0.0,0.0,0.0,0.0,-2.9991,0.0,-3.3812,0.0,-3.3609,0.0,-3.3508,-3.2462,-3.097,-3.0176,0.0,-2.8281,-2.8722,0.0,0.0,0.0,0.0,0.0,0.0,-2.6962,0.0,0.0,0.0,0.0,0.0,0.0,0.0,0.0,-2.7067,0.0,0.0,-2.7003,0.0,0.0,-2.7351,-2.7889,0.0,-2.9847,-2.99,-3.1172,-3.1584,-3.1528,-3.1291,-3.16,-3.1986,-3.1677,-3.1788,-3.2039,-3.2039,-3.1823,0.0,-3.1771,-3.1299,0.0,-3.0713,0.0,0.0,0.0,0.0,0.0,0.0,0.0,0.0,-2.6691,-2.6691,-2.6691,0.0,-2.6691,0.0,0.0,0.0,0.0,0.0,0.0,-2.6691,-2.6691,-2.7148,-2.7638,0.0,0.0,-2.9956,-3.048,-3.0954,-3.1782,-3.3,-3.3271,-3.4015,-3.5216,-3.5464,-3.56,-3.56,-3.56,-3.56,-3.5639,-3.6355,-3.7092,-3.7849,-3.915,-4.0141,-4.0861,-4.1537,-4.1937,-4.2121,-4.2121,-4.2696,-4.3515,0.0,0.0,0.0,0.0,-2.5203,0.0,0.0,0.0,-2.9888,0.0,-3.1108,-3.2767,-3.3541,-3.3592,-3.4112,-3.5532,-3.4945,0.0,-3.2496,-3.1664,0.0,0.0,-2.9111,-2.9077,-2.8993,0.0,0.0,0.0,0.0,0.0,0.0,0.0,0.0,0.0,-2.75,0.0,-2.6725,-2.7115,-2.7051,-2.6691,-2.6691,-2.6708,-2.6725,-2.6759,-2.7451,-2.8536,-2.9229,-2.9743,-3.0226,-3.0954,-3.119,-3.119,-3.119,-3.119,-3.119,-3.119,-3.119,-3.119,-3.119,-3.119,-3.1291,-3.1678,0.0,0.0,0.0,0.0,-3.1004,0.0,0.0,0.0,0.0,0.0,0.0,-2.6725,-2.6691,-2.6691,-2.6691,0.0,0.0,0.0,0.0,0.0,0.0,-2.6691,-2.6691,-2.6691,-2.6691,0.0,0.0,0.0,-2.967,-3.1089,-3.1173,-3.1565,-3.2293,-3.3034,-3.3778,-3.4506,-3.5245,-3.56,-3.56,-3.56,-3.56,-3.5644,-3.6139,-3.6786,-3.7615,-3.8951,-3.9952,-4.071,-4.1573,-4.2223,-4.275,-4.275,-4.305,-4.3515,-2.5559,-2.6471,-2.7181,0.0,-2.6657,-2.6674,0.0,0.0,0.0,0.0,-3.3728,-3.5267,-3.6603,-3.6248,-3.6084,-3.6451,-3.5267,0.0,0.0,0.0,0.0,-3.0685,-3.0632,-3.0127,-2.9027,-2.8993,0.0,-2.7807,0.0,0.0,-2.6691,0.0,0.0,0.0,0.0,0.0,-2.6708,-2.6808,-2.6791,-2.6691,-2.6691,-2.6873,0.0,0.0,-2.822,-2.9212,-2.9143,-2.954,-3.0226,-3.0954,-3.119,-3.119,-3.119,-3.119,-3.119,-3.119,-3.119,-3.119,-3.119,-3.119,-3.123,-3.1332,-3.1271,-3.123,0.0,0.0,0.0,0.0,0.0,0.0,0.0,0.0,0.0,0.0,0.0,0.0,0.0,0.0,0.0,-2.7452,0.0,0.0,0.0,-2.6691,-2.6691,-2.6691,-2.6691,0.0,0.0,0.0,0.0,-3.0362,-3.0903,-3.1565,-3.2293,-3.3034,-3.3778,-3.4506,-3.5245,-3.56,-3.56,-3.56,-3.56,-3.5622,-3.5739,-3.6461,-3.7615,-3.9012,-4.0214,-4.1312,-4.2576,-4.316,-4.3286,-4.3286,-4.3392,-4.3515,-2.6488,0.0,0.0,-2.8383,0.0,0.0,-2.9279,0.0,0.0,-3.3203,-3.467,0.0,-3.6349,-3.6332,-3.6282,-3.6282,-3.5487,0.0,0.0,0.0,0.0,-3.1718,-3.136,-3.0801,-2.9991,-2.9634,0.0,-2.8332,0.0,0.0,-2.6691,0.0,0.0,0.0,0.0,-2.6691,0.0,-2.6691,-2.6691,-2.6691,-2.6691,0.0,0.0,-2.7725,-2.8626,-2.9742,-2.954,-2.9956,-3.0649,-3.1055,-3.119,-3.119,-3.119,-3.119,-3.119,-3.119,-3.119,-3.119,-3.119,-3.119,-3.119,-3.119,-3.119,-3.119,-3.119,-3.119,-3.119,0.0,0.0,0.0,0.0,0.0,0.0,0.0,0.0,0.0,0.0,0.0,0.0,0.0,0.0,0.0,0.0,0.0,-2.6691,0.0,0.0,0.0,0.0,0.0,0.0,-3.0072,-3.1123,-3.1887,-3.2293,-3.3339,-3.4083,-3.4506,-3.5245,-3.56,-3.56,-3.56,-3.56,-3.5622,-3.5854,-3.6358,-3.7168,-3.911,-4.0324,-4.1089,-4.281,-4.3515,-4.3515,-4.3515,-4.3515,-4.3515,0.0,0.0,0.0,0.0,0.0,0.0,0.0,-3.2307,0.0,-3.3609,0.0,-3.5566,-3.4742,-3.5318,-3.5701,-3.56,0.0,-3.5329,-3.4692,-3.3863,-3.3119,-3.2479,-3.1667,-3.119,-3.119,-3.048,0.0,0.0,0.0,0.0,0.0,0.0,0.0,0.0,0.0,0.0,0.0,-2.6793,-2.6843,0.0,-2.6962,-2.7385,-2.7976,-2.806,-2.8922,-3.0106,-3.0226,-3.0666,-3.119,-3.119,-3.119,-3.119,-3.119,-3.119,-3.119,-3.119,-3.119,-3.119,-3.119,-3.119,-3.119,-3.119,-3.119,-3.119,-3.119,-3.119,-3.119,-3.119,-3.0683,-3.0226,0.0,0.0,0.0,0.0,0.0,0.0,0.0,0.0,0.0,0.0,0.0,0.0,0.0,0.0,0.0,0.0,0.0,0.0,0.0,0.0,0.0,-3.0072,-3.1427,-3.2259,-3.2446,0.0,-3.4438,-3.4641,-3.5278,-3.56,-3.56,-3.56,-3.56,-3.5622,-3.6097,-3.635,-3.6582,-3.8963,-4.0111,-4.0546,-4.2612,-4.3357,-4.3303,-4.3444,-4.3463,-4.341,0.0,0.0,0.0,0.0,0.0,-3.3575,-3.4653,-3.4923,-3.5059,-3.5194,-3.6546,-3.6952,-3.5549,-3.6113,-3.6315,-3.565,-3.56,0.0,0.0,0.0,0.0,-3.322,-3.1918,-3.119,-3.119,-3.048,-2.9736,0.0,0.0,0.0,0.0,0.0,0.0,0.0,0.0,0.0,-2.6742,-2.7351,0.0,-2.7672,-2.8315,-2.8671,-2.8874,-2.9465,-2.9852,-3.0192,-3.0784,-3.1089,-3.119,-3.119,-3.119,-3.119,-3.119,-3.119,-3.119,-3.119,-3.119,-3.119,-3.119,-3.119,-3.119,-3.119,-3.119,-3.119,-3.119,-3.119,-3.119,-3.119,-3.1089,-3.0818,-3.0226,0.0,0.0,0.0,0.0,0.0,0.0,0.0,0.0,0.0,0.0,0.0,0.0,0.0,0.0,0.0,0.0,0.0,0.0,0.0,0.0,0.0,-3.0937,0.0,0.0,0.0,-3.4218,-3.5397,-3.5532,-3.56,-3.56,-3.56,-3.56,-3.56,-3.5694,-3.6006,-3.6485,-3.7623,-3.908,-4.0782,-4.2257,-4.2539,-4.2226,-4.3142,-4.3214,-4.2902,0.0,0.0,0.0,0.0,0.0,0.0,0.0,-3.7127,0.0,-3.6834,-3.6732,-3.6411,-3.5684,-3.596,-3.6028,-3.5633,-3.56,-3.56,-3.56,-3.4235,-3.3406,-3.3406,-3.1985,0.0,-3.119,-3.048,-2.9736,-2.8993,0.0,0.0,0.0,0.0,0.0,0.0,0.0,-2.7283,0.0,0.0,0.0,-2.8467,-2.884,-2.923,-2.96,-2.9973,-3.0345,-3.0717,-3.1072,-3.119,-3.119,-3.119,-3.119,-3.119,-3.119,-3.119,-3.119,-3.119,-3.119,-3.119,-3.119,-3.119,-3.119,-3.119,-3.119,-3.119,-3.119,-3.119,-3.119,-3.119,-3.119,-3.1089,-3.0734,-3.0074,0.0,0.0,0.0,0.0,0.0,0.0,0.0,0.0,0.0,0.0,0.0,0.0,0.0,0.0,0.0,0.0,0.0,0.0,0.0,0.0,0.0,0.0,0.0,0.0,0.0,-3.4467,-3.5228,-3.56,-3.56,-3.56,-3.56,-3.56,-3.56,-3.5982,-3.6713,-3.8165,-3.9738,-4.1363,-4.2336,-4.2519,-4.2382,-4.3196,-4.3339,-4.316,0.0,-3.3355,0.0,0.0,-3.5994,0.0,-3.7821,-3.8531,-3.8734,-3.8007,-3.6721,-3.5785,-3.5616,-3.56,-3.5532,-3.538,-3.5363,-3.5295,-3.5143,-3.3914,-3.3169,-3.3169,-3.1901,-3.119,-3.119,-3.0632,-2.9973,0.0,0.0,0.0,0.0,0.0,0.0,0.0,0.0,0.0,0.0,0.0,-2.923,-2.9264,-2.9399,-2.982,-3.0345,-3.0345,-3.0683,-3.119,-3.119,-3.119,-3.119,-3.119,-3.119,-3.119,-3.119,-3.119,-3.119,-3.119,-3.119,-3.119,-3.119,-3.119,-3.119,-3.119,-3.119,-3.119,-3.119,-3.119,-3.119,-3.119,-3.1072,-3.1004,-3.1157,-3.0598,0.0,0.0,0.0,0.0,0.0,0.0,0.0,0.0,0.0,0.0,0.0,0.0,0.0,0.0,0.0,0.0,0.0,0.0,0.0,0.0,0.0,-3.1955,-3.1664,0.0,-3.4134,-3.3897,-3.5042,-3.56,-3.56,-3.5769,-3.5853,-3.5853,-3.6005,-3.6451,-3.7157,-3.8906,-4.0321,-4.1435,-4.221,-4.25,-4.2578,-4.325,-4.3427,-4.3357,0.0,0.0,0.0,0.0,0.0,0.0,0.0,-3.8531,-3.8734,-3.8007,-3.7178,-3.64,-3.5667,-3.56,-3.5329,-3.4658,-3.459,-3.432,-3.366,-3.2848,-3.2412,-3.2412,-3.1613,-3.119,-3.119,-3.1123,-3.0734,0.0,0.0,0.0,0.0,0.0,0.0,0.0,0.0,0.0,0.0,-2.9685,-3.0006,-3.0074,-3.0717,-3.1038,-3.1089,-3.1089,-3.114,-3.119,-3.119,-3.119,-3.119,-3.119,-3.119,-3.119,-3.119,-3.119,-3.119,-3.119,-3.119,-3.119,-3.119,-3.119,-3.119,-3.119,-3.119,-3.119,-3.119,-3.119,-3.119,-3.119,-3.0666,-3.0412,-3.1072,-3.0598,-3.0072,0.0,0.0,0.0,0.0,0.0,0.0,0.0,0.0,0.0,0.0,0.0,0.0,0.0,0.0,0.0,0.0,0.0,0.0,-2.9989,0.0,-3.1901,-3.3186,-3.3406,-3.415,-3.5397,-3.5532,-3.56,-3.5616,-3.6349,-3.6694,-3.6728,-3.7398,-3.7736,-3.7855,-3.8722,-3.9435,-4.0108,-4.1378,-4.1895,-4.2021,-4.3105,-4.3196,-4.2845,0.0,0.0,0.0,0.0,0.0,0.0,0.0,-3.8802,-3.8565,-3.7381,-3.6998,-3.6694,-3.6349,-3.5893,-3.5295,-3.4556,-3.4489,-3.4184,-3.3457,-3.2716,-3.2293,-3.2293,-3.1599,-3.119,-3.119,-3.119,-3.0835,0.0,0.0,0.0,0.0,0.0,0.0,0.0,0.0,-2.9651,-2.9702,-3.0446,-3.0768,-3.0784,-3.1072,-3.119,-3.119,-3.119,-3.119,-3.119,-3.119,-3.119,-3.119,-3.119,-3.119,-3.119,-3.119,-3.119,-3.119,-3.119,-3.119,-3.119,-3.119,-3.119,-3.119,-3.119,-3.119,-3.119,-3.119,-3.119,-3.119,-3.119,-3.0615,-3.0192,-3.0497,-3.0311,-2.9973,0.0,0.0,0.0,0.0,0.0,0.0,0.0,0.0,0.0,0.0,0.0,0.0,0.0,0.0,0.0,0.0,0.0,0.0,-3.0072,0.0,-3.1478,-3.207,-3.2966,-3.3711,-3.4281,-3.5177,-3.56,-3.5616,-3.6417,-3.7049,-3.7499,-3.8244,-3.8731,-3.9083,-3.9838,-4.0487,-4.109,-4.1996,-4.2342,-4.2422,-4.3214,-4.3356,-4.3214,-3.8176,0.0,-3.7845,0.0,-3.87,-3.8396,-3.892,-3.8616,-3.7997,-3.6948,-3.6586,-3.6434,-3.6434,-3.5943,-3.5211,-3.4252,-3.4167,-3.3761,-3.2814,-3.2256,-3.1989,-3.1989,-3.1481,0.0,-3.119,-3.119,-3.0937,-3.0429,-3.0226,0.0,0.0,0.0,0.0,0.0,-3.0192,-3.0429,-3.0463,-3.097,-3.119,-3.119,-3.119,-3.119,-3.119,-3.119,-3.119,-3.119,-3.119,-3.119,-3.119,-3.119,-3.119,-3.119,-3.119,-3.119,-3.119,-3.119,-3.119,-3.119,-3.119,-3.119,-3.119,-3.119,-3.119,-3.119,-3.119,-3.119,-3.119,-3.119,-3.0615,-3.0176,-3.0378,-3.026,-2.9939,-2.9397,0.0,0.0,0.0,0.0,0.0,0.0,-2.6826,-2.6776,-2.6996,0.0,0.0,0.0,0.0,0.0,0.0,0.0,0.0,0.0,0.0,0.0,0.0,-3.2662,-3.3406,-3.3423,-3.489,-3.56,-3.5633,-3.6809,-3.7769,-3.8495,-3.9442,-4.0043,-4.0428,-4.0951,-4.1512,-4.2101,-4.2519,-4.2807,-4.2976,-4.3375,-4.3515,-4.3515,-3.8836,-3.8971,-3.9191,-3.996,-3.9486,-3.8988,-3.8988,-3.7777,-3.6829,-3.6795,-3.6113,-3.5616,-3.5616,-3.56,-3.5008,-3.3541,-3.3423,-3.2797,-3.1309,-3.1207,-3.1207,0.0,0.0,-3.119,-3.119,-3.119,-3.119,-3.119,0.0,0.0,-3.0091,0.0,-3.048,-3.1157,-3.1173,-3.119,-3.119,-3.119,-3.119,-3.119,-3.119,-3.119,-3.119,-3.119,-3.119,-3.119,-3.119,-3.119,-3.119,-3.119,-3.119,-3.119,-3.119,-3.119,-3.119,-3.119,-3.119,-3.119,-3.119,-3.119,-3.119,-3.119,-3.119,-3.119,-3.119,-3.119,-3.119,-3.119,-3.0615,-3.0328,-3.1055,-3.0598,-3.0108,-3.0091,0.0,0.0,0.0,0.0,0.0,0.0,-2.7148,-2.6996,-2.7722,0.0,0.0,0.0,0.0,0.0,0.0,0.0,0.0,-3.114,-3.119,0.0,-3.119,-3.2662,-3.3406,-3.3423,-3.489,-3.56,-3.5673,-3.774,-3.9071,-3.9834,-4.12,-4.1771,-4.1793,-4.1789,-4.2142,-4.2692,-4.2711,-4.3014,-4.3479,-4.3497,-4.3515,-4.3515,-3.9706,-3.9757,-3.9825,-4.0062,-3.991,-3.9419,-3.8396,-3.7855,-3.7178,-3.6129,-3.5752,-3.5397,-3.4912,-3.4844,-3.4252,0.0,-3.2666,-3.2242,0.0,-3.119,-3.119,-3.119,-3.119,-3.119,-3.119,-3.119,-3.119,-3.119,0.0,0.0,0.0,-3.0852,-3.097,-3.119,-3.119,-3.119,-3.119,-3.119,-3.119,-3.119,-3.119,-3.119,-3.119,-3.119,-3.119,-3.119,-3.119,-3.119,-3.119,-3.119,-3.119,-3.119,-3.119,-3.119,-3.119,-3.119,-3.119,-3.119,-3.119,-3.119,-3.119,-3.119,-3.119,-3.119,-3.119,-3.119,-3.119,-3.119,-3.0615,-3.0176,-3.0412,-3.026,-2.9939,-2.9433,-2.9162,0.0,0.0,0.0,0.0,0.0,-2.7587,-2.7774,0.0,-2.8417,0.0,0.0,0.0,0.0,0.0,0.0,0.0,0.0,-3.119,0.0,-3.1955,-3.2916,-3.366,-3.4167,-3.5148,-3.614,-3.7195,-3.7846,-3.8826,-4.0068,-4.0839,-4.1201,-4.1246,-4.2062,-4.2282,-4.2121,-4.2539,-4.2559,-4.2346,-4.2346,-4.2599,-4.2958,-3.9639,-3.969,-3.9605,-3.9309,-3.9259,-3.8853,-3.7669,-3.7229,-3.6681,-3.5718,-3.5346,-3.5013,-3.4539,-3.402,0.0,-3.2378,-3.2564,-3.2273,-3.1258,-3.119,-3.119,-3.119,-3.119,-3.119,-3.119,-3.119,0.0,-3.119,-3.119,-3.119,-3.119,-3.119,-3.119,-3.119,-3.119,-3.119,-3.119,-3.119,-3.119,-3.119,-3.119,-3.119,-3.119,-3.119,-3.119,-3.119,-3.119,-3.119,-3.119,-3.119,-3.119,-3.119,-3.119,-3.119,-3.119,-3.119,-3.119,-3.119,-3.119,-3.119,-3.119,-3.119,-3.119,-3.119,-3.119,-3.119,-3.119,-3.119,-3.0835,-3.0514,-3.0514,-3.0514,-3.0176,-2.9162,-2.8993,-2.862,-2.7554,0.0,0.0,0.0,0.0,0.0,0.0,-2.9162,-2.8874,0.0,0.0,0.0,0.0,0.0,0.0,-3.1173,-3.1461,0.0,-3.2293,-3.3305,-3.4184,-3.4928,-3.5977,-3.6975,-3.7922,-3.8397,-3.9112,-4.0031,-4.0851,-4.1246,-4.1291,-4.2059,-4.2142,-4.1832,-4.2203,-4.2142,-4.1832,-4.2041,-4.238,-4.2731,-3.8785,-3.892,-3.87,0.0,-3.7905,0.0,-3.6914,-3.6163,-3.565,-3.56,-3.5013,-3.4556,-3.4506,-3.3275,-3.2412,-3.231,0.0,0.0,0.0,-3.119,-3.119,-3.119,-3.119,-3.119,-3.119,-3.119,-3.119,-3.119,-3.119,-3.119,-3.119,-3.119,-3.119,-3.119,-3.119,-3.119,-3.119,-3.119,-3.119,-3.119,-3.119,-3.119,-3.119,-3.119,-3.119,-3.119,-3.119,-3.119,-3.119,-3.119,-3.119,-3.119,-3.119,-3.119,-3.119,-3.119,-3.119,-3.119,-3.119,-3.119,-3.119,-3.119,-3.119,-3.119,-3.119,-3.119,-3.119,-3.119,-3.119,-3.119,-3.119,-3.119,-3.0736,-2.9247,-2.8993,-2.8468,-2.6928,0.0,0.0,0.0,0.0,0.0,0.0,-2.955,-2.8805,0.0,0.0,0.0,0.0,0.0,-3.0565,-3.1241,-3.1938,-3.2344,-3.2446,-3.3816,-3.4895,-3.5701,-3.7144,-3.7889,-3.8031,-3.9198,-3.9783,-3.9893,-4.1192,-4.1725,-4.1703,-4.1768,-4.175,-4.1686,-4.1768,-4.1771,-4.181,-4.242,-4.2655,-4.2769,0.0,0.0,-3.8108,-3.7939,-3.7905,-3.7652,-3.6914,-3.6643,-3.6299,-3.5667,-3.5447,-3.5131,-3.4556,-3.4184,-3.3529,-3.2395,-3.1935,-3.1562,-3.1207,-3.119,-3.119,-3.119,-3.119,-3.119,-3.119,-3.119,-3.119,-3.119,-3.119,-3.119,-3.119,-3.119,-3.119,-3.119,-3.119,-3.119,-3.119,-3.119,-3.119,-3.119,-3.119,-3.119,-3.119,-3.119,-3.119,-3.119,-3.119,-3.119,-3.119,-3.119,-3.119,-3.119,-3.119,-3.119,-3.119,-3.119,-3.119,-3.119,-3.119,-3.119,-3.119,-3.119,-3.119,-3.119,-3.119,-3.119,-3.119,-3.119,-3.119,-3.119,-3.119,-3.119,-3.0736,-2.9247,-2.8993,-2.8468,-2.6928,-2.7182,0.0,0.0,-2.933,-2.9922,-3.0852,-3.0768,-3.0362,0.0,0.0,0.0,0.0,-3.1055,-3.187,-3.2039,-3.2209,-3.2835,-3.3964,-3.432,-3.5165,-3.6502,-3.6897,-3.7635,-3.8734,-3.9057,-3.9504,-4.0056,-4.0804,-4.0874,-4.057,-4.1442,-4.1286,-4.0594,-4.1464,-4.1512,-4.1201,-4.1789,-4.2302,-4.2731,-3.7313,-3.7398,-3.728,-3.6901,-3.7161,-3.7127,-3.6366,-3.6248,-3.5977,-3.5199,-3.4788,-3.4433,-3.4032,-3.3389,-3.2797,-3.2344,-3.1938,-3.1546,-3.1207,-3.119,-3.119,-3.119,-3.119,-3.119,-3.119,-3.119,-3.119,-3.119,-3.119,-3.119,-3.119,-3.119,-3.119,-3.119,-3.119,-3.119,-3.119,-3.119,-3.119,-3.119,-3.119,-3.119,-3.119,-3.119,-3.119,-3.119,-3.119,-3.119,-3.119,-3.119,-3.119,-3.119,-3.119,-3.119,-3.119,-3.119,-3.119,-3.119,-3.119,-3.119,-3.119,-3.119,-3.119,-3.119,-3.119,-3.119,-3.119,-3.119,-3.119,-3.119,-3.119,-3.092,-3.0311,-2.9179,-2.8687,-2.8044,-2.686,-2.7317,0.0,-2.8908,-2.9651,-3.0395,-3.1123,-3.119,-3.0886,-3.0176,-3.0784,0.0,-3.0632,-3.1684,-3.2293,-3.2293,-3.2953,-3.3698,-3.4489,-3.5182,-3.6321,-3.7811,-3.7811,-3.8403,-3.9503,-3.9503,-3.9855,-4.0473,-4.0504,-4.0672,-4.0891,-4.1263,-4.1196,-4.0938,-4.1573,-4.1599,-4.138,-4.1979,-4.242,-4.2711,-3.6468,-3.6626,-3.64,-3.5718,-3.6163,-3.6383,-3.5701,-3.56,-3.538,-3.4742,-3.4117,-3.3694,-3.3592,-3.2357,-3.1732,-3.2259,-3.2192,-3.187,-3.1241,-3.119,-3.119,-3.119,-3.119,-3.119,-3.119,-3.119,-3.119,-3.119,-3.119,-3.119,-3.119,-3.119,-3.119,-3.119,-3.119,-3.119,-3.119,-3.119,-3.119,-3.119,-3.119,-3.119,-3.119,-3.119,-3.119,-3.119,-3.119,-3.119,-3.119,-3.119,-3.119,-3.119,-3.119,-3.119,-3.119,-3.119,-3.119,-3.119,-3.119,-3.119,-3.119,-3.119,-3.119,-3.119,-3.119,-3.119,-3.119,-3.119,-3.119,-3.119,-3.119,-3.0598,-2.9905,-2.9281,-2.8399,-2.757,-2.6945,0.0,-2.8229,-2.8925,-2.9753,-3.0514,-3.114,-3.1292,-3.1106,-3.048,-3.1123,-3.1529,-3.1529,-3.2242,-3.2632,-3.2632,-3.385,-3.4539,-3.4658,-3.5943,-3.7401,-3.8955,-3.8955,-3.9462,-4.036,-4.036,-4.0618,-4.1018,-4.0546,-4.0908,-4.175,-4.1246,-4.1273,-4.1664,-4.175,-4.1729,-4.1746,-4.2342,-4.2559,-4.2559,-3.5752,-3.5785,-3.5735,-3.5616,-3.5701,-3.5735,-3.5616,-3.56,-3.5549,-3.543,-3.5329,-3.5008,-3.4387,-3.3575,-3.2848,-3.2344,-3.1735,-3.1309,-3.1207,-3.119,-3.119,-3.119,-3.119,-3.119,-3.119,-3.119,-3.119,-3.119,-3.119,-3.119,-3.119,-3.119,-3.119,-3.119,-3.119,-3.119,-3.119,-3.119,-3.119,-3.119,-3.119,-3.119,-3.119,-3.119,-3.119,-3.119,-3.119,-3.119,-3.119,-3.119,-3.119,-3.119,-3.119,-3.119,-3.119,-3.119,-3.119,-3.119,-3.119,-3.119,-3.119,-3.119,-3.119,-3.119,-3.119,-3.119,-3.119,-3.119,-3.119,-3.119,-3.119,-3.0598,-3.0055,-2.9956,-2.872,-2.7756,-2.7655,0.0,-2.8857,-2.8993,-3.0211,-3.1072,-3.119,-3.1769,-3.209,-3.1972,-3.2645,-3.3068,-3.3068,-3.3761,-3.415,-3.415,-3.437,-3.4793,-3.5414,-3.5667,-3.6774,-3.8753,-3.8753,-3.9747,-4.1552,-4.1552,-4.1578,-4.1643,-4.1556,-4.1639,-4.1793,-4.1686,-4.1424,-4.1087,-4.1599,-4.149,-4.111,-4.1725,-4.1937,-4.1937,-3.56,-3.56,-3.56,-3.56,-3.56,-3.5464,-3.5081,-3.5013,-3.4878,-3.4467,-3.4066,-3.3677,-3.3359,-3.2645,-3.207,-3.1752,-3.1393,-3.119,-3.119,-3.119,-3.119,-3.119,-3.119,-3.119,-3.119,-3.119,-3.119,-3.119,-3.119,-3.119,-3.119,-3.119,-3.119,-3.119,-3.119,-3.119,-3.119,-3.119,-3.119,-3.119,-3.119,-3.119,-3.119,-3.119,-3.119,-3.119,-3.119,-3.119,-3.119,-3.119,-3.119,-3.119,-3.119,-3.119,-3.119,-3.119,-3.119,-3.119,-3.119,-3.119,-3.119,-3.119,-3.119,-3.119,-3.119,-3.119,-3.119,-3.119,-3.119,-3.119,-3.119,-3.0598,-3.0108,-3.0108,-2.9178,0.0,-2.845,-2.911,-2.9583,-2.9583,-3.0531,-3.136,-3.1752,-3.2107,-3.2462,-3.2848,-3.322,-3.3575,-3.3964,-3.432,-3.4675,-3.5081,-3.5504,-3.5915,-3.6231,-3.6654,-3.7505,-3.8847,-3.8847,-3.9576,-4.0868,-4.0868,-4.1036,-4.1291,-4.1007,-4.1218,-4.1771,-4.1446,-4.1358,-4.1424,-4.1686,-4.1621,-4.1424,-4.1703,-4.2018,-4.2223,-3.56,-3.56,-3.5549,-3.5363,-3.5481,-3.5278,-3.4387,-3.4539,-3.4489,-3.3744,-3.3152,-3.2818,-3.2818,-3.2005,-3.1464,-3.1464,-3.1292,-3.119,-3.119,-3.119,-3.119,-3.119,-3.119,-3.119,-3.119,-3.119,-3.119,-3.119,-3.119,-3.119,-3.119,-3.119,-3.119,-3.119,-3.119,-3.119,-3.119,-3.119,-3.119,-3.119,-3.119,-3.119,-3.119,-3.119,-3.119,-3.119,-3.119,-3.119,-3.119,-3.119,-3.119,-3.119,-3.119,-3.119,-3.119,-3.119,-3.119,-3.119,-3.119,-3.119,-3.119,-3.119,-3.119,-3.119,-3.119,-3.119,-3.119,-3.119,-3.119,-3.119,-3.119,-3.0598,-3.0176,-3.0328,0.0,-2.9061,0.0,-2.9736,-3.0108,-3.0108,-3.0751,-3.1478,-3.2226,-3.2462,-3.2848,-3.3609,-3.3812,-3.4167,-3.4726,-3.4873,-3.5258,-3.595,-3.6339,-3.6626,-3.6795,-3.7347,-3.8146,-3.9197,-3.9197,-3.9644,-4.049,-4.049,-4.072,-4.1087,-4.0672,-4.0984,-4.175,-4.1313,-4.1313,-4.1599,-4.1599,-4.1512,-4.1397,-4.1397,-4.1768,-4.2221,-3.56,-3.56,-3.538,-3.4692,-3.5165,-3.5109,-3.3711,-3.4636,-3.5245,-3.4523,-3.437,-3.4358,-3.4358,-3.3072,-3.2226,-3.2226,-3.1579,-3.119,-3.119,-3.119,-3.119,-3.119,-3.119,-3.119,-3.119,-3.119,-3.119,-3.119,-3.119,-3.119,-3.119,-3.119,-3.119,-3.119,-3.119,-3.119,-3.119,-3.119,-3.119,-3.119,-3.119,-3.119,-3.119,-3.119,-3.119,-3.119,-3.119,-3.119,-3.119,-3.119,-3.119,-3.119,-3.119,-3.119,-3.119,-3.119,-3.119,-3.119,-3.119,-3.119,-3.119,-3.119,-3.119,-3.119,-3.119,-3.119,-3.119,-3.119,-3.119,-3.119,-3.119,-3.0598,-3.0328,-3.1004,0.0,0.0,-2.9922,-3.0074,-3.0108,-3.0108,-3.0751,-3.1478,-3.2226,-3.2916,-3.3626,-3.4353,-3.5064,-3.5464,-3.5515,-3.5989,-3.651,-3.7058,-3.6191,-3.6045,-3.6795,-3.6846,-3.786,-3.9726,-3.9726,-4.0418,-4.1664,-4.1664,-4.1703,-4.1729,-4.1686,-4.1707,-4.181,-4.175,-4.1424,-4.0972,-4.0972,-4.0655,-4.0229,-4.0229,-4.057,-4.1018,-3.56,-3.5131,-3.4675,-3.4523,-3.4117,-3.3558,-3.2831,-3.3186,-3.344,-3.3173,-3.3139,-3.3326,-3.3778,-3.2919,-3.2293,-3.2293,-3.1633,-3.119,-3.119,-3.119,-3.119,-3.119,-3.119,-3.119,-3.119,-3.119,-3.119,-3.119,-3.119,-3.119,-3.119,-3.119,-3.119,-3.119,-3.119,-3.119,-3.119,-3.119,-3.119,-3.119,-3.119,-3.119,-3.119,-3.119,-3.119,-3.119,-3.119,-3.119,-3.119,-3.119,-3.119,-3.119,-3.119,-3.119,-3.119,-3.119,-3.119,-3.119,-3.119,-3.119,-3.119,-3.119,-3.119,-3.119,-3.119,-3.119,-3.119,-3.119,-3.119,-3.119,-3.119,-3.097,-3.1021,-3.1769,0.0,-3.1312,-3.2053,-3.2154,-3.2154,-3.2154,-3.1985,-3.2361,-3.3563,-3.3508,-3.3914,-3.5098,-3.543,-3.56,-3.56,-3.6118,-3.6661,-3.7173,-3.7279,-3.729,-3.7229,-3.784,-3.8557,-3.93,-3.9785,-4.0421,-4.1246,-4.0891,-4.1145,-4.1789,-4.1402,-4.1446,-4.181,-4.181,-4.1446,-4.0903,-4.0903,-4.078,-4.0601,-4.0601,-4.1196,-4.2018,-3.56,-3.5081,-3.4607,-3.4506,-3.4015,-3.3406,-3.273,-3.3055,-3.3237,-3.3021,-3.2987,-3.3254,-3.4015,-3.322,-3.2666,-3.2666,-3.1972,-3.1464,-3.1207,-3.119,-3.119,-3.119,-3.119,-3.119,-3.119,-3.119,-3.119,-3.119,-3.119,-3.119,-3.119,-3.119,-3.119,-3.119,-3.119,-3.119,-3.119,-3.119,-3.119,-3.119,-3.119,-3.119,-3.119,-3.119,-3.119,-3.119,-3.119,-3.119,-3.119,-3.119,-3.119,-3.119,-3.119,-3.119,-3.119,-3.119,-3.119,-3.119,-3.119,-3.119,-3.119,-3.119,-3.119,-3.119,-3.119,-3.119,-3.1258,-3.1515,-3.1565,-3.1633,-3.185,-3.1884,-3.2053,-3.2564,-3.2666,-3.2814,-3.3339,-3.3406,-3.3406,-3.3406,-3.2949,-3.3139,-3.437,-3.4032,-3.4269,-3.5498,-3.56,-3.5672,-3.5832,-3.6203,-3.6745,-3.7525,-3.7692,-3.7921,-3.8191,-3.9083,-3.9519,-3.9512,-4.0274,-4.0838,-4.1178,-4.0797,-4.1053,-4.1789,-4.1358,-4.1424,-4.181,-4.181,-4.1556,-4.1161,-4.1161,-4.1161,-4.1161,-4.1161,-4.1725,-4.242,-3.56,-3.56,-3.5346,-3.4624,-3.5115,-3.5092,-3.3626,-3.4636,-3.5312,-3.459,-3.4489,-3.4776,-3.5498,-3.4303,-3.3406,-3.3406,-3.2733,-3.1989,-3.1241,-3.119,-3.119,-3.119,-3.119,-3.119,-3.119,-3.119,-3.119,-3.119,-3.119,-3.119,-3.119,-3.119,-3.119,-3.119,-3.119,-3.119,-3.119,-3.119,-3.119,-3.119,-3.119,-3.119,-3.119,-3.119,-3.119,-3.119,-3.119,-3.119,-3.119,-3.119,-3.119,-3.119,-3.119,-3.119,-3.119,-3.119,-3.119,-3.119,-3.119,-3.119,-3.1207,-3.119,-3.119,-3.119,-3.1207,-3.1207,-3.141,-3.2158,-3.2293,-3.253,-3.3271,-3.3406,-3.3406,-3.3406,-3.3406,-3.3423,-3.3423,-3.3423,-3.3423,-3.3423,-3.3423,-3.3694,-3.4438,-3.4489,-3.481,-3.5532,-3.56,-3.5832,-3.6354,-3.6412,-3.6989,-3.8245,-3.7082,-3.7482,-3.9669,-4.0348,-4.0639,-4.0594,-4.1396,-4.1789,-4.1793,-4.1789,-4.1789,-4.181,-4.1793,-4.181,-4.181,-4.181,-4.181,-4.1793,-4.1793,-4.1793,-4.1793,-4.1793,-4.181,-4.181,-3.56,-3.5182,-3.4759,-3.4523,-3.4252,-3.3914,-3.3474,-3.3778,-3.3981,-3.3761,-3.4167,-3.4573,-3.4793,-3.4438,-3.4167,-3.4167,-3.3021,-3.1989,-3.1241,-3.119,-3.119,-3.119,-3.119,-3.119,-3.119,-3.119,-3.119,-3.119,-3.119,-3.119,-3.119,-3.119,-3.119,-3.119,-3.119,-3.119,-3.119,-3.119,-3.119,-3.119,-3.119,-3.119,-3.119,-3.119,-3.119,-3.119,-3.119,-3.119,-3.119,-3.119,-3.119,-3.119,-3.119,-3.119,-3.119,-3.119,-3.119,-3.119,-3.119,-3.1562,-3.1853,-3.1326,-3.119,-3.1345,-3.1853,-3.1972,-3.2039,-3.2259,-3.2716,-3.2983,-3.2682,-3.3051,-3.3575,-3.4083,-3.4167,-3.4353,-3.4873,-3.494,-3.494,-3.494,-3.4489,-3.4455,-3.5194,-3.4793,-3.481,-3.5532,-3.56,-3.5832,-3.6354,-3.6897,-3.753,-3.8263,-3.8463,-3.8875,-3.9498,-3.9005,-3.9238,-4.0244,-4.0491,-4.0797,-4.1155,-4.0791,-4.1053,-4.1789,-4.1358,-4.1424,-4.181,-4.181,-4.1556,-4.1178,-4.1178,-4.1178,-4.1178,-4.1178,-4.1446,-4.181,-3.56,-3.525,-3.4844,-3.4539,-3.4134,-3.3744,-3.344,-3.3406,-3.3508,-3.3795,-3.4218,-3.4607,-3.4912,-3.4675,-3.437,-3.4083,-3.2713,-3.1684,-3.1224,-3.119,-3.119,-3.119,-3.119,-3.119,-3.119,-3.119,-3.119,-3.119,-3.119,-3.119,-3.119,-3.119,-3.119,-3.119,-3.119,-3.119,-3.119,-3.119,-3.119,-3.119,-3.119,-3.119,-3.119,-3.119,-3.119,-3.119,-3.119,-3.119,-3.119,-3.119,-3.119,-3.119,-3.119,-3.119,-3.119,-3.119,-3.119,-3.119,-3.119,-3.1532,-3.1836,-3.1684,-3.185,-3.2188,-3.2628,-3.273,-3.2835,-3.3123,-3.3508,-3.3795,-3.3626,-3.3981,-3.4421,-3.4861,-3.4945,-3.5098,-3.5532,-3.56,-3.56,-3.56,-3.5216,-3.5115,-3.5549,-3.5199,-3.5131,-3.5566,-3.5805,-3.6212,-3.6849,-3.7303,-3.806,-3.9206,-3.9441,-3.9813,-4.0332,-3.9451,-3.9558,-4.0629,-4.1195,-4.1512,-4.1599,-4.1281,-4.1353,-4.1789,-4.1424,-4.1468,-4.181,-4.181,-4.1578,-4.1268,-4.1268,-4.1268,-4.1268,-4.1268,-4.1335,-4.1446,-3.56,-3.56,-3.5363,-3.4624,-3.4489,-3.4252,-3.3508,-3.3406,-3.3643,-3.4303,-3.4387,-3.4658,-3.5329,-3.481,-3.4134,-3.3457,-3.2104,-3.1258,-3.119,-3.119,-3.119,-3.119,-3.119,-3.119,-3.119,-3.119,-3.119,-3.119,-3.119,-3.119,-3.119,-3.119,-3.119,-3.119,-3.119,-3.119,-3.119,-3.119,-3.119,-3.119,-3.119,-3.119,-3.119,-3.119,-3.119,-3.119,-3.119,-3.119,-3.119,-3.119,-3.119,-3.119,-3.119,-3.119,-3.119,-3.119,-3.119,-3.1207,-3.1275,-3.1343,-3.1562,-3.231,-3.3051,-3.3592,-3.3508,-3.3508,-3.3694,-3.4353,-3.4539,-3.4776,-3.538,-3.5549,-3.56,-3.56,-3.56,-3.56,-3.56,-3.56,-3.56,-3.56,-3.56,-3.56,-3.56,-3.56,-3.56,-3.56,-3.6122,-3.6734,-3.7382,-3.7607,-3.8558,-4.0379,-3.9873,-4.0223,-4.1625,-4.1032,-4.0945,-4.1463,-4.2741,-4.3087,-4.2616,-4.2616,-4.2322,-4.181,-4.181,-4.1771,-4.1707,-4.1707,-4.1686,-4.166,-4.166,-4.166,-4.166,-4.166,-4.1291,-4.085,-3.56,-3.56,-3.5363,-3.4624,-3.4489,-3.4252,-3.3508,-3.3406,-3.3457,-3.3626,-3.3643,-3.3711,-3.3863,-3.3744,-3.3575,-3.3423,-3.2577,-3.1819,-3.1241,-3.119,-3.119,-3.119,-3.119,-3.119,-3.119,-3.119,-3.119,-3.119,-3.119,-3.119,-3.119,-3.119,-3.119,-3.119,-3.119,-3.119,-3.119,-3.119,-3.119,-3.119,-3.119,-3.119,-3.119,-3.119,-3.119,-3.119,-3.119,-3.119,-3.119,-3.119,-3.119,-3.119,-3.119,-3.119,-3.119,-3.119,-3.119,-3.1326,-3.1904,-3.2476,-3.3102,-3.3829,-3.459,-3.4957,-3.4387,-3.4252,-3.4303,-3.4455,-3.4962,-3.5228,-3.481,-3.5216,-3.56,-3.56,-3.56,-3.56,-3.56,-3.56,-3.56,-3.56,-3.56,-3.56,-3.56,-3.56,-3.56,-3.56,-3.6294,-3.652,-3.606,-3.7727,-3.8632,-3.8516,-3.8909,-3.9559,-4.0466,-4.0626,-4.1047,-4.1712,-4.2014,-4.2103,-4.2018,-4.2018,-4.1916,-4.181,-4.181,-4.1534,-4.111,-4.111,-4.0844,-4.0466,-4.0466,-4.0466,-4.0466,-4.0466,-4.0385,-4.0319,-3.56,-3.56,-3.5245,-3.4167,-3.3981,-3.3609,-3.2527,-3.2357,-3.2476,-3.2831,-3.2882,-3.3,-3.3372,-3.3085,-3.273,-3.2374,-3.1985,-3.1616,-3.1224,-3.119,-3.119,-3.119,-3.119,-3.119,-3.119,-3.119,-3.119,-3.119,-3.119,-3.119,-3.119,-3.119,-3.119,-3.119,-3.119,-3.119,-3.119,-3.119,-3.119,-3.119,-3.119,-3.119,-3.119,-3.119,-3.119,-3.119,-3.119,-3.119,-3.119,-3.119,-3.119,-3.119,-3.119,-3.119,-3.119,-3.119,-3.1444,-3.1819,-3.2192,-3.2831,-3.3592,-3.432,-3.4793,-3.5081,-3.503,-3.503,-3.503,-3.503,-3.5329,-3.5481,-3.5115,-3.5329,-3.56,-3.56,-3.56,-3.56,-3.56,-3.56,-3.56,-3.56,-3.56,-3.56,-3.56,-3.5832,-3.5876,-3.5622,-3.6547,-3.6948,-3.6559,-3.8014,-3.8958,-3.924,-3.9621,-4.0152,-4.0891,-4.1125,-4.1424,-4.181,-4.2346,-4.2327,-4.181,-4.181,-4.1508,-4.0984,-4.0984,-4.0814,-4.0521,-4.0521,-4.0343,-4.0096,-4.0096,-4.0096,-4.0096,-4.0096,-4.0096,-4.0146,-3.56,-3.56,-3.516,-3.3829,-3.3491,-3.2949,-3.1579,-3.1275,-3.141,-3.2039,-3.2107,-3.2324,-3.2966,-3.2476,-3.187,-3.1241,-3.119,-3.119,-3.119,-3.119,-3.119,-3.119,-3.119,-3.119,-3.119,-3.119,-3.119,-3.119,-3.119,-3.119,-3.119,-3.119,-3.119,-3.119,-3.119,-3.119,-3.119,-3.119,-3.119,-3.119,-3.119,-3.119,-3.119,-3.119,-3.119,-3.119,-3.119,-3.119,-3.119,-3.119,-3.119,-3.119,-3.119,-3.1275,-3.1396,-3.1396,-3.1921,-3.2513,-3.2649,-3.3119,-3.3778,-3.4506,-3.4776,-3.5013,-3.5481,-3.56,-3.56,-3.56,-3.56,-3.56,-3.56,-3.5701,-3.5752,-3.5616,-3.5718,-3.5752,-3.5616,-3.5718,-3.5825,-3.5825,-3.5904,-3.5988,-3.5988,-3.64,-3.647,-3.6034,-3.7107,-3.7668,-3.7474,-3.8264,-3.9147,-4.0007,-4.0148,-4.0567,-4.1297,-4.1406,-4.1519,-4.1664,-4.2697,-4.2697,-4.181,-4.181,-4.1286,-4.0385,-4.0385,-4.0336,-4.0254,-4.0254,-4.0179,-4.0096,-4.0096,-4.0096,-4.0096,-4.0096,-4.0096,-4.0121,-3.56,-3.56,-3.5329,-3.4489,-3.3829,-3.3119,-3.2276,-3.1616,-3.1241,-3.1345,-3.1343,-3.1376,-3.1478,-3.141,-3.1309,-3.1207,-3.119,-3.119,-3.119,-3.119,-3.119,-3.119,-3.119,-3.119,-3.119,-3.119,-3.119,-3.119,-3.119,-3.119,-3.119,-3.119,-3.119,-3.119,-3.119,-3.119,-3.119,-3.119,-3.119,-3.119,-3.119,-3.119,-3.119,-3.119,-3.119,-3.119,-3.119,-3.119,-3.119,-3.119,-3.119,-3.119,-3.119,-3.165,-3.2158,-3.2158,-3.2662,-3.3389,-3.4015,-3.4269,-3.4523,-3.5261,-3.5977,-3.6315,-3.5757,-3.56,-3.56,-3.56,-3.56,-3.56,-3.56,-3.6163,-3.64,-3.5701,-3.618,-3.6383,-3.5701,-3.6197,-3.6643,-3.6643,-3.7195,-3.7601,-3.7601,-3.7655,-3.7672,-3.7601,-3.8333,-3.8252,-3.6984,-3.8201,-3.8469,-3.7354,-3.795,-3.8625,-3.9357,-3.983,-4.0398,-4.1041,-4.1707,-4.1958,-4.181,-4.181,-4.1725,-4.1573,-4.1573,-4.1268,-4.0803,-4.0803,-4.0521,-4.0096,-4.0096,-4.0096,-4.0096,-4.0096,-4.0096,-4.0171,-3.56,-3.5261,-3.4759,-3.4015,-3.3271,-3.2547,-3.1802,-3.1413,-3.119,-3.119,-3.119,-3.119,-3.119,-3.119,-3.119,-3.119,-3.119,-3.119,-3.119,-3.119,-3.119,-3.119,-3.119,-3.119,-3.119,-3.119,-3.119,-3.119,-3.119,-3.119,-3.119,-3.119,-3.119,-3.119,-3.119,-3.119,-3.119,-3.119,-3.119,-3.119,-3.119,-3.119,-3.119,-3.119,-3.119,-3.119,-3.119,-3.119,-3.119,-3.119,-3.119,-3.1258,-3.1684,-3.2039,-3.2378,-3.278,-3.344,-3.4083,-3.4404,-3.4793,-3.5199,-3.5515,-3.5876,-3.6146,-3.6248,-3.5926,-3.56,-3.56,-3.596,-3.6265,-3.6265,-3.6891,-3.7297,-3.6935,-3.684,-3.6829,-3.6891,-3.684,-3.6965,-3.7364,-3.7702,-3.7905,-3.7905,-3.7905,-3.7905,-3.7905,-3.8582,-3.8531,-3.7466,-3.8413,-3.8684,-3.8065,-3.8345,-3.887,-3.9622,-3.9842,-4.0124,-4.0449,-4.072,-4.1007,-4.1291,-4.1291,-4.1133,-4.0861,-4.0861,-4.0696,-4.0449,-4.0449,-4.0311,-4.0096,-4.0096,-4.0096,-4.0096,-4.0096,-4.0096,-4.0146]}]]